[[{"header":{"parameterUnit":"m.s-1","parameterCategory":1,"la1":30.6,"la2":29.2853,"lo1":-89.7004,"lo2":-87.6739,"dy":0.0162,"dx":0.0183,"nx":112,"ny":82,"refTime":"2025-04-11T00:00:00:Z","depth":0,"parameterNumber":2,"parameterNumberName":"U-component_of_WINDS"},"data":[0.0,0.0,0.0,0.0,0.0,0.0,0.0,0.0,0.0,0.0,0.0,0.0,0.0,0.0,0.0,0.0,0.0,0.0,0.0,0.0,0.0,0.0,0.0,0.0,0.0,0.0,0.0,0.0,0.0,0.0,0.0,0.0,0.0,0.0,0.0,0.0,0.0,0.0,0.0,0.0,0.0,0.0,0.0,0.0,0.0,0.0,0.0,0.0,0.0,0.0,0.0,0.0,0.0,0.0,0.0,0.0,0.0,0.0,0.0,0.0,0.0,0.0,0.0,0.0,0.0,0.0,0.0,0.0,0.0,0.0,0.0,0.0,0.0,0.0,0.0,0.0,0.0,0.0,0.0,0.0,0.0,0.0,0.0,0.0,0.0,0.0,0.0,0.0,0.0,0.0,0.0,5.0587,5.6221,5.9911,6.0397,5.9652,5.729,5.2917,0.0,0.0,0.0,0.0,0.0,0.0,0.0,0.0,0.0,0.0,0.0,0.0,0.0,0.0,0.0,0.0,0.0,0.0,0.0,0.0,0.0,0.0,0.0,0.0,0.0,0.0,0.0,0.0,0.0,0.0,0.0,0.0,0.0,0.0,0.0,0.0,0.0,0.0,0.0,0.0,0.0,0.0,0.0,0.0,0.0,0.0,0.0,0.0,0.0,0.0,0.0,0.0,0.0,0.0,0.0,0.0,0.0,0.0,0.0,0.0,0.0,0.0,0.0,0.0,0.0,0.0,0.0,0.0,0.0,0.0,0.0,0.0,0.0,0.0,0.0,0.0,0.0,0.0,0.0,0.0,0.0,0.0,0.0,0.0,0.0,0.0,0.0,0.0,0.0,0.0,0.0,0.0,0.0,0.0,0.0,0.0,0.0,0.0,0.0,0.0,0.0,0.0,0.0,0.0,4.902,5.5679,5.8345,5.9967,6.0639,6.0201,5.7583,5.2092,0.0,0.0,0.0,0.0,0.0,0.0,0.0,0.0,0.0,0.0,0.0,0.0,0.0,0.0,0.0,0.0,0.0,0.0,0.0,0.0,0.0,0.0,0.0,0.0,0.0,0.0,0.0,0.0,0.0,0.0,0.0,0.0,0.0,0.0,0.0,0.0,0.0,0.0,0.0,0.0,0.0,0.0,0.0,0.0,0.0,0.0,0.0,0.0,0.0,0.0,0.0,0.0,0.0,0.0,0.0,0.0,0.0,0.0,0.0,0.0,0.0,0.0,0.0,0.0,0.0,0.0,0.0,0.0,0.0,0.0,0.0,0.0,0.0,0.0,0.0,0.0,0.0,0.0,0.0,0.0,0.0,0.0,0.0,0.0,0.0,0.0,0.0,0.0,0.0,0.0,0.0,0.0,0.0,0.0,0.0,0.0,0.0,0.0,0.0,0.0,0.0,0.0,0.0,4.8615,5.3258,5.8229,6.0347,6.1504,6.1754,6.1216,5.868,5.3475,4.9642,0.0,0.0,0.0,0.0,0.0,0.0,0.0,0.0,0.0,0.0,0.0,0.0,0.0,0.0,0.0,0.0,0.0,0.0,0.0,0.0,0.0,0.0,0.0,0.0,0.0,0.0,0.0,0.0,0.0,0.0,0.0,0.0,0.0,0.0,0.0,0.0,0.0,0.0,0.0,0.0,0.0,0.0,0.0,0.0,0.0,0.0,0.0,0.0,0.0,0.0,0.0,0.0,0.0,0.0,0.0,0.0,0.0,0.0,0.0,0.0,0.0,0.0,0.0,0.0,0.0,0.0,0.0,0.0,0.0,0.0,0.0,0.0,0.0,0.0,0.0,0.0,0.0,0.0,0.0,0.0,0.0,0.0,0.0,0.0,0.0,0.0,0.0,0.0,0.0,0.0,0.0,0.0,0.0,0.0,0.0,0.0,0.0,0.0,0.0,0.0,0.0,0.0,5.2235,5.6567,5.9585,6.1837,6.2959,6.2584,6.1703,5.9112,5.4415,4.9987,0.0,0.0,0.0,0.0,0.0,0.0,0.0,0.0,0.0,0.0,0.0,0.0,0.0,0.0,0.0,0.0,0.0,0.0,0.0,0.0,0.0,0.0,0.0,0.0,0.0,0.0,0.0,0.0,0.0,0.0,0.0,0.0,0.0,0.0,0.0,0.0,0.0,0.0,0.0,0.0,0.0,0.0,0.0,0.0,0.0,0.0,0.0,0.0,0.0,0.0,0.0,0.0,0.0,0.0,0.0,0.0,0.0,0.0,0.0,0.0,0.0,0.0,0.0,0.0,0.0,0.0,0.0,0.0,0.0,0.0,0.0,0.0,0.0,0.0,0.0,0.0,0.0,0.0,0.0,0.0,0.0,0.0,0.0,0.0,0.0,0.0,0.0,0.0,0.0,0.0,0.0,0.0,0.0,0.0,0.0,0.0,0.0,0.0,0.0,0.0,0.0,0.0,5.2807,5.7113,6.0327,6.2652,6.3613,6.2936,6.1231,5.8129,5.3236,4.7897,0.0,0.0,0.0,0.0,0.0,0.0,0.0,0.0,0.0,0.0,0.0,0.0,0.0,0.0,0.0,0.0,0.0,0.0,0.0,0.0,0.0,0.0,0.0,0.0,0.0,0.0,0.0,0.0,0.0,0.0,0.0,0.0,0.0,0.0,0.0,0.0,0.0,0.0,0.0,0.0,0.0,0.0,0.0,0.0,0.0,0.0,0.0,0.0,0.0,0.0,0.0,0.0,0.0,0.0,0.0,0.0,0.0,0.0,0.0,0.0,0.0,0.0,0.0,0.0,0.0,0.0,0.0,0.0,0.0,0.0,0.0,0.0,0.0,0.0,0.0,0.0,0.0,0.0,0.0,0.0,0.0,0.0,0.0,0.0,0.0,0.0,0.0,0.0,0.0,0.0,0.0,0.0,0.0,0.0,0.0,0.0,0.0,0.0,0.0,0.0,0.0,0.0,5.4026,5.8595,0.0,6.3643,6.4739,6.4835,6.3408,6.0131,5.4481,0.0,0.0,0.0,0.0,0.0,0.0,0.0,0.0,0.0,0.0,0.0,0.0,0.0,0.0,0.0,0.0,0.0,0.0,0.0,0.0,0.0,0.0,0.0,0.0,0.0,0.0,0.0,0.0,0.0,0.0,0.0,0.0,0.0,0.0,0.0,0.0,0.0,0.0,0.0,0.0,0.0,0.0,0.0,0.0,0.0,0.0,0.0,0.0,0.0,0.0,0.0,0.0,0.0,0.0,0.0,0.0,0.0,0.0,0.0,0.0,0.0,0.0,0.0,0.0,0.0,0.0,0.0,0.0,0.0,0.0,0.0,0.0,0.0,0.0,0.0,0.0,0.0,0.0,0.0,0.0,0.0,0.0,0.0,0.0,0.0,0.0,0.0,0.0,0.0,0.0,0.0,0.0,0.0,0.0,0.0,0.0,0.0,0.0,0.0,0.0,0.0,0.0,4.901,5.4741,5.9613,0.0,6.425,6.5417,6.5707,6.4447,6.1239,5.5343,0.0,0.0,0.0,0.0,0.0,0.0,0.0,0.0,0.0,0.0,0.0,0.0,0.0,0.0,0.0,0.0,0.0,0.0,0.0,0.0,0.0,0.0,0.0,0.0,0.0,0.0,0.0,0.0,0.0,0.0,0.0,0.0,0.0,0.0,0.0,0.0,0.0,0.0,0.0,0.0,0.0,0.0,0.0,0.0,0.0,0.0,0.0,0.0,0.0,0.0,0.0,0.0,0.0,0.0,0.0,0.0,0.0,0.0,0.0,0.0,0.0,0.0,0.0,0.0,0.0,0.0,0.0,0.0,0.0,0.0,0.0,0.0,0.0,0.0,0.0,0.0,0.0,0.0,0.0,0.0,0.0,0.0,0.0,0.0,0.0,0.0,0.0,0.0,0.0,0.0,0.0,0.0,0.0,0.0,0.0,0.0,0.0,0.0,0.0,0.0,0.0,0.0,4.8505,5.4902,6.0032,6.1692,6.4412,6.5772,6.5058,6.3802,6.0857,0.0,0.0,0.0,0.0,0.0,0.0,0.0,0.0,0.0,0.0,0.0,0.0,0.0,0.0,0.0,0.0,0.0,0.0,0.0,0.0,0.0,0.0,0.0,0.0,0.0,0.0,0.0,0.0,0.0,0.0,0.0,0.0,0.0,0.0,0.0,0.0,0.0,0.0,0.0,0.0,0.0,0.0,0.0,0.0,0.0,0.0,0.0,0.0,0.0,0.0,0.0,0.0,0.0,0.0,0.0,0.0,0.0,0.0,0.0,0.0,0.0,0.0,0.0,0.0,0.0,0.0,0.0,0.0,0.0,0.0,0.0,0.0,0.0,0.0,0.0,0.0,0.0,0.0,0.0,0.0,0.0,0.0,0.0,0.0,0.0,0.0,0.0,0.0,0.0,0.0,0.0,0.0,0.0,0.0,0.0,0.0,0.0,0.0,0.0,0.0,0.0,0.0,0.0,0.0,5.5834,6.067,6.3952,6.5382,6.6452,6.7458,6.6712,6.4207,5.9437,0.0,0.0,0.0,0.0,0.0,0.0,0.0,0.0,0.0,0.0,0.0,0.0,0.0,0.0,0.0,0.0,0.0,0.0,0.0,0.0,0.0,0.0,0.0,0.0,0.0,0.0,0.0,0.0,0.0,0.0,0.0,0.0,0.0,0.0,0.0,0.0,0.0,0.0,0.0,0.0,0.0,0.0,0.0,0.0,0.0,0.0,0.0,0.0,0.0,0.0,0.0,0.0,0.0,0.0,0.0,0.0,0.0,0.0,0.0,0.0,0.0,0.0,0.0,0.0,0.0,0.0,0.0,0.0,0.0,0.0,0.0,0.0,0.0,0.0,0.0,0.0,0.0,0.0,0.0,0.0,0.0,0.0,0.0,0.0,0.0,0.0,0.0,0.0,0.0,0.0,0.0,0.0,0.0,0.0,0.0,0.0,0.0,0.0,0.0,0.0,0.0,0.0,5.0968,5.6369,6.1213,6.4659,6.5801,6.6777,6.8111,6.7981,6.5828,6.0954,0.0,0.0,0.0,0.0,0.0,0.0,0.0,0.0,0.0,0.0,0.0,0.0,0.0,0.0,0.0,0.0,0.0,0.0,0.0,0.0,0.0,0.0,0.0,0.0,0.0,0.0,0.0,0.0,0.0,0.0,0.0,0.0,0.0,0.0,0.0,0.0,0.0,0.0,0.0,0.0,0.0,0.0,0.0,0.0,0.0,0.0,0.0,0.0,0.0,0.0,0.0,0.0,0.0,0.0,0.0,0.0,0.0,0.0,0.0,0.0,0.0,0.0,0.0,0.0,0.0,0.0,0.0,0.0,0.0,0.0,0.0,0.0,0.0,0.0,0.0,0.0,0.0,0.0,0.0,0.0,0.0,0.0,0.0,0.0,0.0,0.0,0.0,0.0,0.0,0.0,0.0,0.0,0.0,0.0,0.0,0.0,0.0,0.0,0.0,0.0,0.0,0.0,5.0691,5.6763,6.1815,6.43,6.5766,6.6874,6.7623,6.814,6.6242,6.1251,0.0,0.0,0.0,0.0,0.0,0.0,0.0,0.0,0.0,0.0,0.0,0.0,0.0,0.0,0.0,0.0,0.0,0.0,0.0,0.0,0.0,0.0,0.0,0.0,0.0,0.0,0.0,0.0,0.0,0.0,0.0,0.0,0.0,0.0,0.0,0.0,0.0,0.0,0.0,0.0,0.0,0.0,0.0,0.0,0.0,0.0,0.0,0.0,0.0,0.0,0.0,0.0,0.0,0.0,0.0,0.0,0.0,0.0,0.0,0.0,4.2288,0.0,0.0,0.0,0.0,0.0,0.0,0.0,0.0,0.0,0.0,0.0,0.0,0.0,0.0,0.0,0.0,0.0,0.0,0.0,0.0,0.0,0.0,0.0,0.0,0.0,0.0,0.0,0.0,0.0,0.0,0.0,0.0,0.0,0.0,0.0,0.0,0.0,0.0,0.0,0.0,0.0,5.1963,5.7797,6.2723,6.5734,6.6615,6.7427,6.8307,6.8471,6.7264,6.4188,0.0,0.0,0.0,0.0,0.0,0.0,0.0,0.0,0.0,0.0,0.0,0.0,0.0,0.0,0.0,0.0,0.0,0.0,0.0,0.0,0.0,0.0,0.0,0.0,0.0,0.0,0.0,0.0,0.0,0.0,0.0,0.0,0.0,0.0,0.0,0.0,0.0,0.0,0.0,0.0,0.0,0.0,0.0,0.0,0.0,0.0,0.0,0.0,0.0,0.0,0.0,0.0,0.0,0.0,0.0,0.0,0.0,0.0,0.0,0.0,0.0,4.636,0.0,0.0,0.0,0.0,0.0,0.0,0.0,0.0,0.0,0.0,0.0,0.0,0.0,0.0,0.0,0.0,0.0,0.0,0.0,0.0,0.0,0.0,0.0,0.0,0.0,0.0,0.0,0.0,0.0,0.0,0.0,0.0,0.0,0.0,0.0,0.0,0.0,0.0,0.0,0.0,5.3343,5.8654,6.3408,6.6711,6.7265,6.7753,6.8535,6.8699,6.7818,6.5643,6.3427,0.0,0.0,0.0,0.0,0.0,0.0,0.0,0.0,0.0,0.0,0.0,0.0,0.0,0.0,0.0,0.0,0.0,0.0,0.0,0.0,0.0,0.0,0.0,0.0,0.0,0.0,0.0,0.0,0.0,0.0,0.0,0.0,0.0,0.0,0.0,0.0,0.0,0.0,0.0,0.0,0.0,0.0,0.0,0.0,0.0,0.0,0.0,0.0,0.0,0.0,0.0,0.0,0.0,0.0,0.0,5.9045,5.8977,5.8874,5.8596,5.4918,5.2358,5.0697,0.0,0.0,0.0,0.0,0.0,0.0,0.0,0.0,0.0,0.0,0.0,0.0,0.0,0.0,0.0,0.0,0.0,0.0,0.0,0.0,0.0,0.0,0.0,0.0,0.0,5.2872,5.2774,0.0,0.0,0.0,0.0,0.0,0.0,0.0,0.0,0.0,0.0,0.0,0.0,5.4627,5.9724,6.4222,6.7362,6.7883,6.8273,6.8826,6.909,6.8471,6.6647,6.5541,6.3004,0.0,0.0,0.0,0.0,0.0,0.0,0.0,0.0,0.0,0.0,0.0,0.0,0.0,0.0,0.0,0.0,0.0,0.0,0.0,0.0,0.0,0.0,0.0,0.0,0.0,0.0,0.0,0.0,0.0,0.0,0.0,0.0,4.1861,4.3319,0.0,0.0,0.0,0.0,0.0,0.0,0.0,0.0,0.0,0.0,0.0,0.0,0.0,0.0,5.5537,5.8289,6.0105,6.0978,6.1709,6.251,6.338,6.3202,6.282,6.2266,6.1502,0.0,5.5854,5.4171,0.0,0.0,0.0,0.0,0.0,0.0,0.0,0.0,0.0,0.0,0.0,0.0,0.0,0.0,0.0,0.0,0.0,0.0,0.0,0.0,0.0,0.0,5.3613,5.5724,5.6913,5.7213,0.0,5.2363,4.926,4.8507,0.0,0.0,0.0,0.0,0.0,0.0,0.0,0.0,5.5345,6.1331,6.5964,6.791,6.9307,7.0015,7.0112,7.0215,6.97,6.8306,6.759,6.5861,6.3007,6.0772,0.0,0.0,0.0,0.0,0.0,0.0,0.0,0.0,0.0,0.0,0.0,0.0,0.0,0.0,0.0,0.0,0.0,0.0,0.0,0.0,0.0,0.0,0.0,0.0,0.0,0.0,0.0,0.0,0.0,4.1854,4.4617,4.59,4.5609,4.528,0.0,0.0,0.0,0.0,0.0,0.0,0.0,0.0,0.0,5.2726,5.5482,5.7903,5.9839,6.2108,6.3693,6.4636,6.5398,6.6164,6.6795,6.612,6.5739,6.5538,6.5047,6.3691,6.1638,5.9029,5.7206,5.5714,0.0,0.0,0.0,0.0,0.0,4.9222,4.9651,0.0,0.0,0.0,0.0,0.0,0.0,0.0,0.0,0.0,0.0,0.0,0.0,0.0,0.0,5.9042,5.9716,5.9967,5.9708,5.8152,5.6088,0.0,5.2604,5.1418,4.9011,0.0,0.0,0.0,0.0,0.0,5.8566,6.2968,6.648,6.8622,6.9756,7.0403,7.0403,7.0403,6.995,6.9083,6.8336,6.7037,6.5085,6.2939,5.9739,0.0,0.0,0.0,0.0,0.0,0.0,0.0,0.0,0.0,0.0,0.0,0.0,0.0,0.0,0.0,0.0,0.0,0.0,0.0,0.0,0.0,0.0,0.0,0.0,0.0,0.0,0.0,0.0,4.4319,0.0,4.8437,4.8615,4.871,0.0,0.0,0.0,0.0,0.0,0.0,5.1172,5.3211,5.5129,5.6786,5.9061,6.1173,6.3098,6.5021,6.6497,6.7508,6.8304,6.8962,6.9526,6.874,6.8357,6.8299,6.7701,6.6973,6.6038,6.3133,6.0749,5.8808,5.678,5.5174,5.3742,5.1779,5.2695,5.4922,5.5409,5.6986,5.8839,5.8425,0.0,5.6948,5.4621,0.0,0.0,0.0,0.0,5.439,5.6267,0.0,6.0789,6.1834,6.237,6.2616,6.2464,6.2516,6.1589,0.0,5.7409,5.6639,5.4162,0.0,0.0,0.0,0.0,5.7817,6.1644,6.4739,6.7351,6.9626,7.05,7.0954,7.0954,7.0954,7.063,6.9988,6.9242,6.8236,6.6907,6.4958,6.2301,5.871,0.0,0.0,0.0,0.0,0.0,0.0,0.0,0.0,0.0,0.0,0.0,0.0,0.0,0.0,0.0,0.0,0.0,0.0,0.0,0.0,0.0,0.0,0.0,0.0,0.0,0.0,0.0,0.0,0.0,5.0283,5.1822,0.0,0.0,0.0,0.0,5.2634,5.4029,5.5415,5.6843,5.8602,5.9978,6.096,6.274,6.4107,6.5141,6.7477,6.8893,6.9484,7.03,7.0965,7.1511,7.1322,7.0902,7.0319,7.0132,6.9258,6.7901,6.5514,6.3618,6.2073,6.1265,6.0329,5.9464,5.9364,5.9788,6.0419,6.0456,6.0528,6.0804,6.1465,6.0497,5.9047,5.8187,5.6542,0.0,0.0,5.7155,5.7706,5.9963,6.1855,6.3268,6.4023,6.4966,6.5474,6.4892,6.4733,6.4051,0.0,6.1019,6.0043,5.746,0.0,5.6834,5.5196,5.7708,6.0757,6.332,6.6673,6.9382,7.1148,7.1958,7.2379,7.2379,7.2379,7.2193,7.1656,7.1076,7.0167,6.8896,6.7519,6.5592,6.3062,6.0704,0.0,0.0,0.0,0.0,0.0,0.0,0.0,0.0,0.0,0.0,0.0,0.0,0.0,0.0,0.0,0.0,0.0,0.0,0.0,0.0,0.0,0.0,0.0,0.0,0.0,0.0,0.0,0.0,5.2767,5.3862,0.0,0.0,5.5205,5.5562,5.6621,5.8089,5.9559,6.1043,6.1285,6.229,6.438,6.4725,6.5923,6.8221,6.9247,7.0487,7.2074,7.2207,7.266,7.3364,7.2485,7.21,7.1903,7.0692,7.0272,7.0288,6.7936,6.604,6.4601,6.4355,6.3725,6.2785,6.2261,6.2643,6.3377,6.324,6.3554,6.4078,6.4113,6.2997,6.164,6.1258,6.0287,5.9632,6.0553,6.096,6.1513,6.293,6.4064,6.4924,6.5241,6.5895,6.6289,6.5858,6.6233,6.6242,6.5159,6.3902,6.2582,6.1366,6.1607,6.1808,6.1093,6.2464,6.4283,6.6322,6.8101,6.9717,7.1278,7.2055,7.2508,7.2508,7.2508,7.1796,7.0041,7.0662,7.0118,6.7651,6.7687,6.642,6.3541,6.1284,5.8181,0.0,0.0,0.0,0.0,0.0,0.0,0.0,0.0,0.0,0.0,0.0,0.0,0.0,0.0,0.0,0.0,0.0,0.0,0.0,0.0,0.0,0.0,0.0,0.0,0.0,0.0,5.334,5.515,5.6492,5.7611,5.8639,5.8979,5.9526,6.0458,6.1905,6.3205,6.4182,6.4252,6.4987,6.6599,6.6026,6.705,7.0096,7.0203,7.1445,7.3964,7.4057,7.4435,7.5027,7.4264,7.3896,7.3905,7.245,7.2065,7.2325,7.0534,6.8989,6.769,6.611,6.5128,6.4463,6.3131,6.2883,6.3302,6.4041,6.5198,6.6321,6.618,6.5338,6.4358,6.4251,6.3759,6.3338,6.3634,6.3933,6.4449,6.56,6.6144,6.6617,6.729,6.7601,6.7443,6.6531,6.701,6.7488,6.6758,6.5496,6.4573,6.4561,6.4652,6.4794,6.5013,6.5864,6.7005,6.8363,6.9501,7.0675,7.1772,7.2323,7.2615,7.2615,7.2055,7.0873,6.8988,6.9743,6.8968,6.6056,6.6902,6.6031,6.2842,6.0688,5.782,5.4274,0.0,0.0,0.0,0.0,0.0,0.0,0.0,0.0,0.0,0.0,0.0,0.0,0.0,0.0,0.0,0.0,0.0,0.0,0.0,0.0,0.0,0.0,0.0,4.9639,5.2294,5.5098,5.7512,5.9643,6.1173,6.1991,6.279,6.3503,6.4124,6.5444,6.6244,6.6285,6.7516,6.8116,6.7654,6.6809,6.7654,7.0478,7.0412,7.1908,7.4929,7.5676,7.6228,7.6579,7.6543,7.6463,7.6257,7.5449,7.4677,7.3975,7.3132,7.2395,7.1307,6.6707,6.4882,6.4601,6.2451,6.1114,6.0733,6.3251,6.5576,6.7446,6.7621,6.7446,6.7094,6.7095,6.681,6.6408,6.6179,6.5994,6.6194,6.7601,6.8014,6.8428,6.9946,6.9969,6.9036,6.6885,6.7398,6.7753,6.6425,6.5929,6.6036,6.689,6.6201,6.575,6.6576,6.7753,0.0,6.9339,7.0875,7.2118,7.2835,7.2932,7.2932,7.2965,7.1245,6.9801,6.8988,6.8312,6.6892,6.4542,6.5578,6.4609,6.1274,5.9158,5.6694,5.3994,0.0,0.0,0.0,0.0,0.0,0.0,0.0,0.0,0.0,0.0,0.0,0.0,0.0,0.0,0.0,0.0,0.0,0.0,0.0,0.0,0.0,0.0,5.2845,5.2743,5.5845,5.8566,5.9799,6.1604,6.2719,6.2844,6.4081,6.4903,6.4983,6.6882,6.8254,6.867,6.9173,6.9177,6.8433,6.9389,7.0131,7.0514,7.2121,7.3975,7.5971,7.4897,7.5281,7.7015,7.5607,7.5556,7.6463,7.5494,7.4958,7.4677,7.3343,7.3027,7.3062,7.0078,6.8919,6.8708,6.7024,6.6181,6.6216,6.7693,6.8965,6.9882,7.0026,6.9637,6.9035,6.8819,6.7165,6.5409,6.5503,6.4913,6.4427,6.5777,6.6844,6.7919,6.8769,6.9589,6.9808,6.8486,6.8451,6.852,6.8022,6.7462,6.7486,6.9039,6.9199,6.9244,6.964,0.0,0.0,7.1108,7.0967,7.1253,7.2485,7.2827,7.3128,7.3616,7.2762,7.1707,0.0,7.0558,6.9388,6.6956,6.7838,6.671,6.2938,6.054,5.8069,0.0,0.0,0.0,0.0,0.0,0.0,0.0,0.0,0.0,0.0,0.0,0.0,0.0,0.0,0.0,0.0,0.0,0.0,0.0,0.0,0.0,0.0,5.3325,5.5902,5.6736,5.8779,6.0629,6.1757,6.3289,6.4393,6.4785,6.5887,6.6817,6.7425,6.8962,7.0309,7.1282,7.1402,7.0806,6.9353,6.9955,7.0344,7.0514,7.2121,7.4224,7.683,7.6185,7.664,7.82,7.7079,7.6957,0.0,7.672,7.6402,7.6217,7.4906,7.4694,0.0,0.0,0.0,0.0,0.0,6.7446,6.8468,6.907,7.0309,7.1549,7.1621,7.141,7.1091,7.0839,6.9423,6.794,6.7963,6.7365,6.6872,6.7945,6.8767,6.948,7.0164,7.0626,7.0485,6.922,6.9172,6.9227,6.872,0.0,0.0,7.0948,7.0726,7.0507,7.0822,7.1193,7.1521,0.0,7.176,7.2014,7.3046,7.3282,7.3649,7.458,7.3519,0.0,0.0,0.0,6.9459,6.7024,6.6577,0.0,0.0,0.0,0.0,0.0,0.0,0.0,0.0,5.1785,5.1117,0.0,0.0,0.0,0.0,0.0,0.0,0.0,0.0,0.0,0.0,0.0,0.0,0.0,0.0,0.0,0.0,5.5937,5.8681,6.0807,6.1138,6.1768,6.3315,6.4785,6.6031,6.691,6.7819,6.8994,7.0371,7.1231,7.2298,7.3744,0.0,0.0,0.0,0.0,6.999,7.0764,7.1552,7.3831,7.7508,7.8115,7.8859,7.9586,7.9408,7.9329,7.9196,7.8523,7.8169,7.8027,7.7161,7.6649,7.6155,7.1734,6.9902,6.9446,6.6742,6.7271,0.0,0.0,0.0,0.0,7.269,7.287,7.3048,7.2798,7.2365,7.1893,7.1598,7.1154,7.088,7.1568,7.1722,7.1908,7.2741,7.2216,7.1256,6.9748,6.9873,7.0031,6.9145,6.9851,7.1042,7.2437,7.1457,7.0613,7.1213,7.2348,0.0,7.2162,7.2756,7.3378,7.3812,0.0,0.0,7.5308,7.3909,7.2461,7.1155,7.0247,6.8719,6.6351,6.4256,6.3132,6.3036,6.2876,6.2428,6.144,6.179,6.1851,6.1624,5.6402,5.547,0.0,0.0,0.0,0.0,0.0,0.0,0.0,0.0,0.0,0.0,0.0,0.0,0.0,0.0,0.0,5.5544,5.8438,6.0986,6.2638,6.3458,6.3993,6.4152,6.5675,6.6767,6.6968,6.8863,7.019,7.0478,7.2335,7.3789,7.4629,7.5392,0.0,7.3081,7.4294,7.4082,7.237,7.444,7.6152,7.7473,0.0,0.0,7.9786,7.8348,7.8377,7.9507,7.917,7.8665,7.8063,7.7921,7.7338,7.6438,7.4651,7.3238,7.2149,7.2184,7.25,7.2935,7.2378,7.3098,7.4102,7.3612,7.4045,7.4545,7.3758,7.2691,0.0,7.0376,6.9246,6.8505,6.8884,6.9858,7.0965,7.2081,7.2533,7.261,7.2084,7.1553,7.1256,7.1283,7.1159,7.1388,7.2193,7.2496,7.2767,7.3452,7.3274,7.3176,7.3332,7.2625,7.2346,7.2744,7.3542,7.43,7.5125,7.5037,7.4972,7.505,7.3004,7.118,6.9523,6.9071,6.8553,6.7939,6.7222,6.6277,6.534,6.3821,6.3431,6.3836,6.089,6.0098,0.0,0.0,0.0,0.0,0.0,0.0,0.0,0.0,0.0,0.0,0.0,4.9944,0.0,0.0,5.4955,5.7759,5.9545,6.1307,6.3663,6.5046,6.5653,6.5141,6.6553,6.7689,6.8082,6.9943,7.1087,7.1085,7.287,7.4506,7.5605,7.6107,7.5826,7.4508,7.5294,7.5046,7.344,7.5403,7.6973,7.8079,7.8151,7.8757,7.9899,7.9394,7.9387,7.9779,7.9977,7.9728,7.8982,7.8744,7.8125,7.7338,7.7062,7.6031,7.473,7.5152,7.5293,7.5222,7.4992,7.5289,7.5691,7.5378,7.5822,7.6295,7.5719,7.5004,7.4074,7.3032,7.2427,7.2035,7.1734,7.2458,7.3352,7.3996,7.3843,7.3594,7.3426,7.2636,7.1916,7.2084,7.1832,7.1816,7.2395,7.304,7.3519,7.3609,7.3931,7.404,7.3869,7.3094,7.2744,7.3176,7.389,7.4713,7.5788,7.6145,7.6112,7.5788,7.4235,7.2591,7.0986,7.0921,7.0565,6.9853,6.922,6.8274,6.6876,6.6115,6.556,6.5037,6.4208,6.3602,0.0,0.0,0.0,0.0,0.0,0.0,0.0,0.0,4.9075,4.9836,5.1669,5.3512,5.4737,5.5134,5.6415,5.9844,6.0629,6.1807,6.4724,6.6217,6.6825,6.6303,6.7475,6.8582,6.9198,7.0909,7.2014,7.2121,7.3546,7.5042,7.6545,7.6787,7.6645,7.6152,7.5974,7.5581,7.4939,7.6188,7.7473,7.8686,7.9507,7.9899,7.9935,8.072,8.0756,8.0185,8.097,8.0934,8.0328,7.9755,7.917,7.8673,7.8776,7.8211,7.7196,7.7117,7.7117,7.7082,7.694,7.7064,7.7185,7.7043,7.7311,7.7687,7.7544,7.7388,7.7043,7.6222,7.6093,7.6022,7.5449,7.5533,7.5907,7.6139,7.5366,7.4475,7.4391,7.3514,7.2673,7.2501,7.2331,7.2311,7.2853,7.3458,7.3855,7.34,7.4291,7.4771,7.4206,7.3698,7.3547,7.3747,7.4183,7.5071,7.6496,7.6909,7.6679,7.5742,7.4906,7.3705,7.2087,7.1925,7.1569,7.1019,7.0551,6.9495,6.8132,6.8371,6.7673,6.628,6.6849,6.627,4.2109,4.2996,0.0,4.4407,4.638,4.8514,0.0,0.0,5.3251,5.4059,5.5779,5.7173,5.7223,5.8916,6.0724,6.1986,6.3285,6.476,6.6638,6.6968,6.7195,6.7766,6.8648,6.9154,6.9308,7.1371,7.2976,7.3724,7.5223,7.6509,7.733,7.8079,7.8757,7.9364,7.8686,7.8258,7.8186,7.8329,7.8508,7.8686,7.9507,7.9899,7.9935,8.072,8.1041,8.1006,8.1755,8.204,8.1898,8.0946,8.043,8.0323,7.9281,7.9044,7.9258,7.8983,7.8867,7.8796,7.8204,7.8036,7.8129,7.7376,7.782,7.8436,7.7723,7.8008,7.8248,7.7079,7.6363,7.5889,7.6092,7.5695,7.5509,7.6664,7.6336,7.5694,7.5273,7.4733,7.3969,7.3144,7.2922,7.308,7.3551,7.3993,7.4173,7.439,7.4724,7.487,7.4506,7.407,7.3591,7.303,7.3681,7.4766,7.6463,7.6932,7.6997,7.6496,7.6038,7.5396,7.4257,7.3642,7.3318,7.3221,7.1958,7.1003,7.063,7.001,6.9478,6.8754,6.885,6.7906,4.3727,0.0,0.0,0.0,4.8323,5.0126,5.2644,5.4246,5.5571,5.6744,5.83,5.942,5.9346,5.991,6.1068,0.0,6.3607,6.4599,6.6853,6.7783,6.8153,6.8093,6.8958,6.9597,6.9939,7.1374,7.2726,7.3901,7.5508,7.6759,7.7473,7.8253,7.9073,7.9864,7.9114,7.89,7.94,7.8936,7.8936,7.94,7.9757,7.9899,7.9935,8.1184,8.2005,8.2433,8.2255,8.2183,8.2183,8.1622,8.1479,8.1524,8.0881,8.0572,8.0384,7.9489,7.9231,7.9196,7.9037,7.893,7.8859,7.8619,7.8995,7.9328,7.9007,7.9073,7.8989,7.8051,7.7673,7.7505,7.7238,7.7146,7.7275,7.7859,7.7272,7.644,7.5616,7.4872,7.4128,7.3564,7.3579,7.3995,7.4999,7.5097,7.5219,7.5637,7.5411,7.5033,7.4573,7.4239,7.406,7.4212,7.4571,7.5429,7.6866,7.7226,7.7258,7.6997,7.6854,7.6307,7.5261,7.4969,7.4419,7.3609,7.2994,7.2143,7.1016,7.0931,7.0332,6.9104,6.9301,6.8843,4.5782,0.0,0.0,4.9421,5.0731,5.2325,5.5182,5.6624,5.7717,5.8885,6.0286,6.1298,6.1298,6.1379,0.0,6.4396,6.4302,6.4848,6.7397,6.8213,6.8434,6.823,6.8786,6.9591,7.0512,7.1374,7.2687,7.4506,7.5936,7.708,7.7794,7.8609,7.9322,7.9899,7.9328,7.9293,7.9899,7.9328,7.9435,8.0221,8.0221,8.0363,8.0577,8.1933,8.2968,8.3682,8.3111,8.2861,8.2861,8.2486,8.2379,8.2504,8.2049,8.1738,8.1248,8.0323,7.9666,7.9391,7.9586,7.9586,7.9391,7.9586,7.9743,7.9899,7.9899,8.0,7.9843,7.8946,7.8886,7.8846,7.8236,7.8178,7.8328,7.8539,7.8069,7.7272,7.6301,7.5492,7.4906,7.4495,7.4545,7.4996,7.6019,7.6051,7.6025,7.6358,7.5994,7.5422,7.4771,7.4339,7.4229,7.4719,7.5177,7.5798,7.6736,7.727,7.7499,7.7311,7.7311,7.6971,7.6038,7.5811,7.5131,7.3868,7.3674,7.2854,7.1413,7.1713,7.11,6.9785,7.0076,6.9825,0.0,0.0,5.1607,5.283,5.4494,5.6128,5.7279,5.875,6.0085,6.0768,6.2114,6.3092,6.3147,6.4245,6.5393,6.6163,6.61,6.671,6.8908,6.8076,6.7561,6.8314,6.8275,6.8904,0.0,7.1437,7.3112,7.6114,7.7045,7.783,7.8615,7.9435,7.9899,7.9899,7.9899,7.9899,7.9899,7.9899,8.0292,8.1041,8.1041,8.1434,8.2148,8.2968,8.3789,8.4574,8.4538,8.4538,8.4467,8.3682,8.3361,8.3289,8.2262,8.2023,8.2183,8.1906,8.1026,7.9899,7.9899,7.9899,7.9899,7.9899,7.9899,7.9899,7.9899,8.0435,8.082,7.9878,7.9427,7.9266,7.8952,7.8142,7.7661,7.8399,7.8574,7.8328,7.7521,7.718,7.6803,7.6069,7.5964,7.6043,7.6383,7.6573,7.6521,7.6139,7.6275,7.6122,7.5164,7.4272,7.3797,7.3862,7.4588,7.5298,7.5938,7.7007,7.761,7.761,7.761,7.7278,7.6751,7.6103,7.5358,7.4581,7.3901,7.3221,7.2476,7.2508,7.2154,7.1548,7.158,7.125,0.0,0.0,5.3158,5.4294,5.6021,5.7898,5.9496,6.0391,6.1149,6.1798,6.2222,6.2513,6.2422,6.3615,6.486,6.5574,6.6787,6.8076,6.9322,6.9471,6.9609,7.0058,7.031,0.0,0.0,0.0,0.0,7.5679,7.6518,7.7303,7.8203,7.9415,8.0054,7.9899,8.0054,8.0381,8.0918,8.0918,8.1061,8.1311,8.1156,8.1755,8.3004,8.3254,8.3825,8.461,8.461,8.461,8.4574,8.4324,8.4217,8.4182,8.3814,8.3387,8.3004,8.2923,8.2246,8.1434,8.1434,8.1355,8.1275,8.1355,8.1434,8.1434,8.1627,8.1727,8.1791,8.162,8.131,8.0952,8.0789,8.0412,8.0082,7.9669,8.0069,8.0046,7.8048,7.7967,7.8025,7.7087,7.6947,7.711,7.7712,7.7682,7.7232,7.6427,7.5899,7.5359,7.5067,7.5006,7.5098,7.5147,7.5858,7.6506,7.6965,7.7424,7.7499,7.7311,7.7278,7.7199,7.6783,7.6556,7.607,7.5358,7.5131,7.4419,7.3221,7.2972,7.2388,7.1644,7.1424,7.1092,0.0,5.3281,5.4682,5.5684,5.703,5.8483,6.0102,6.0923,6.1551,6.2251,6.2599,6.2728,6.2675,6.3838,6.512,6.603,6.7209,6.8462,6.9649,6.9768,7.0082,7.1009,7.121,0.0,0.0,0.0,0.0,7.5846,7.6475,7.72,7.8277,7.964,8.0426,8.0524,8.0713,8.1148,8.1973,8.1973,8.204,8.2213,8.2342,8.2942,8.3825,8.3825,8.411,8.461,8.461,8.461,8.461,8.461,8.461,8.461,8.461,8.4289,8.3825,8.3825,8.3504,8.2968,8.2397,8.2219,8.2139,8.2219,8.2299,8.2457,8.2571,8.2707,8.285,8.2679,8.2513,8.2333,8.1804,8.165,8.1461,8.08,8.1131,8.1072,7.9221,7.9352,7.9482,7.8423,7.8377,7.8565,7.889,7.878,7.8376,7.7709,7.687,7.6028,7.5231,7.5539,7.5871,7.5823,7.6644,7.7297,7.751,7.7697,7.7719,7.7532,7.7422,7.7199,7.7008,7.6896,7.6459,7.5714,7.5714,7.5002,7.3577,7.3327,7.2755,7.1753,7.1534,7.1203,5.549,5.6007,5.6312,5.7135,5.7632,5.8178,5.9401,6.0513,6.1485,6.236,6.3231,6.3847,0.0,0.0,6.6235,6.7523,6.7461,6.8012,6.9951,6.9349,6.9269,0.0,0.0,0.0,0.0,0.0,0.0,7.6658,0.0,7.7481,7.8777,7.993,8.0868,8.1659,8.1659,8.2166,8.2994,8.2994,8.3235,8.3753,8.4505,8.4783,8.461,8.461,8.461,8.461,8.461,8.461,8.461,8.461,8.461,8.461,8.461,8.461,8.461,8.461,8.461,8.4396,8.2861,8.2521,8.2636,8.2406,8.2643,8.2989,8.2793,8.3409,8.3918,8.3008,8.3057,8.3289,8.2298,8.1875,8.1792,8.1638,8.1757,8.1544,8.0937,8.1236,8.126,8.0012,8.0101,8.0235,7.9782,7.9845,7.9921,7.9796,7.9187,7.8013,7.5725,7.5903,7.6107,7.5805,7.6864,7.7484,7.7484,7.7899,7.8079,7.8112,7.7894,7.7565,7.7265,7.7041,7.6491,7.5779,7.5779,7.5067,7.3642,7.3642,7.3145,7.2079,7.1753,7.1534,5.648,5.7211,5.7706,5.78,5.813,5.8944,6.068,6.1606,6.2522,6.4051,6.4632,6.4595,0.0,0.0,0.0,6.6438,6.7788,0.0,7.1112,7.1158,0.0,0.0,0.0,7.4095,7.4805,7.5067,0.0,0.0,7.6408,7.673,7.7011,7.9251,8.0868,8.1659,8.1845,8.2569,8.3975,8.4011,8.4372,8.5015,8.4342,8.4326,8.4819,8.4692,8.461,8.461,8.461,8.461,8.461,8.461,8.461,8.461,8.461,8.461,8.461,8.461,8.461,8.4538,8.4146,8.4003,8.4085,8.421,8.4291,8.445,8.4685,8.4829,8.4895,8.4799,8.4672,8.438,8.4039,8.3839,8.3614,8.288,8.3247,8.3447,8.2139,8.246,8.2628,8.1747,8.1052,8.0481,8.0069,8.04,8.0368,7.958,7.9821,7.948,7.7502,7.7747,7.7816,7.744,7.8032,7.8425,7.8246,7.8304,7.8527,7.887,7.865,7.8429,7.8317,7.7755,7.735,7.6828,7.6636,7.5811,7.4322,7.4322,7.3598,7.2079,7.197,7.1753,5.7777,5.8166,5.8273,5.8058,5.7989,5.8303,5.9537,6.0811,6.2,6.3017,6.3789,0.0,0.0,0.0,0.0,0.0,0.0,0.0,7.0901,7.1549,7.2298,0.0,7.4388,0.0,7.5587,7.5567,7.5581,0.0,0.0,7.7164,7.6946,7.9612,8.1521,8.2313,8.2935,8.3805,8.507,8.507,8.5174,8.5495,8.4793,8.4809,8.5401,8.5274,8.5192,8.5145,0.0,8.4931,8.461,8.461,8.461,8.461,8.461,8.461,8.461,8.461,8.461,8.461,8.461,8.461,8.461,8.4738,8.498,8.5182,8.5339,8.5453,8.5531,8.5495,8.5261,8.498,8.4738,8.4692,8.442,8.3875,8.4207,8.4253,8.3004,8.3361,8.3682,8.2861,8.2201,8.1673,8.1461,8.1761,8.1822,8.1165,8.1147,8.082,7.9547,7.9223,7.8758,7.8147,7.8712,7.8936,7.8511,7.8809,7.9065,7.9386,7.9352,7.9406,7.9406,7.8844,7.8177,7.7688,7.735,7.6524,7.5099,7.5099,7.4245,7.2746,7.2638,7.226,5.9264,5.9218,5.8556,5.827,5.7694,5.7326,5.7504,5.9185,6.0864,6.1079,0.0,0.0,6.3847,0.0,6.5069,6.6605,0.0,6.8868,7.0443,7.1406,7.251,7.4284,7.4604,7.5069,7.6068,7.5495,7.5291,7.6015,7.7411,7.8087,7.7807,8.0438,8.2391,8.3405,8.435,8.5185,8.5873,8.5909,8.5797,8.5572,8.5495,8.5621,8.602,8.6046,8.6036,8.5787,0.0,0.0,8.461,8.461,8.4538,8.4467,8.4574,8.461,8.461,8.461,8.461,8.461,8.461,8.461,8.461,8.461,8.498,8.5417,8.5297,8.5531,8.5797,8.5608,8.5339,8.5218,8.498,8.4738,8.461,8.461,8.461,8.4431,8.3718,8.4039,8.4182,8.3254,8.302,8.2963,8.2963,8.3267,8.3489,8.3208,8.2635,8.199,8.1421,8.0292,7.9293,7.8453,7.8986,7.9213,7.875,7.9272,7.9703,7.9902,8.0278,8.0419,8.053,7.9968,7.9235,7.842,7.8048,7.7107,7.5714,7.5714,7.5034,7.3706,7.3457,7.2851,6.0786,6.0945,6.0164,5.9223,5.8507,5.7942,5.7397,5.902,0.0,0.0,0.0,6.4846,6.4656,6.5296,0.0,6.771,0.0,0.0,0.0,0.0,7.3153,0.0,0.0,0.0,0.0,0.0,0.0,0.0,0.0,0.0,7.8062,8.0364,8.2569,8.435,8.5257,8.5764,8.5909,8.5909,8.5909,8.5797,8.5608,8.5411,8.5355,8.5876,8.6036,8.5787,0.0,0.0,8.461,8.461,8.4217,8.3682,8.436,8.461,8.461,8.461,8.461,8.461,8.461,8.461,8.461,8.4819,8.49,8.506,8.5339,8.5495,8.5572,8.5495,8.5495,8.5339,8.498,8.49,8.4819,8.461,8.461,8.4574,8.4431,8.3804,8.302,8.1755,8.1845,8.211,8.211,8.2702,8.3076,8.289,8.2726,8.2361,8.1421,8.077,8.0206,7.96,7.9425,7.9623,8.012,7.9754,8.0243,8.1657,8.1414,8.1256,8.1513,8.0917,7.9953,7.8612,7.8387,7.7365,7.5714,7.5714,7.5261,7.4419,7.4419,7.3702,6.1058,6.1211,6.0626,6.0052,5.9037,5.8249,5.8462,0.0,0.0,0.0,0.0,6.3816,6.4217,0.0,0.0,0.0,0.0,0.0,0.0,0.0,0.0,0.0,0.0,0.0,0.0,0.0,0.0,0.0,0.0,0.0,7.8564,8.1086,8.3329,8.5257,8.5692,8.5909,8.5909,8.5909,8.5909,8.5909,8.5797,8.5825,8.6024,8.6305,8.6495,8.6561,0.0,0.0,8.5181,8.4788,8.4396,8.4075,8.4467,8.461,8.461,8.461,8.461,8.461,8.461,8.461,8.461,8.4692,8.4819,8.498,8.5261,8.5417,8.5495,8.5685,8.5608,8.5417,8.5261,8.506,8.49,8.4738,8.4692,8.4503,8.4075,8.3601,8.2878,8.1738,8.1809,8.2165,8.243,8.2856,8.3187,8.3331,8.3085,8.2544,8.1802,8.1166,8.051,7.9904,7.9596,7.9418,7.9647,8.0168,8.0792,8.1818,8.2366,8.2688,8.2799,8.2241,8.1209,7.9727,7.928,7.8336,7.6678,7.6567,7.6099,7.5384,7.5274,7.4665,6.1283,6.1439,6.1061,6.0645,5.9628,5.8744,5.9029,5.8908,0.0,0.0,0.0,6.2493,6.3507,0.0,0.0,0.0,0.0,0.0,0.0,0.0,0.0,0.0,0.0,0.0,0.0,0.0,0.0,0.0,0.0,0.0,0.0,8.1956,8.406,8.5733,8.5876,8.5948,8.5948,8.5873,8.5909,8.5909,8.5909,8.6123,8.6469,8.683,8.6989,8.7013,0.0,0.0,0.0,8.486,8.4503,8.436,8.4538,8.461,8.461,8.461,8.461,8.461,8.461,8.461,8.461,8.461,8.4692,8.49,8.506,8.5297,8.5417,8.5721,8.5608,8.5495,8.5417,8.5182,8.498,8.4819,8.4773,8.4406,8.3361,8.3147,8.2781,8.1657,8.1702,8.2058,8.2678,8.2998,8.3271,8.3798,8.3262,8.2726,8.2269,8.1455,8.0709,8.0006,7.9699,7.9455,7.9451,8.0582,8.1417,8.1833,8.3038,8.3775,8.3665,8.322,8.2399,8.0962,8.0372,7.9425,7.7839,7.7618,7.7148,7.6352,7.6164,7.5552,6.1928,6.264,6.2568,6.099,6.0468,5.983,5.7777,0.0,0.0,0.0,6.0702,6.2386,6.313,0.0,0.0,0.0,0.0,0.0,0.0,0.0,0.0,0.0,0.0,0.0,0.0,0.0,0.0,0.0,0.0,0.0,0.0,8.2903,8.4101,8.5227,8.581,8.61,8.61,8.5948,8.5909,8.5909,8.5909,8.5833,8.5675,8.7119,8.7205,8.6225,0.0,0.0,0.0,8.4646,8.4182,8.3575,8.4324,8.461,8.461,8.461,8.461,8.461,8.461,8.461,8.461,8.461,8.461,8.4692,8.49,8.498,8.498,8.5218,8.5339,8.5417,8.5297,8.5218,8.506,8.4692,8.4738,8.4389,8.2727,8.2165,8.1657,8.0321,8.0368,8.0835,8.1815,8.2607,8.3187,8.3576,8.3385,8.3031,8.2488,8.1646,8.0906,8.061,8.0107,8.0173,8.102,8.1413,8.1866,8.2569,8.3339,8.3665,8.3332,8.3332,8.271,8.1724,8.1388,8.0438,7.8592,7.8592,7.801,7.7102,7.7102,7.6409,6.1862,6.2046,6.1619,6.1353,6.0609,6.0022,6.0262,0.0,0.0,6.0218,6.1127,6.18,6.2237,6.2763,0.0,0.0,0.0,0.0,0.0,0.0,0.0,0.0,0.0,0.0,0.0,0.0,0.0,0.0,0.0,0.0,0.0,8.3082,8.4316,8.5189,8.5919,8.6247,8.61,8.6062,8.6024,8.5909,8.5909,8.605,8.6408,8.7058,8.7472,8.7644,0.0,0.0,0.0,8.461,8.3656,8.2306,8.3477,8.3575,8.3218,8.3682,8.386,8.3932,8.4431,8.461,8.461,8.461,8.461,8.461,8.4819,8.49,8.498,8.5139,8.5339,8.5495,8.5417,8.5339,8.5297,8.4773,8.4738,8.4497,8.3227,8.2852,8.245,8.1346,8.1221,8.1602,8.2465,8.2773,8.3068,8.3918,8.3559,8.312,8.2726,8.1896,8.1262,8.0906,8.0209,7.9902,8.0411,8.0912,8.1548,8.2181,8.3134,8.3739,8.3851,8.3884,8.333,8.2376,8.158,8.0631,7.9276,7.8596,7.8124,7.7752,7.7499,7.7037,6.2361,6.2576,6.232,6.3137,6.2178,6.1544,0.0,0.0,5.9692,6.1458,6.1566,6.1444,6.1615,6.2197,6.3213,0.0,0.0,0.0,0.0,0.0,0.0,0.0,0.0,0.0,0.0,0.0,0.0,0.0,0.0,0.0,0.0,0.0,8.4487,8.4966,8.6025,8.6392,8.6247,8.6247,8.6136,8.5948,8.6098,8.6389,8.6822,8.7369,8.7652,0.0,0.0,0.0,0.0,8.4487,8.3379,8.1609,8.287,8.312,8.2691,8.3263,8.362,8.3906,8.4477,8.4692,8.461,8.461,8.461,8.461,8.4738,8.4819,8.49,8.506,8.5261,8.5495,8.5417,8.5417,8.5339,8.4819,8.4819,8.4604,8.3656,8.3397,8.3147,8.2201,8.1896,8.2063,8.2844,8.282,8.2934,8.3918,8.3559,8.312,8.2816,8.2176,8.1551,8.12,8.051,8.0006,7.9904,8.0544,8.1218,8.1653,8.2675,8.3418,8.384,8.3766,8.3423,8.2703,8.1809,8.075,7.9637,7.889,7.8277,7.7971,7.7719,7.7291,6.4008,6.5043,6.5975,6.676,6.5922,6.5079,0.0,6.3609,6.1449,6.2153,6.196,6.1537,6.1328,6.1559,6.2326,6.395,0.0,0.0,0.0,0.0,0.0,0.0,0.0,0.0,0.0,0.0,0.0,0.0,0.0,0.0,0.0,0.0,8.4602,8.4609,8.5943,8.6715,8.6679,8.6501,8.632,8.61,8.6465,8.6573,8.6465,8.8289,0.0,0.0,0.0,0.0,0.0,8.3932,8.3423,8.1727,8.295,8.3558,8.3682,8.3682,8.4219,8.49,8.49,8.4738,8.461,8.461,8.461,8.461,8.461,8.4738,8.49,8.49,8.5182,8.5417,8.5297,8.5339,8.5417,8.498,8.49,8.4604,8.3656,8.3397,8.3147,8.2362,8.1896,8.1815,8.2594,8.2567,8.2678,8.3489,8.3385,8.312,8.2816,8.2176,8.1646,8.1393,8.0906,8.051,8.0209,8.0851,8.1189,8.0946,8.1828,8.2675,8.31,8.2811,8.2703,8.2703,8.2123,8.1061,7.9637,7.9604,7.8881,7.761,7.761,7.6919,6.2893,6.3519,6.376,6.5207,6.4409,6.3502,6.4411,6.2797,6.1104,6.0876,6.0626,6.0246,5.9616,6.026,6.1328,6.3005,0.0,0.0,0.0,0.0,0.0,0.0,0.0,0.0,0.0,0.0,0.0,0.0,0.0,0.0,0.0,0.0,8.4485,8.4578,8.6119,8.6856,8.6679,8.6676,8.6498,8.632,8.6536,8.69,8.7268,8.7997,0.0,0.0,0.0,0.0,0.0,8.4289,8.3092,8.0366,8.2564,8.312,8.2727,8.3423,8.3781,8.3987,8.464,8.4738,8.461,8.461,8.4692,8.4819,8.4819,8.4819,8.49,8.506,8.5218,8.5297,8.5218,8.5297,8.5297,8.5139,8.498,8.4828,8.4497,8.4299,8.4146,8.3896,8.3614,8.3519,8.3934,8.3719,8.3621,8.4242,8.3854,8.342,8.312,8.2579,8.2024,8.149,8.1102,8.0808,8.051,8.0513,8.0682,8.0879,8.1218,8.169,8.2326,8.204,8.1933,8.1933,8.1109,8.0318,7.9637,7.9107,7.8635,7.8188,7.7829,7.7369,6.2132,6.3458,6.4194,6.593,6.5478,6.4711,6.5118,6.3669,6.1807,6.0733,6.0152,5.9666,5.8881,5.9609,6.0747,6.2098,6.348,0.0,0.0,0.0,0.0,0.0,0.0,0.0,0.0,0.0,0.0,0.0,0.0,0.0,0.0,0.0,8.4602,8.5023,8.6302,8.6925,8.6856,8.6815,8.6779,8.6639,8.6889,8.7219,8.7589,0.0,0.0,0.0,0.0,0.0,0.0,8.4444,8.3282,8.051,8.2636,8.3192,8.2958,8.3617,8.3896,8.4139,8.4801,8.4819,8.461,8.461,8.4773,8.49,8.506,8.506,8.506,8.5139,8.5218,8.5218,8.5139,8.5139,8.5218,8.5218,8.506,8.49,8.49,8.4738,8.461,8.461,8.4445,8.4361,8.4445,8.4158,8.4074,8.4445,8.4025,8.3646,8.3472,8.2941,8.2396,8.1836,8.1393,8.1005,8.0808,8.041,8.031,8.0681,8.0578,8.0811,8.1552,8.1163,8.1056,8.1056,8.0301,7.972,7.9206,7.8527,7.8079,7.7971,7.7532,7.7311,0.0,6.4234,6.6413,6.8166,6.8136,6.7704,6.7374,6.5514,0.0,6.1331,6.038,5.9666,5.8809,5.9424,6.0418,6.1451,6.3098,0.0,0.0,0.0,0.0,0.0,0.0,0.0,0.0,0.0,0.0,0.0,0.0,0.0,0.0,0.0,0.0,8.5793,8.6559,8.6995,8.6995,8.6995,8.6953,8.6966,8.7298,8.7439,8.7423,0.0,0.0,0.0,0.0,0.0,0.0,8.456,8.378,8.1834,8.3021,8.3745,8.4176,8.4176,8.4607,8.5218,8.5218,8.49,8.461,8.461,8.4738,8.506,8.5417,8.5339,8.5218,8.5218,8.5218,8.5139,8.498,8.506,8.5218,8.5218,8.506,8.49,8.49,8.4738,8.461,8.461,8.4445,8.4278,8.4361,8.4074,8.3989,8.4278,8.4109,8.3904,8.3904,8.3262,8.2726,8.2488,8.1836,8.1297,8.1005,8.051,8.0209,8.0209,7.9904,8.0104,8.0778,8.0254,7.9968,7.9968,7.9646,7.9206,7.8511,7.7829,7.7499,7.7199,7.6896,7.6783,5.8213,0.0,6.4135,6.6452,6.6125,6.5352,0.0,6.4255,0.0,0.0,0.0,0.0,0.0,0.0,0.0,0.0,0.0,0.0,0.0,0.0,0.0,0.0,0.0,0.0,0.0,0.0,0.0,0.0,0.0,0.0,0.0,0.0,0.0,8.5793,8.6559,8.6995,8.6995,8.6995,8.6801,8.6332,8.7003,8.7003,8.6451,0.0,0.0,0.0,0.0,0.0,8.3943,8.4536,8.4058,8.3079,8.3924,8.4568,8.4967,8.4967,8.4996,8.506,8.5339,8.506,8.4692,8.498,8.5218,8.5417,8.5721,8.5608,8.5417,8.5417,8.5339,8.5218,8.5139,8.506,8.506,8.5339,8.5297,8.5139,8.5139,8.498,8.4819,8.4819,8.4692,8.461,8.4738,8.4574,8.4445,8.4527,8.4361,8.4109,8.3904,8.3262,8.2726,8.2488,8.1646,8.1102,8.1005,8.0709,8.041,8.0209,7.9801,7.9663,8.0037,7.9308,7.899,7.9202,7.8668,7.8353,7.8188,7.7829,7.7499,7.7199,7.7088,7.6976,5.6461,5.9366,6.2507,6.4219,6.4433,6.4108,0.0,0.0,0.0,0.0,0.0,0.0,0.0,0.0,0.0,0.0,0.0,0.0,0.0,0.0,0.0,0.0,0.0,0.0,0.0,0.0,0.0,0.0,0.0,0.0,0.0,0.0,0.0,0.0,8.6742,8.6995,8.6995,8.6995,8.6912,8.6767,8.7184,8.7221,8.6906,0.0,0.0,0.0,0.0,0.0,8.5258,8.4864,8.4494,8.4227,8.4737,8.506,8.5339,8.5339,8.5261,8.5182,8.5417,8.5434,8.532,8.5247,8.5765,8.6391,8.6014,8.6014,8.6118,8.5603,8.5417,8.5297,8.5139,8.5139,8.5182,8.5339,8.5297,8.5218,8.5218,8.498,8.4819,8.49,8.4773,8.4692,8.49,8.4738,8.461,8.461,8.4527,8.4361,8.4242,8.3697,8.3173,8.2851,8.2118,8.1455,8.1005,8.0599,8.0236,8.0175,7.9699,7.9492,7.9596,7.8863,7.8511,7.8511,7.8296,7.7971,7.7642,7.7389,7.6893,7.6489,7.6265,7.5958,5.5517,5.836,6.1113,6.1901,6.2664,6.3069,0.0,0.0,0.0,0.0,0.0,0.0,0.0,0.0,0.0,0.0,0.0,0.0,0.0,0.0,0.0,0.0,0.0,0.0,0.0,0.0,0.0,0.0,0.0,0.0,0.0,0.0,0.0,0.0,8.6995,8.6995,8.6995,8.6995,8.7127,8.7341,8.7402,8.7502,8.7609,8.746,0.0,0.0,0.0,0.0,8.6356,8.5337,8.5037,8.5297,8.5218,8.5297,8.5495,8.5495,8.5417,8.5453,8.5562,8.5909,8.6136,8.5678,8.6513,8.7421,8.6372,8.6525,8.6774,8.5825,8.5495,8.5417,8.506,8.5261,8.5417,8.5297,8.5297,8.5297,8.5218,8.49,8.4773,8.49,8.4773,8.4692,8.49,8.4738,8.461,8.461,8.461,8.461,8.461,8.4242,8.3697,8.3297,8.2621,8.1851,8.0931,8.0253,7.9956,8.0106,7.9531,7.915,7.9179,7.8724,7.8263,7.7915,7.7806,7.7523,7.6874,7.6539,7.5991,7.5441,7.496,7.4638,5.462,5.6922,5.9273,6.0117,6.0131,6.0228,0.0,0.0,0.0,0.0,0.0,0.0,0.0,0.0,0.0,0.0,0.0,0.0,0.0,0.0,0.0,0.0,0.0,0.0,0.0,0.0,0.0,0.0,0.0,0.0,0.0,0.0,0.0,0.0,0.0,8.6995,8.6995,8.6995,8.6795,8.6444,8.6893,8.6959,8.6831,8.6973,8.7132,0.0,0.0,8.6017,8.6356,8.5337,8.5262,8.5721,8.5139,8.5182,8.5495,8.5297,8.5218,8.529,8.6053,8.6377,8.6672,8.7052,8.7457,8.7732,8.683,8.6769,8.6851,8.6014,8.5685,8.5495,8.5417,8.5417,8.5495,8.5495,8.5608,8.5721,8.5297,8.5139,8.506,8.49,8.4773,8.4692,8.506,8.4855,8.4692,8.4819,8.4692,8.4692,8.4819,8.4326,8.3783,8.3489,8.2097,8.0893,8.0398,7.9849,7.9556,7.9559,7.8825,7.8374,7.8263,7.8188,7.7783,7.6866,7.6507,7.6104,7.5408,7.5047,7.4651,7.3996,7.4221,7.3964,5.3949,5.5659,5.7555,5.8303,5.9366,0.0,0.0,0.0,0.0,0.0,0.0,0.0,0.0,0.0,0.0,0.0,0.0,0.0,0.0,0.0,0.0,0.0,0.0,0.0,0.0,0.0,0.0,0.0,0.0,0.0,0.0,0.0,0.0,0.0,0.0,0.0,8.7157,8.7027,8.6943,8.6989,8.7173,8.721,8.711,8.7284,8.7402,8.7268,0.0,8.6261,8.6642,8.5554,8.5409,8.5761,8.5375,8.5261,8.5339,8.5339,8.5453,8.5675,8.6355,8.6852,8.7205,8.7484,8.8284,8.8726,8.7148,8.7492,8.7974,8.6344,8.5797,8.5685,8.5495,8.5608,8.5685,8.5495,8.5531,8.5453,8.5218,8.506,8.49,8.49,8.4773,8.4773,8.5139,8.498,8.4819,8.49,8.4819,8.4819,8.49,8.4574,8.4158,8.3954,8.291,8.1812,8.0697,8.0097,7.9722,7.9466,7.9058,7.8674,7.8296,7.7899,7.7322,7.6594,7.606,7.5484,7.4832,7.4503,7.4089,7.3338,7.3148,7.2844,5.3262,5.4682,5.6319,0.0,0.0,0.0,0.0,0.0,0.0,0.0,0.0,0.0,0.0,0.0,0.0,0.0,0.0,0.0,0.0,0.0,0.0,0.0,0.0,0.0,0.0,0.0,0.0,0.0,0.0,0.0,0.0,0.0,0.0,0.0,0.0,0.0,8.7217,8.709,8.7224,8.7581,8.7517,8.7489,8.7628,8.773,8.76,8.7402,8.6709,8.6648,8.6995,8.624,8.5883,8.5912,8.5789,8.552,8.5218,8.5339,8.5716,8.6271,8.6878,8.7436,8.7915,8.8095,8.8994,8.9605,8.7753,8.8209,8.8951,8.6778,8.6163,8.609,8.5721,8.5685,8.5797,8.5572,8.5339,8.5218,8.5139,8.49,8.4773,8.4819,8.4738,8.4783,8.4888,8.4773,8.4693,8.4773,8.4693,8.4765,8.4944,8.4819,8.4574,8.4207,8.3515,8.2418,8.0788,8.0372,8.0019,7.9632,7.9388,7.9074,7.8403,7.7709,7.6926,7.6224,7.5504,7.4832,7.4095,7.3909,7.3508,7.2851,7.2301,7.1903,5.2286,5.4146,5.6262,0.0,0.0,0.0,0.0,0.0,0.0,0.0,0.0,0.0,0.0,0.0,0.0,0.0,0.0,0.0,0.0,0.0,0.0,0.0,0.0,0.0,0.0,0.0,0.0,0.0,0.0,0.0,0.0,0.0,0.0,0.0,0.0,0.0,8.6995,8.7181,8.7443,8.7794,8.7468,8.7571,8.8021,8.773,8.7563,8.773,8.7526,8.7328,8.7341,8.7798,8.7229,8.6098,8.648,8.5988,8.5218,8.5218,8.5922,8.7032,8.7865,8.8346,8.885,8.9569,8.9893,8.9821,8.8886,8.8995,8.906,8.7394,8.6923,8.6778,8.6054,8.5685,8.5495,8.5495,8.5339,8.5139,8.498,8.506,8.506,8.4692,8.49,8.4888,8.4212,8.4104,8.4104,8.4336,8.4181,8.4355,8.5111,8.5139,8.49,8.429,8.2892,8.1423,7.9991,8.0096,8.0151,8.0141,7.9355,7.8724,7.8188,7.7388,7.6482,7.518,7.4463,7.364,7.2638,7.2638,7.2531,7.2143,7.1817,7.1456,5.2075,5.3647,5.549,0.0,0.0,0.0,0.0,0.0,0.0,0.0,0.0,0.0,0.0,0.0,0.0,0.0,0.0,0.0,0.0,0.0,0.0,0.0,0.0,0.0,0.0,0.0,0.0,0.0,0.0,0.0,0.0,0.0,0.0,0.0,0.0,0.0,0.0,8.7163,8.7321,8.7773,8.7693,8.7767,8.7895,8.7895,8.7794,8.7665,8.8183,8.8339,8.825,8.875,8.8214,8.7122,8.6191,8.5758,8.5778,8.5894,8.66,8.7709,8.8583,8.9011,8.9086,8.996,9.0084,8.9857,8.9194,8.9104,8.8902,8.7233,8.6919,8.6851,8.609,8.5685,8.5495,8.5495,8.5339,8.5139,8.498,8.498,8.498,8.4819,8.49,8.5032,8.4943,8.4511,8.4263,8.4263,8.4263,8.4295,8.4583,8.4973,8.5139,8.4864,8.3412,8.2023,8.0796,8.0674,8.039,7.9763,7.9396,7.8841,7.7987,7.7047,7.6076,7.4931,7.3999,7.3298,7.2721,7.2615,7.2401,7.2079,7.1753,7.1424,5.195,5.3324,0.0,0.0,0.0,0.0,0.0,0.0,0.0,0.0,0.0,0.0,0.0,0.0,0.0,0.0,0.0,0.0,0.0,0.0,0.0,0.0,0.0,0.0,0.0,0.0,0.0,0.0,0.0,0.0,0.0,0.0,0.0,0.0,0.0,0.0,0.0,8.7237,8.7394,8.7655,8.7794,8.7895,8.7895,8.8021,8.7958,8.7767,8.8646,8.9016,8.8893,8.9435,8.8904,8.7741,8.5974,8.5765,8.6405,8.6325,8.7133,8.8346,8.9047,8.9408,8.9573,9.0114,9.0213,9.0058,8.9564,8.9465,8.914,8.7516,8.7161,8.7064,8.605,8.5608,8.5417,8.5417,8.5297,8.506,8.49,8.498,8.506,8.49,8.498,8.5032,8.4937,8.4588,8.4232,8.4015,8.3979,8.4055,8.3979,8.4295,8.4541,8.4385,8.3743,8.2849,8.1698,8.1513,8.0973,8.0053,7.9803,7.9157,7.7903,7.6731,7.5658,7.4851,7.3783,7.3214,7.2932,7.2615,7.2401,7.2187,7.1862,7.1534,5.195,5.3233,0.0,0.0,0.0,0.0,0.0,0.0,0.0,0.0,0.0,0.0,0.0,0.0,0.0,0.0,0.0,0.0,0.0,0.0,0.0,0.0,0.0,0.0,0.0,0.0,0.0,0.0,0.0,0.0,0.0,0.0,0.0,0.0,0.0,0.0,0.0,8.7591,8.7591,8.7321,8.7841,8.8084,8.8084,8.8084,8.8084,8.8158,8.8938,8.9182,8.909,8.9743,8.915,8.7704,8.6202,8.6155,8.6955,8.6325,8.7412,8.9104,8.9104,8.9645,9.0295,9.0295,9.0295,9.0295,9.0295,9.0295,8.9934,8.8346,8.7877,8.7516,8.5928,8.5339,8.5218,8.5218,8.506,8.49,8.49,8.5182,8.5339,8.498,8.5182,8.5087,8.394,8.3996,8.4051,8.3329,8.3335,8.3409,8.3221,8.3185,8.3034,8.2685,8.3601,8.379,8.2466,8.2451,8.2048,8.1325,8.0576,7.9533,7.8007,7.6266,7.5161,7.4818,7.3783,7.3214,7.2932,7.2615,7.2508,7.2508,7.183,7.1644,5.1122,0.0,0.0,0.0,0.0,0.0,0.0,0.0,0.0,0.0,0.0,0.0,0.0,0.0,0.0,0.0,0.0,0.0,0.0,0.0,0.0,0.0,0.0,0.0,0.0,0.0,0.0,0.0,0.0,0.0,0.0,0.0,0.0,0.0,0.0,0.0,0.0,0.0,8.7468,8.747,8.7618,8.773,8.7895,8.8021,8.8418,8.8976,8.9793,9.0462,9.0954,9.1017,8.9836,8.8026,8.7593,8.7558,8.7793,8.7751,8.8722,8.9934,9.0095,9.032,9.0537,9.0537,9.0457,9.0295,9.0457,9.0059,8.9248,8.8201,8.7558,8.6986,8.5861,8.5339,8.5218,8.5218,8.5139,8.506,8.4773,8.49,8.5024,8.49,8.498,8.5032,8.4816,8.396,8.3246,8.303,8.2566,8.2385,8.2962,8.3349,8.3438,8.32,8.4003,8.3958,8.2552,8.2752,8.2335,8.0889,8.0088,7.9195,7.818,7.7073,7.6,7.5161,7.3886,7.3318,7.3214,7.2688,7.2508,7.2508,7.183,7.1644,0.0,0.0,0.0,0.0,0.0,0.0,0.0,0.0,0.0,0.0,0.0,0.0,0.0,0.0,0.0,0.0,0.0,0.0,0.0,0.0,0.0,0.0,0.0,0.0,0.0,0.0,0.0,0.0,0.0,0.0,0.0,0.0,0.0,0.0,0.0,0.0,0.0,8.7563,8.76,8.746,8.7591,8.7702,8.7794,8.8021,8.853,8.9347,9.0063,9.0629,9.1074,9.0712,8.9485,8.7931,8.7862,8.7992,8.8178,8.814,8.8967,9.0067,9.0226,9.0407,9.0581,9.0581,9.0537,9.0457,9.0581,8.9878,8.8923,8.8129,8.7414,8.6697,8.5634,8.5453,8.5453,8.5218,8.5139,8.498,8.4738,8.49,8.498,8.49,8.49,8.49,8.498,8.4306,8.3445,8.2799,8.1834,8.1371,8.1798,8.2398,8.2707,8.2469,8.3468,8.3685,8.2602,8.3014,8.2591,8.0859,8.0405,7.976,7.8556,7.7445,7.6438,7.5502,7.439,7.3821,7.3525,7.29,7.2721,7.2615,7.197,7.1644,0.0,0.0,0.0,0.0,0.0,0.0,0.0,0.0,0.0,0.0,0.0,0.0,0.0,0.0,0.0,0.0,0.0,0.0,0.0,0.0,0.0,0.0,0.0,0.0,0.0,0.0,0.0,0.0,0.0,0.0,0.0,0.0,0.0,0.0,0.0,0.0,8.7539,8.7898,8.7847,0.0,8.7637,8.7776,8.7831,8.7958,8.853,8.9347,8.9934,9.0202,9.0128,8.9424,8.8609,8.7831,8.7505,8.7851,8.8341,8.7849,8.8506,8.9734,8.9734,9.0087,9.0581,9.0581,9.0581,9.0581,9.0581,8.9951,8.9031,8.8238,8.7444,8.6571,8.5621,8.5603,8.5721,8.5297,8.506,8.49,8.49,8.498,8.506,8.49,8.49,8.4819,8.461,8.463,8.4147,8.2535,8.1255,8.0358,8.0207,8.0923,8.1311,8.1113,8.2397,8.3091,8.2594,8.3061,8.2647,8.0997,8.1095,8.0526,7.9058,7.7715,7.664,7.5772,7.5161,7.4488,7.3797,7.3247,7.2932,7.2932,7.197,7.1644,0.0,0.0,0.0,0.0,0.0,0.0,0.0,0.0,0.0,0.0,0.0,0.0,0.0,0.0,0.0,0.0,0.0,0.0,0.0,0.0,0.0,0.0,0.0,0.0,0.0,0.0,0.0,0.0,0.0,0.0,0.0,0.0,0.0,0.0,0.0,8.6499,8.593,8.7093,8.7253,0.0,8.7227,8.7672,8.7804,8.7868,8.8377,8.9347,9.0063,9.0063,8.9543,8.9989,8.9321,8.8096,8.8626,8.8766,8.8649,8.8514,8.9126,8.9964,8.9964,9.0243,9.0581,9.0581,9.0581,9.0581,9.0581,9.0473,9.0103,8.9271,8.8511,8.7715,8.6805,8.6,8.5297,8.5218,8.5139,8.506,8.4773,8.4692,8.4692,8.4692,8.4692,8.4692,8.461,8.3539,8.2263,8.0727,8.0191,7.9977,7.9977,8.081,8.1311,8.1113,8.2056,8.2469,8.1898,8.1705,8.1226,8.0164,8.0524,8.0302,7.9356,7.8421,7.7476,7.6538,7.5426,7.4488,7.3797,7.3247,7.2932,7.2932,7.197,7.1644,0.0,0.0,0.0,0.0,0.0,0.0,0.0,0.0,0.0,0.0,0.0,0.0,0.0,0.0,0.0,0.0,0.0,0.0,0.0,0.0,0.0,0.0,0.0,0.0,0.0,0.0,0.0,0.0,0.0,0.0,0.0,0.0,0.0,0.0,8.5223,8.5929,8.5371,8.6202,8.6314,8.5879,8.6278,8.673,8.7267,8.8127,8.8774,8.9347,8.9756,8.9681,8.931,8.9246,8.8764,8.8121,8.834,8.8424,8.8424,8.8294,8.8956,8.9933,8.9715,9.0185,9.0819,9.0661,9.0581,9.0581,9.0581,9.0328,8.9929,8.9531,8.8475,8.7384,8.683,8.5952,8.5139,8.498,8.49,8.4855,8.461,8.461,8.461,8.461,8.461,8.4503,8.411,8.2718,8.1398,8.0613,8.0149,7.9899,7.9899,8.0334,8.062,8.0542,8.1298,8.1648,8.1165,8.1272,8.0887,7.981,8.0095,7.9786,7.875,7.8653,7.8286,7.751,7.6365,7.5327,7.4291,7.3515,7.3005,7.2932,7.197,7.1644,0.0,0.0,0.0,0.0,0.0,0.0,0.0,0.0,0.0,0.0,0.0,0.0,0.0,0.0,0.0,0.0,0.0,0.0,0.0,0.0,0.0,0.0,0.0,0.0,0.0,0.0,0.0,0.0,0.0,0.0,0.0,0.0,8.219,8.2462,8.4086,8.494,8.5002,8.5372,8.5409,8.5187,8.5353,8.5869,8.6713,8.8191,8.8976,8.9087,8.9087,8.9087,8.8987,8.8154,8.7895,8.8021,8.7628,8.7804,8.8207,8.7932,8.8701,8.9799,8.9415,9.0008,9.0947,9.0704,9.0581,9.0581,9.0581,9.0147,8.9603,8.9603,8.8288,8.6902,8.6665,8.5902,8.506,8.4773,8.461,8.461,8.461,8.461,8.4574,8.4431,8.4289,8.3932,8.3147,8.1933,8.1041,8.082,8.0328,7.9899,7.9822,7.9899,7.9899,7.9899,8.0506,8.0784,8.051,8.0952,8.0729,7.9557,7.9652,7.9165,7.7961,7.8599,7.8656,7.8082,7.7276,7.6199,7.4818,7.375,7.311,7.2827,7.1938,7.147,0.0,0.0,0.0,0.0,0.0,0.0,0.0,0.0,0.0,0.0,0.0,0.0,0.0,0.0,0.0,0.0,0.0,0.0,0.0,0.0,0.0,0.0,0.0,0.0,0.0,0.0,0.0,0.0,0.0,0.0,0.0,7.8869,8.0161,8.1623,8.2573,8.315,8.3232,8.4545,8.4879,8.4257,8.5061,8.5892,8.6759,8.7056,8.7539,8.827,8.827,8.817,8.7979,8.7868,8.7831,8.7794,8.7563,8.8072,8.8757,8.8053,8.8635,8.9698,8.9415,8.9679,9.0219,9.0522,9.0581,9.0581,9.0581,9.0509,9.0436,9.0436,8.9119,8.7732,8.7732,8.6333,8.49,8.49,8.4773,8.461,8.461,8.461,8.4396,8.3682,8.3004,8.229,8.1541,8.122,8.0784,7.9949,7.9815,7.9822,7.9665,7.9899,8.0054,7.9899,8.0161,8.012,7.9764,7.9595,7.9352,7.875,7.8938,7.8757,7.7961,7.8469,7.8273,7.7346,7.7042,7.6199,7.4818,7.375,7.3005,7.2508,7.1862,7.1183,0.0,0.0,0.0,0.0,0.0,0.0,0.0,0.0,0.0,0.0,0.0,0.0,0.0,0.0,0.0,0.0,0.0,0.0,0.0,0.0,0.0,0.0,0.0,0.0,0.0,0.0,0.0,0.0,0.0,0.0,7.6965,7.785,7.8906,8.0221,8.1071,0.0,8.2245,8.2964,8.3432,8.3611,8.4429,8.5321,8.6115,8.6573,8.7304,8.8084,8.7958,8.7958,8.7958,8.76,8.76,8.773,8.7468,8.7985,8.8811,8.7961,8.8864,9.0463,8.9598,9.0008,9.0808,9.0788,9.0661,9.0581,9.0581,9.0537,9.0457,9.0457,8.9059,8.7699,8.8131,8.6522,8.4881,8.531,8.5013,8.461,8.461,8.4527,8.4255,8.378,8.2796,8.1871,8.147,8.0652,7.9897,7.9462,7.9507,7.9507,7.9621,7.9743,7.9899,7.9899,7.9977,7.9977,7.9743,7.9391,7.915,7.8987,7.8721,7.8328,7.7491,7.7844,7.7556,7.6542,7.6341,7.5665,7.4609,7.3574,7.29,7.2508,7.183,7.1151,0.0,0.0,0.0,0.0,0.0,0.0,0.0,0.0,0.0,0.0,0.0,0.0,0.0,0.0,0.0,0.0,0.0,0.0,0.0,0.0,0.0,0.0,0.0,0.0,0.0,0.0,0.0,0.0,0.0,0.0,7.588,7.695,7.7968,7.8861,7.9718,8.064,8.1719,8.2134,8.2601,8.3254,8.3849,8.4555,8.5395,8.6152,8.6969,8.7787,8.7821,8.7895,8.8021,8.7534,8.7468,8.7665,8.7335,8.7998,8.8975,8.7837,8.9018,9.1011,8.9853,9.0191,9.1066,9.098,9.074,9.0501,9.0501,9.0457,9.0295,9.0213,8.8814,8.7479,8.8267,8.6561,8.4824,8.5609,8.5098,8.4527,8.4527,8.4219,8.391,8.367,8.2513,8.1484,8.1568,8.0293,7.9221,7.9433,7.9292,7.9231,7.9427,7.9427,7.9586,7.9743,7.9565,7.9458,7.9458,7.9108,7.8867,7.8867,7.8504,7.8015,7.7278,7.7217,7.6775,7.5739,7.5472,7.5032,7.4399,7.3469,7.2794,7.2401,7.1862,7.126,0.0,0.0,0.0,0.0,0.0,0.0,0.0,0.0,0.0,0.0,0.0,0.0,0.0,0.0,0.0,0.0,0.0,0.0,0.0,0.0,0.0,0.0,0.0,0.0,0.0,0.0,0.0,0.0,0.0,0.0,7.4049,7.5846,7.7197,7.7887,7.8638,7.9939,8.1673,8.2653,8.3217,8.3366,8.3292,8.3759,8.4674,8.5372,8.6091,8.6895,8.775,8.7958,8.7794,8.7563,8.7497,8.7497,8.7132,8.8194,8.975,8.7961,8.8951,9.1011,8.9853,8.9679,9.0185,9.072,9.0581,9.0295,9.0295,9.0295,9.0213,9.0084,8.8685,8.7479,8.8267,8.6561,8.4824,8.5609,8.5014,8.4278,8.4278,8.3709,8.3058,8.2771,8.1532,8.0718,8.1497,8.0293,7.9398,8.0011,7.9564,7.915,7.8987,7.915,7.9231,7.9231,7.8594,7.8169,7.8169,7.8009,7.7848,7.7848,7.814,7.8015,7.7278,7.6736,7.6028,7.5035,7.4473,7.4298,7.4399,7.3646,7.29,7.2079,7.1753,7.1009,0.0,0.0,0.0,0.0,0.0,0.0,0.0,0.0,0.0,0.0,0.0,0.0,0.0,0.0,0.0,0.0,0.0,0.0,0.0,0.0,0.0,0.0,0.0,0.0,0.0,0.0,0.0,0.0,0.0,0.0,7.3606,7.5213,7.653,7.733,7.8125,7.9368,8.1058,8.2007,8.275,8.3425,8.3318,8.3785,8.4599,8.5381,8.6139,8.687,8.775,8.8021,8.7794,8.7468,8.7402,8.7335,8.72,8.8194,8.9445,8.7894,8.9146,9.1395,8.9858,9.0045,9.0956,9.102,9.0819,9.0457,9.0376,9.0131,8.9881,8.9797,8.8398,8.7192,8.7843,8.6225,8.4433,8.4513,8.4287,8.3989,8.3854,8.3727,8.3479,8.3136,8.1902,8.0999,8.1113,7.988,7.8929,7.9128,7.8916,7.8823,7.887,7.8952,7.8987,7.8987,7.874,7.8352,7.7696,7.7579,7.7322,7.6911,7.6959,7.6845,7.643,7.5857,7.5451,7.4968,7.4439,7.3965,7.3678,7.324,7.2794,7.2401,7.1862,7.1151,0.0,0.0,0.0,0.0,0.0,0.0,0.0,0.0,0.0,0.0,0.0,0.0,0.0,0.0,0.0,0.0,0.0,0.0,0.0,0.0,0.0,0.0,0.0,0.0,0.0,0.0,0.0,0.0,0.0,0.0,7.3252,7.4874,7.6303,7.7476,7.8294,7.9335,8.0674,8.1525,8.249,8.3499,8.345,8.3751,8.4367,8.535,8.6027,8.6536,8.7638,8.8021,8.7895,8.7534,8.7335,8.7335,8.72,8.7978,8.89,8.7647,8.9077,9.136,8.9895,9.0301,9.1508,9.1358,9.0975,9.0457,9.0376,8.9785,8.9234,8.9149,8.7835,8.6631,8.7279,8.5969,8.4429,8.3889,8.3819,8.3733,8.3508,8.3646,8.3646,8.3297,8.2067,8.1168,8.1277,7.9803,7.8679,7.8841,7.8666,7.8525,7.8657,7.8657,7.8741,7.8823,7.8283,7.7673,7.6982,7.6619,7.6269,7.586,7.5989,7.5924,7.5637,7.507,7.4712,7.4567,7.3874,7.3371,7.3214,7.311,7.2664,7.2152,7.1477,7.0927,0.0,0.0,0.0,0.0,0.0,0.0,0.0,0.0,0.0,0.0,0.0,0.0,0.0,0.0,0.0,0.0,0.0,0.0,0.0,0.0,0.0,0.0,0.0,0.0,0.0,0.0,0.0,0.0,0.0,7.3145,7.2945,7.4735,7.653,7.8202,7.9001,7.9856,8.0656,8.1508,8.249,8.3573,8.3462,8.3527,8.3832,8.5185,8.5743,8.5818,8.7378,8.8047,8.801,8.7628,8.7497,8.7431,8.7132,8.7647,8.8372,8.7394,8.8745,9.0974,8.9853,9.0301,9.1472,9.1472,9.0975,9.0295,9.0295,8.9425,8.8446,8.8192,8.6965,8.5882,8.6425,8.5777,8.4809,8.3771,8.3595,8.3508,8.3208,8.342,8.3508,8.3208,8.198,8.1172,8.1909,8.0154,7.8771,7.925,7.8761,7.8272,7.8272,7.8272,7.8357,7.8574,7.7027,7.6034,7.5916,7.5053,7.4565,7.4694,7.5192,7.5273,7.4843,7.4103,7.3747,7.3763,7.2643,7.2281,7.2867,7.3149,7.2581,7.1407,7.0878,7.0231,4.5712,0.0,0.0,0.0,0.0,0.0,0.0,0.0,0.0,0.0,0.0,0.0,0.0,0.0,0.0,0.0,0.0,0.0,0.0,0.0,0.0,0.0,0.0,0.0,0.0,0.0,0.0,0.0,7.2242,7.2687,7.2257,7.3972,7.5696,7.7404,7.7627,7.8388,7.9818,8.0671,8.1556,8.2564,8.3135,8.341,8.357,8.5105,8.5436,8.4903,8.6499,8.6833,8.6375,8.7147,8.7431,8.7335,8.7064,8.7509,8.8166,8.7288,8.8239,8.9853,8.9491,9.0006,9.0887,9.14,9.1282,9.0897,9.0457,8.959,8.8613,8.8192,8.688,8.5344,8.4597,8.4053,8.3666,8.3367,8.3297,8.3297,8.3208,8.3208,8.3297,8.3208,8.2436,8.1629,8.1277,8.0259,7.9262,7.8742,7.8411,7.8186,7.8015,7.8015,7.8015,7.7841,7.7494,7.6591,7.5137,7.4913,7.429,7.305,7.3322,7.3498,7.3616,7.2994,7.2726,7.2738,7.2084,7.1486,7.1058,7.1574,7.1532,7.109,7.0363,6.982,0.0,0.0,0.0,0.0,0.0,0.0,0.0,0.0,0.0,0.0,0.0,0.0,0.0,0.0,0.0,0.0,0.0,0.0,0.0,0.0,0.0,0.0,0.0,0.0,0.0,0.0,0.0,0.0,7.2144,7.2705,7.2939,7.3972,7.5362,7.7033,7.7089,7.7849,7.9465,7.9985,8.0893,8.223,8.2687,8.3079,8.3545,8.4748,8.5014,8.4545,8.5794,8.6017,8.5547,8.6222,8.6619,8.6856,8.709,8.7358,8.7655,8.7178,8.7872,8.8974,8.8904,8.9488,9.026,9.0521,9.0666,9.0619,9.0268,8.9328,8.8193,8.7825,8.6212,8.4506,8.3787,8.342,8.3208,8.3208,8.3208,8.3208,8.3208,8.3208,8.3208,8.312,8.2435,8.1629,8.0771,8.0001,7.9146,7.8154,7.8015,7.7928,7.7754,7.7754,7.7754,7.7754,7.7389,7.6434,7.4841,7.4463,7.3774,7.2399,7.2296,7.2416,7.26,7.1977,7.158,7.1778,7.0799,6.9971,6.9362,7.0387,7.0539,6.9798,6.927,6.8901,0.0,0.0,0.0,0.0,0.0,0.0,0.0,4.4649,0.0,0.0,0.0,0.0,0.0,0.0,0.0,0.0,0.0,0.0,0.0,0.0,0.0,0.0,0.0,0.0,0.0,0.0,7.1557,7.1964,7.2321,7.3055,7.4181,7.4343,7.5193,7.6698,7.6866,7.7664,7.9205,7.9465,8.0413,8.2044,8.223,8.2713,8.3611,8.4265,8.454,8.4495,8.5186,8.5386,8.5127,8.5012,8.5429,8.6176,8.6819,8.6948,8.6885,8.6885,8.7468,8.8304,8.8239,8.8823,8.9481,8.9451,8.9606,8.9968,8.9893,8.8776,8.7412,8.6977,8.5309,8.3595,8.3595,8.342,8.3208,8.3208,8.3208,8.3208,8.3208,8.3208,8.3085,8.2781,8.2257,8.1504,8.0469,7.9668,7.8815,7.7821,7.7648,7.7613,7.7613,7.7613,7.7579,7.7807,7.7042,7.6019,7.4981,7.4066,7.3171,7.2193,7.1985,7.1898,7.1898,7.0973,7.0537,7.0596,6.9223,6.8201,6.7695,6.9356,6.9367,6.7928,6.7811,6.7811,0.0,0.0,0.0,0.0,0.0,0.0,0.0,4.4047,0.0,0.0,0.0,0.0,0.0,0.0,0.0,0.0,0.0,0.0,0.0,0.0,0.0,0.0,0.0,0.0,0.0,0.0,7.1368,7.1964,7.2553,7.3001,7.3258,7.3367,7.3865,7.4756,7.5365,7.6254,7.733,7.9279,8.0544,8.101,8.2384,8.3106,8.3292,8.4116,8.4057,8.3514,8.4309,8.4174,8.3423,8.4073,8.4645,8.5198,8.5153,8.5527,8.604,8.604,8.6554,8.7394,8.7986,8.8316,8.8607,8.9197,8.9456,8.9422,8.9129,8.8171,8.6758,8.5014,8.4066,8.3508,8.3297,8.3208,8.3208,8.3208,8.3208,8.3208,8.3208,8.3208,8.2944,8.1903,8.2237,8.2307,8.1235,8.0469,7.9649,7.8618,7.7994,7.7525,7.7313,7.7313,7.7313,7.7313,7.7175,7.6341,7.4556,7.4227,7.3276,7.1255,7.1367,7.1312,7.1098,7.0549,7.0021,6.9643,6.8032,6.7317,6.7213,6.8011,6.8075,6.7196,6.7381,6.7277,0.0,0.0,0.0,4.5702,0.0,0.0,0.0,0.0,0.0,0.0,0.0,0.0,0.0,0.0,0.0,0.0,0.0,0.0,0.0,0.0,0.0,0.0,0.0,0.0,0.0,0.0,7.0165,7.1308,7.2389,7.2797,7.2282,7.2869,7.3515,7.4164,7.5033,7.5865,7.6699,7.8518,7.9819,8.0599,8.1525,8.2416,8.3217,8.3611,8.3329,8.2601,8.2987,8.2839,8.22,8.2633,8.3107,8.3603,8.4448,8.4933,8.5196,8.5196,8.5642,8.6306,8.6709,8.7112,8.7515,8.7919,8.8393,8.8723,8.858,8.7665,8.6233,8.442,8.3646,8.342,8.3208,8.3208,8.3208,8.3208,8.3208,8.3103,8.2717,8.2629,8.2241,8.1046,8.1185,8.113,7.9878,7.9463,7.8944,7.7822,7.7465,7.7313,7.7009,7.7133,7.7223,7.7223,7.7223,7.6562,7.5159,7.4569,7.3583,7.1921,7.1391,7.1007,7.0916,7.0176,6.9382,6.8369,6.7285,6.6796,6.6796,6.7145,6.7039,6.6617,6.6901,6.6796,0.0,0.0,0.0,0.0,0.0,4.31,0.0,0.0,0.0,4.3541,0.0,0.0,0.0,0.0,0.0,0.0,0.0,0.0,0.0,0.0,0.0,0.0,0.0,0.0,0.0,0.0,6.8327,7.0119,7.1341,7.1746,7.1066,7.226,7.3202,7.385,7.4922,7.5735,7.638,7.7718,7.9074,8.03,8.0555,8.1503,8.2994,8.2957,8.2623,8.1986,8.2112,8.1889,8.154,8.16,8.1902,8.2333,8.3852,8.4375,8.4352,8.4285,8.473,8.5288,8.5288,8.58,8.6388,8.6459,8.7079,8.7879,8.7809,8.7008,8.5778,8.4384,8.3611,8.3208,8.3208,8.3208,8.3208,8.3208,8.3208,8.2998,8.2261,8.2103,8.1593,8.0279,7.9927,7.9484,7.8362,7.8282,7.8007,7.6987,7.7056,7.7133,7.6918,7.7099,7.7223,7.7133,7.7133,7.6823,7.5763,7.4774,7.3753,7.27,7.1502,7.0825,7.0733,6.9765,6.8634,6.7196,6.671,6.6333,6.6207,6.6101,6.6154,6.6192,6.6248,6.6154,0.0,0.0,0.0,0.0,4.6879,0.0,0.0,0.0,4.2534,4.2543,0.0,0.0,0.0,0.0,0.0,0.0,0.0,0.0,0.0,0.0,0.0,0.0,0.0,0.0,0.0,0.0,0.0,6.8196,6.8422,6.8726,6.9336,7.0971,7.2189,7.2834,7.4228,7.5132,7.5531,7.7805,7.9163,7.9614,8.0337,8.1169,8.2156,8.2161,8.2124,8.2023,8.256,8.2311,8.1545,8.2065,8.2288,8.2223,8.2406,8.2913,8.3464,8.3374,8.3751,8.4447,8.4447,8.4889,8.5406,8.5584,8.6203,8.6825,8.6466,8.5797,8.5139,8.4585,8.3869,8.3208,8.3208,8.3208,8.3208,8.3208,8.3208,8.2998,8.2261,8.191,8.1224,7.9582,7.8861,7.8672,7.8946,7.8626,7.827,7.7858,7.7456,7.7223,7.7133,7.7223,7.7133,7.6884,7.7009,7.6734,7.5493,7.4469,7.3447,7.2153,7.1102,7.0456,7.027,6.9285,6.8009,6.6593,6.598,6.5385,6.4753,6.4547,6.4968,6.6192,6.5533,6.5039,0.0,0.0,0.0,0.0,0.0,0.0,0.0,0.0,4.2475,0.0,0.0,0.0,0.0,0.0,0.0,0.0,0.0,0.0,0.0,0.0,0.0,0.0,0.0,0.0,0.0,0.0,0.0,0.0,0.0,6.5852,6.6853,6.9036,7.1135,7.2798,7.4477,7.5326,7.5383,7.7513,7.885,7.9409,7.9799,8.0431,8.1248,8.1207,8.1185,8.1259,8.1318,8.1422,8.1501,8.1627,8.1929,8.2186,8.2186,8.237,8.2692,8.2488,8.2837,8.3431,8.3358,8.3803,8.4463,8.5151,8.5879,8.6465,8.6026,8.5459,8.4872,8.442,8.3783,8.3208,8.3208,8.3208,8.3208,8.3208,8.3208,8.2892,8.1664,8.1348,8.0683,7.8955,7.8398,7.8059,7.7812,7.7549,7.7159,7.6752,7.6758,7.6771,7.6587,7.6679,7.6771,7.6645,7.6828,7.6781,7.6291,7.4923,7.3833,7.3129,7.1371,7.0176,6.9798,6.8896,6.7971,6.7277,6.6179,6.5416,6.5132,6.4381,6.4298,6.4789,6.4265,6.3792,5.728,0.0,0.0,0.0,0.0,0.0,0.0,0.0,0.0,0.0,0.0,0.0,0.0,0.0,0.0,0.0,0.0,0.0,0.0,0.0,0.0,0.0,0.0,0.0,0.0,0.0,0.0,0.0,0.0,0.0,6.3652,6.6653,6.9488,7.1965,7.4312,7.5495,7.5476,7.7293,7.8461,7.8998,7.9094,7.967,8.0711,8.0369,8.0363,8.0622,8.0316,8.054,8.1102,8.1102,8.1571,8.2186,8.2186,8.2186,8.2186,8.1937,8.2074,8.2421,8.2348,8.2825,8.3628,8.4682,8.5482,8.5992,8.5915,8.5381,8.4747,8.442,8.3783,8.3208,8.3208,8.3208,8.3208,8.3208,8.3068,8.2541,8.1207,8.0681,8.0033,7.8516,7.7911,7.7471,7.6828,7.6645,7.6368,7.5899,7.6182,7.6402,7.6216,7.6402,7.6427,7.6129,7.6245,7.6325,7.6028,7.4684,7.347,7.2902,7.1245,6.9988,6.9382,6.86,6.8004,6.7507,6.602,6.5195,6.5006,6.3972,6.3421,6.3111,6.312,6.2867,0.0,0.0,0.0,0.0,0.0,0.0,0.0,0.0,4.4148,0.0,0.0,0.0,0.0,0.0,0.0,0.0,0.0,0.0,0.0,0.0,0.0,0.0,0.0,0.0,0.0,0.0,0.0,0.0,0.0,0.0,5.9612,6.3648,6.6988,6.9568,7.3369,7.5476,7.5606,7.7199,7.8108,7.8313,7.8313,7.9168,8.0654,7.9856,7.9871,8.0517,8.0332,8.0136,8.0093,8.0707,8.1497,8.2186,8.2186,8.2186,8.2186,8.1776,8.1579,8.166,8.1517,8.1957,8.2901,8.4245,8.4863,8.5191,8.5882,8.5459,8.4828,8.4792,8.4003,8.3208,8.3208,8.3208,8.3208,8.3208,8.2647,8.1909,8.1102,8.0158,7.9094,7.8154,7.7544,7.7099,7.6587,7.6645,7.6645,7.6122,7.6309,7.6495,7.6495,7.6495,7.6129,7.5195,7.531,7.5003,7.4105,7.3051,7.1816,7.0403,7.0209,6.9988,6.9382,6.86,6.7777,6.6899,6.5288,6.4216,6.3552,6.2525,6.1979,6.1676,6.2156,6.2155,0.0,0.0,5.9096,5.7722,0.0,0.0,0.0,0.0,0.0,0.0,0.0,0.0,0.0,0.0,0.0,0.0,0.0,0.0,0.0,0.0,0.0,0.0,0.0,0.0,0.0,0.0,0.0,0.0,0.0,0.0,0.0,6.0361,6.4609,6.9434,7.1991,7.4084,7.5733,7.6847,7.7441,7.7496,7.8053,7.8573,7.9094,7.8684,7.8981,7.9797,7.9496,7.9658,8.0147,8.0259,8.0451,8.0597,8.0597,8.0597,8.067,8.133,8.161,8.1525,8.1307,8.1742,8.2503,8.2976,8.3446,8.3879,8.4245,8.3867,8.3287,8.3129,8.2951,8.2784,8.2348,8.2348,8.2471,8.226,8.1787,8.1015,8.0123,7.9772,7.9266,7.8154,7.7807,7.7456,7.6828,7.6702,7.6611,7.5899,7.5899,7.5994,7.5994,7.5994,7.5798,7.556,7.5714,7.5739,7.5374,7.4,7.2288,7.037,7.0176,6.9988,6.9703,6.8699,6.8072,6.7745,6.6058,6.51,6.4879,6.3846,6.3366,6.3264,6.2561,6.1908,6.3364,6.2691,0.0,0.0,5.751,0.0,5.3687,0.0,0.0,0.0,0.0,0.0,0.0,0.0,0.0,0.0,0.0,0.0,0.0,0.0,0.0,0.0,0.0,0.0,0.0,0.0,4.7573,4.7891,0.0,0.0,0.0,0.0,6.2613,6.774,7.1255,7.3781,7.5341,7.679,7.7199,7.6642,7.7756,7.8276,7.8276,7.8165,7.861,7.9409,7.8877,7.903,7.9694,7.9606,7.9673,7.9836,7.9836,7.9792,7.992,8.0809,8.1105,8.102,8.1092,8.1237,8.1562,8.2106,8.254,8.2863,8.3262,8.2922,8.2342,8.2139,8.217,8.2058,8.1542,8.1489,8.1577,8.1454,8.0894,8.0193,7.9702,7.9387,7.9037,7.817,7.7928,7.7632,7.7099,7.6884,7.6519,7.5805,7.5805,7.5805,7.5709,7.5709,7.5608,7.5337,7.5432,7.5323,7.4873,7.3738,7.238,7.0708,7.0456,7.027,7.0082,6.8896,6.8201,6.8201,6.6511,6.5574,6.5574,6.4641,6.4089,6.3985,6.3131,6.2229]},{"header":{"parameterUnit":"m.s-1","parameterCategory":1,"la1":30.6,"la2":29.2853,"lo1":-89.7004,"lo2":-87.6739,"dy":0.0162,"dx":0.0183,"nx":112,"ny":82,"refTime":"2025-04-11T00:00:00:Z","depth":0,"parameterNumber":3,"parameterNumberName":"V-component_of_WINDS"},"data":[0.0,0.0,0.0,0.0,0.0,0.0,0.0,0.0,0.0,0.0,0.0,0.0,0.0,0.0,0.0,0.0,0.0,0.0,0.0,0.0,0.0,0.0,0.0,0.0,0.0,0.0,0.0,0.0,0.0,0.0,0.0,0.0,0.0,0.0,0.0,0.0,0.0,0.0,0.0,0.0,0.0,0.0,0.0,0.0,0.0,0.0,0.0,0.0,0.0,0.0,0.0,0.0,0.0,0.0,0.0,0.0,0.0,0.0,0.0,0.0,0.0,0.0,0.0,0.0,0.0,0.0,0.0,0.0,0.0,0.0,0.0,0.0,0.0,0.0,0.0,0.0,0.0,0.0,0.0,0.0,0.0,0.0,0.0,0.0,0.0,0.0,0.0,0.0,0.0,0.0,0.0,-3.1457,-3.686,-4.041,-4.0738,-4.0998,-4.1433,-4.2281,0.0,0.0,0.0,0.0,0.0,0.0,0.0,0.0,0.0,0.0,0.0,0.0,0.0,0.0,0.0,0.0,0.0,0.0,0.0,0.0,0.0,0.0,0.0,0.0,0.0,0.0,0.0,0.0,0.0,0.0,0.0,0.0,0.0,0.0,0.0,0.0,0.0,0.0,0.0,0.0,0.0,0.0,0.0,0.0,0.0,0.0,0.0,0.0,0.0,0.0,0.0,0.0,0.0,0.0,0.0,0.0,0.0,0.0,0.0,0.0,0.0,0.0,0.0,0.0,0.0,0.0,0.0,0.0,0.0,0.0,0.0,0.0,0.0,0.0,0.0,0.0,0.0,0.0,0.0,0.0,0.0,0.0,0.0,0.0,0.0,0.0,0.0,0.0,0.0,0.0,0.0,0.0,0.0,0.0,0.0,0.0,0.0,0.0,0.0,0.0,0.0,0.0,0.0,0.0,-3.1379,-3.8089,-3.9726,-4.1022,-4.2658,-4.394,-4.3986,-4.2372,0.0,0.0,0.0,0.0,0.0,0.0,0.0,0.0,0.0,0.0,0.0,0.0,0.0,0.0,0.0,0.0,0.0,0.0,0.0,0.0,0.0,0.0,0.0,0.0,0.0,0.0,0.0,0.0,0.0,0.0,0.0,0.0,0.0,0.0,0.0,0.0,0.0,0.0,0.0,0.0,0.0,0.0,0.0,0.0,0.0,0.0,0.0,0.0,0.0,0.0,0.0,0.0,0.0,0.0,0.0,0.0,0.0,0.0,0.0,0.0,0.0,0.0,0.0,0.0,0.0,0.0,0.0,0.0,0.0,0.0,0.0,0.0,0.0,0.0,0.0,0.0,0.0,0.0,0.0,0.0,0.0,0.0,0.0,0.0,0.0,0.0,0.0,0.0,0.0,0.0,0.0,0.0,0.0,0.0,0.0,0.0,0.0,0.0,0.0,0.0,0.0,0.0,0.0,-3.2637,-3.6092,-4.0583,-4.1089,-4.168,-4.304,-4.3263,-4.2244,-3.957,-3.5409,0.0,0.0,0.0,0.0,0.0,0.0,0.0,0.0,0.0,0.0,0.0,0.0,0.0,0.0,0.0,0.0,0.0,0.0,0.0,0.0,0.0,0.0,0.0,0.0,0.0,0.0,0.0,0.0,0.0,0.0,0.0,0.0,0.0,0.0,0.0,0.0,0.0,0.0,0.0,0.0,0.0,0.0,0.0,0.0,0.0,0.0,0.0,0.0,0.0,0.0,0.0,0.0,0.0,0.0,0.0,0.0,0.0,0.0,0.0,0.0,0.0,0.0,0.0,0.0,0.0,0.0,0.0,0.0,0.0,0.0,0.0,0.0,0.0,0.0,0.0,0.0,0.0,0.0,0.0,0.0,0.0,0.0,0.0,0.0,0.0,0.0,0.0,0.0,0.0,0.0,0.0,0.0,0.0,0.0,0.0,0.0,0.0,0.0,0.0,0.0,0.0,0.0,-3.7087,-4.0163,-4.1916,-4.2301,-4.2667,-4.3214,-4.2012,-3.9497,-3.5338,-3.2617,0.0,0.0,0.0,0.0,0.0,0.0,0.0,0.0,0.0,0.0,0.0,0.0,0.0,0.0,0.0,0.0,0.0,0.0,0.0,0.0,0.0,0.0,0.0,0.0,0.0,0.0,0.0,0.0,0.0,0.0,0.0,0.0,0.0,0.0,0.0,0.0,0.0,0.0,0.0,0.0,0.0,0.0,0.0,0.0,0.0,0.0,0.0,0.0,0.0,0.0,0.0,0.0,0.0,0.0,0.0,0.0,0.0,0.0,0.0,0.0,0.0,0.0,0.0,0.0,0.0,0.0,0.0,0.0,0.0,0.0,0.0,0.0,0.0,0.0,0.0,0.0,0.0,0.0,0.0,0.0,0.0,0.0,0.0,0.0,0.0,0.0,0.0,0.0,0.0,0.0,0.0,0.0,0.0,0.0,0.0,0.0,0.0,0.0,0.0,0.0,0.0,0.0,-3.8367,-4.1877,-4.3031,-4.387,-4.413,-4.3255,-4.1107,-3.6855,-2.9813,-2.9495,0.0,0.0,0.0,0.0,0.0,0.0,0.0,0.0,0.0,0.0,0.0,0.0,0.0,0.0,0.0,0.0,0.0,0.0,0.0,0.0,0.0,0.0,0.0,0.0,0.0,0.0,0.0,0.0,0.0,0.0,0.0,0.0,0.0,0.0,0.0,0.0,0.0,0.0,0.0,0.0,0.0,0.0,0.0,0.0,0.0,0.0,0.0,0.0,0.0,0.0,0.0,0.0,0.0,0.0,0.0,0.0,0.0,0.0,0.0,0.0,0.0,0.0,0.0,0.0,0.0,0.0,0.0,0.0,0.0,0.0,0.0,0.0,0.0,0.0,0.0,0.0,0.0,0.0,0.0,0.0,0.0,0.0,0.0,0.0,0.0,0.0,0.0,0.0,0.0,0.0,0.0,0.0,0.0,0.0,0.0,0.0,0.0,0.0,0.0,0.0,0.0,0.0,-3.8005,-4.1219,0.0,-4.3536,-4.4079,-4.4145,-4.2769,-3.98,-3.4875,0.0,0.0,0.0,0.0,0.0,0.0,0.0,0.0,0.0,0.0,0.0,0.0,0.0,0.0,0.0,0.0,0.0,0.0,0.0,0.0,0.0,0.0,0.0,0.0,0.0,0.0,0.0,0.0,0.0,0.0,0.0,0.0,0.0,0.0,0.0,0.0,0.0,0.0,0.0,0.0,0.0,0.0,0.0,0.0,0.0,0.0,0.0,0.0,0.0,0.0,0.0,0.0,0.0,0.0,0.0,0.0,0.0,0.0,0.0,0.0,0.0,0.0,0.0,0.0,0.0,0.0,0.0,0.0,0.0,0.0,0.0,0.0,0.0,0.0,0.0,0.0,0.0,0.0,0.0,0.0,0.0,0.0,0.0,0.0,0.0,0.0,0.0,0.0,0.0,0.0,0.0,0.0,0.0,0.0,0.0,0.0,0.0,0.0,0.0,0.0,0.0,0.0,-3.3999,-3.7799,-4.078,0.0,-4.3337,-4.4332,-4.4738,-4.3675,-4.1306,-3.7681,0.0,0.0,0.0,0.0,0.0,0.0,0.0,0.0,0.0,0.0,0.0,0.0,0.0,0.0,0.0,0.0,0.0,0.0,0.0,0.0,0.0,0.0,0.0,0.0,0.0,0.0,0.0,0.0,0.0,0.0,0.0,0.0,0.0,0.0,0.0,0.0,0.0,0.0,0.0,0.0,0.0,0.0,0.0,0.0,0.0,0.0,0.0,0.0,0.0,0.0,0.0,0.0,0.0,0.0,0.0,0.0,0.0,0.0,0.0,0.0,0.0,0.0,0.0,0.0,0.0,0.0,0.0,0.0,0.0,0.0,0.0,0.0,0.0,0.0,0.0,0.0,0.0,0.0,0.0,0.0,0.0,0.0,0.0,0.0,0.0,0.0,0.0,0.0,0.0,0.0,0.0,0.0,0.0,0.0,0.0,0.0,0.0,0.0,0.0,0.0,0.0,0.0,-3.3493,-3.791,-4.1066,-4.1612,-4.3447,-4.4782,-4.5132,-4.3441,-4.0472,0.0,0.0,0.0,0.0,0.0,0.0,0.0,0.0,0.0,0.0,0.0,0.0,0.0,0.0,0.0,0.0,0.0,0.0,0.0,0.0,0.0,0.0,0.0,0.0,0.0,0.0,0.0,0.0,0.0,0.0,0.0,0.0,0.0,0.0,0.0,0.0,0.0,0.0,0.0,0.0,0.0,0.0,0.0,0.0,0.0,0.0,0.0,0.0,0.0,0.0,0.0,0.0,0.0,0.0,0.0,0.0,0.0,0.0,0.0,0.0,0.0,0.0,0.0,0.0,0.0,0.0,0.0,0.0,0.0,0.0,0.0,0.0,0.0,0.0,0.0,0.0,0.0,0.0,0.0,0.0,0.0,0.0,0.0,0.0,0.0,0.0,0.0,0.0,0.0,0.0,0.0,0.0,0.0,0.0,0.0,0.0,0.0,0.0,0.0,0.0,0.0,0.0,0.0,0.0,-3.8553,-4.1309,-4.2731,-4.3894,-4.4823,-4.5287,-4.4576,-4.27,-3.9715,0.0,0.0,0.0,0.0,0.0,0.0,0.0,0.0,0.0,0.0,0.0,0.0,0.0,0.0,0.0,0.0,0.0,0.0,0.0,0.0,0.0,0.0,0.0,0.0,0.0,0.0,0.0,0.0,0.0,0.0,0.0,0.0,0.0,0.0,0.0,0.0,0.0,0.0,0.0,0.0,0.0,0.0,0.0,0.0,0.0,0.0,0.0,0.0,0.0,0.0,0.0,0.0,0.0,0.0,0.0,0.0,0.0,0.0,0.0,0.0,0.0,0.0,0.0,0.0,0.0,0.0,0.0,0.0,0.0,0.0,0.0,0.0,0.0,0.0,0.0,0.0,0.0,0.0,0.0,0.0,0.0,0.0,0.0,0.0,0.0,0.0,0.0,0.0,0.0,0.0,0.0,0.0,0.0,0.0,0.0,0.0,0.0,0.0,0.0,0.0,0.0,0.0,-3.5358,-3.8741,-4.1483,-4.2797,-4.376,-4.4619,-4.5082,-4.457,-4.3365,-4.1308,0.0,0.0,0.0,0.0,0.0,0.0,0.0,0.0,0.0,0.0,0.0,0.0,0.0,0.0,0.0,0.0,0.0,0.0,0.0,0.0,0.0,0.0,0.0,0.0,0.0,0.0,0.0,0.0,0.0,0.0,0.0,0.0,0.0,0.0,0.0,0.0,0.0,0.0,0.0,0.0,0.0,0.0,0.0,0.0,0.0,0.0,0.0,0.0,0.0,0.0,0.0,0.0,0.0,0.0,0.0,0.0,0.0,0.0,0.0,0.0,0.0,0.0,0.0,0.0,0.0,0.0,0.0,0.0,0.0,0.0,0.0,0.0,0.0,0.0,0.0,0.0,0.0,0.0,0.0,0.0,0.0,0.0,0.0,0.0,0.0,0.0,0.0,0.0,0.0,0.0,0.0,0.0,0.0,0.0,0.0,0.0,0.0,0.0,0.0,0.0,0.0,0.0,-3.5002,-3.8649,-4.1499,-4.2559,-4.353,-4.4263,-4.4759,-4.4039,-4.3018,-4.1705,0.0,0.0,0.0,0.0,0.0,0.0,0.0,0.0,0.0,0.0,0.0,0.0,0.0,0.0,0.0,0.0,0.0,0.0,0.0,0.0,0.0,0.0,0.0,0.0,0.0,0.0,0.0,0.0,0.0,0.0,0.0,0.0,0.0,0.0,0.0,0.0,0.0,0.0,0.0,0.0,0.0,0.0,0.0,0.0,0.0,0.0,0.0,0.0,0.0,0.0,0.0,0.0,0.0,0.0,0.0,0.0,0.0,0.0,0.0,0.0,-2.12,0.0,0.0,0.0,0.0,0.0,0.0,0.0,0.0,0.0,0.0,0.0,0.0,0.0,0.0,0.0,0.0,0.0,0.0,0.0,0.0,0.0,0.0,0.0,0.0,0.0,0.0,0.0,0.0,0.0,0.0,0.0,0.0,0.0,0.0,0.0,0.0,0.0,0.0,0.0,0.0,0.0,-3.6048,-3.9352,-4.2108,-4.3508,-4.4511,-4.5053,-4.5211,-4.5105,-4.4521,-4.3499,0.0,0.0,0.0,0.0,0.0,0.0,0.0,0.0,0.0,0.0,0.0,0.0,0.0,0.0,0.0,0.0,0.0,0.0,0.0,0.0,0.0,0.0,0.0,0.0,0.0,0.0,0.0,0.0,0.0,0.0,0.0,0.0,0.0,0.0,0.0,0.0,0.0,0.0,0.0,0.0,0.0,0.0,0.0,0.0,0.0,0.0,0.0,0.0,0.0,0.0,0.0,0.0,0.0,0.0,0.0,0.0,0.0,0.0,0.0,0.0,0.0,-2.3622,0.0,0.0,0.0,0.0,0.0,0.0,0.0,0.0,0.0,0.0,0.0,0.0,0.0,0.0,0.0,0.0,0.0,0.0,0.0,0.0,0.0,0.0,0.0,0.0,0.0,0.0,0.0,0.0,0.0,0.0,0.0,0.0,0.0,0.0,0.0,0.0,0.0,0.0,0.0,0.0,-3.7005,-4.0312,-4.2769,-4.4155,-4.4733,-4.5057,-4.5362,-4.5256,-4.4888,-4.4277,-4.218,0.0,0.0,0.0,0.0,0.0,0.0,0.0,0.0,0.0,0.0,0.0,0.0,0.0,0.0,0.0,0.0,0.0,0.0,0.0,0.0,0.0,0.0,0.0,0.0,0.0,0.0,0.0,0.0,0.0,0.0,0.0,0.0,0.0,0.0,0.0,0.0,0.0,0.0,0.0,0.0,0.0,0.0,0.0,0.0,0.0,0.0,0.0,0.0,0.0,0.0,0.0,0.0,0.0,0.0,0.0,-3.1065,-3.1194,-3.1139,-3.0829,-2.8589,-2.6822,-2.5692,0.0,0.0,0.0,0.0,0.0,0.0,0.0,0.0,0.0,0.0,0.0,0.0,0.0,0.0,0.0,0.0,0.0,0.0,0.0,0.0,0.0,0.0,0.0,0.0,0.0,-3.0219,-3.0623,0.0,0.0,0.0,0.0,0.0,0.0,0.0,0.0,0.0,0.0,0.0,0.0,-3.7896,-4.1239,-4.3727,-4.4798,-4.5144,-4.5403,-4.5771,-4.5513,-4.5105,-4.4743,-4.3586,-4.1899,0.0,0.0,0.0,0.0,0.0,0.0,0.0,0.0,0.0,0.0,0.0,0.0,0.0,0.0,0.0,0.0,0.0,0.0,0.0,0.0,0.0,0.0,0.0,0.0,0.0,0.0,0.0,0.0,0.0,0.0,0.0,0.0,-1.7447,-1.8612,0.0,0.0,0.0,0.0,0.0,0.0,0.0,0.0,0.0,0.0,0.0,0.0,0.0,0.0,-2.5456,-2.8587,-3.046,-3.107,-3.1442,-3.185,-3.2294,-3.2726,-3.2528,-3.1897,-3.1846,0.0,-2.9076,-2.8501,0.0,0.0,0.0,0.0,0.0,0.0,0.0,0.0,0.0,0.0,0.0,0.0,0.0,0.0,0.0,0.0,0.0,0.0,0.0,0.0,0.0,0.0,-3.0179,-3.1367,-3.22,-3.27,0.0,-3.1775,-3.0781,-3.1954,0.0,0.0,0.0,0.0,0.0,0.0,0.0,0.0,-3.8573,-4.2349,-4.5124,-4.5806,-4.6528,-4.7225,-4.7291,-4.7138,-4.6572,-4.5425,-4.4737,-4.3386,-4.1113,-4.0034,0.0,0.0,0.0,0.0,0.0,0.0,0.0,0.0,0.0,0.0,0.0,0.0,0.0,0.0,0.0,0.0,0.0,0.0,0.0,0.0,0.0,0.0,0.0,0.0,0.0,0.0,0.0,0.0,0.0,-1.7766,-1.9054,-2.0316,-1.9713,-1.9688,0.0,0.0,0.0,0.0,0.0,0.0,0.0,0.0,0.0,-2.6002,-2.5577,-2.6388,-2.8702,-3.0292,-3.1583,-3.2579,-3.3322,-3.3712,-3.385,-3.4054,-3.3858,-3.3393,-3.3322,-3.2628,-3.1237,-3.0077,-2.8834,-2.7626,0.0,0.0,0.0,0.0,0.0,-2.5487,-2.9539,0.0,0.0,0.0,0.0,0.0,0.0,0.0,0.0,0.0,0.0,0.0,0.0,0.0,0.0,-3.2392,-3.3272,-3.41,-3.4473,-3.4425,-3.4371,0.0,-3.4325,-3.3711,-3.2748,0.0,0.0,0.0,0.0,0.0,-4.044,-4.3277,-4.5477,-4.6286,-4.7051,-4.7488,-4.7488,-4.7488,-4.7182,-4.616,-4.5661,-4.4793,-4.3284,-4.1856,-4.0105,0.0,0.0,0.0,0.0,0.0,0.0,0.0,0.0,0.0,0.0,0.0,0.0,0.0,0.0,0.0,0.0,0.0,0.0,0.0,0.0,0.0,0.0,0.0,0.0,0.0,0.0,0.0,0.0,-1.9155,0.0,-2.1819,-2.1518,-2.1687,0.0,0.0,0.0,0.0,0.0,0.0,-2.9099,-2.8144,-2.7486,-2.739,-2.8965,-3.0333,-3.1288,-3.1537,-3.2253,-3.3474,-3.4241,-3.4759,-3.4854,-3.5025,-3.483,-3.4425,-3.4309,-3.3757,-3.2746,-3.1305,-2.9958,-2.8682,-2.8464,-2.7659,-2.6941,-2.9295,-2.8611,-2.6936,-3.0242,-3.1751,-3.1947,-3.0902,0.0,-3.0599,-2.9811,0.0,0.0,0.0,0.0,-3.0149,-3.0709,0.0,-3.335,-3.3225,-3.404,-3.4888,-3.516,-3.6094,-3.6824,0.0,-3.675,-3.6431,-3.551,0.0,0.0,0.0,0.0,-3.9737,-4.2169,-4.4286,-4.6073,-4.6963,-4.7553,-4.7859,-4.7859,-4.7859,-4.7641,-4.6986,-4.6485,-4.581,-4.4706,-4.3404,-4.1825,-4.0162,0.0,0.0,0.0,0.0,0.0,0.0,0.0,0.0,0.0,0.0,0.0,0.0,0.0,0.0,0.0,0.0,0.0,0.0,0.0,0.0,0.0,0.0,0.0,0.0,0.0,0.0,0.0,0.0,0.0,-2.1994,-2.2667,0.0,0.0,0.0,0.0,-2.5388,-2.9183,-3.0717,-2.9119,-2.9538,-2.9578,-2.9076,-3.06,-3.1094,-3.0376,-3.1465,-3.2676,-3.3702,-3.372,-3.4229,-3.5072,-3.5366,-3.5158,-3.4487,-3.4776,-3.4342,-3.3117,-3.1953,-3.1028,-3.0275,-2.9881,-2.9751,-2.9648,-2.976,-3.0135,-3.0619,-3.0804,-3.1007,-3.0981,-3.1318,-3.1493,-3.1396,-3.1265,-3.1181,0.0,0.0,-3.2008,-3.1822,-3.3067,-3.376,-3.4352,-3.4762,-3.4907,-3.5364,-3.6341,-3.6624,-3.6794,0.0,-3.776,-3.7701,-3.6959,0.0,-3.8335,-3.7758,-4.0033,-4.2148,-4.3316,-4.561,-4.7462,-4.799,-4.8536,-4.882,-4.882,-4.882,-4.8466,-4.7653,-4.7044,-4.6223,-4.4955,-4.3848,-4.2799,-4.174,-4.0561,0.0,0.0,0.0,0.0,0.0,0.0,0.0,0.0,0.0,0.0,0.0,0.0,0.0,0.0,0.0,0.0,0.0,0.0,0.0,0.0,0.0,0.0,0.0,0.0,0.0,0.0,0.0,0.0,-2.2944,-2.356,0.0,0.0,-2.4579,-2.4738,-2.7463,-2.9598,-3.084,-3.0768,-3.0723,-3.0718,-3.0707,-3.0526,-3.0916,-3.1812,-3.2107,-3.2868,-3.3992,-3.4441,-3.4852,-3.519,-3.5746,-3.5556,-3.507,-3.5054,-3.4845,-3.4282,-3.3135,-3.221,-3.1508,-3.1388,-3.1253,-3.1303,-3.1042,-3.1062,-3.1254,-3.153,-3.1687,-3.1774,-3.2316,-3.2098,-3.1577,-3.2229,-3.2224,-3.2041,-3.3049,-3.3444,-3.3573,-3.3991,-3.4603,-3.5067,-3.5055,-3.5406,-3.5992,-3.6694,-3.6903,-3.7287,-3.7999,-3.8207,-3.835,-3.8532,-3.9248,-3.9947,-4.0821,-4.1934,-4.3359,-4.4946,-4.6151,-4.7247,-4.8077,-4.8602,-4.8907,-4.8907,-4.8907,-4.8427,-4.7466,-4.7662,-4.7073,-4.5631,-4.5227,-4.438,-4.3061,-4.1727,-4.0174,0.0,0.0,0.0,0.0,0.0,0.0,0.0,0.0,0.0,0.0,0.0,0.0,0.0,0.0,0.0,0.0,0.0,0.0,0.0,0.0,0.0,0.0,0.0,0.0,0.0,0.0,-2.3193,-2.4123,-2.4857,-2.5801,-2.7033,-2.6568,-2.6971,-2.8675,-3.0528,-3.1513,-3.1651,-3.1686,-3.1696,-3.1588,-3.0788,-3.1088,-3.213,-3.2178,-3.2937,-3.4098,-3.473,-3.5304,-3.5786,-3.6021,-3.6241,-3.6046,-3.5729,-3.5539,-3.5275,-3.4402,-3.3648,-3.3015,-3.2244,-3.1941,-3.1789,-3.1133,-3.084,-3.0874,-3.1408,-3.1799,-3.2168,-3.2457,-3.2221,-3.1913,-3.2561,-3.2838,-3.2972,-3.3835,-3.4353,-3.463,-3.488,-3.5355,-3.5795,-3.5779,-3.5944,-3.6238,-3.6689,-3.6953,-3.7217,-3.7962,-3.8196,-3.8608,-3.9757,-4.0203,-4.108,-4.2827,-4.3594,-4.456,-4.6111,-4.6659,-4.7223,-4.8183,-4.8553,-4.8749,-4.8749,-4.8602,-4.8256,-4.7414,-4.7487,-4.6959,-4.5611,-4.5552,-4.4748,-4.3392,-4.1905,-4.0486,-3.9072,0.0,0.0,0.0,0.0,0.0,0.0,0.0,0.0,0.0,0.0,0.0,0.0,0.0,0.0,0.0,0.0,0.0,0.0,0.0,0.0,0.0,0.0,0.0,-2.1712,-2.3146,-2.4531,-2.5156,-2.6711,-2.7878,-2.8251,-2.8285,-2.8606,-2.9223,-3.2096,-3.3208,-3.1794,-3.2748,-3.2672,-3.1548,-3.1509,-3.1548,-3.1379,-3.1718,-3.2581,-3.4147,-3.4487,-3.5344,-3.6526,-3.6509,-3.6676,-3.7193,-3.6799,-3.6422,-3.608,-3.5669,-3.5309,-3.4779,-3.2535,-3.1645,-3.1508,-3.0123,-2.9478,-2.9458,-3.0169,-3.1103,-3.199,-3.1712,-3.199,-3.2543,-3.2363,-3.2947,-3.3836,-3.4451,-3.4721,-3.5011,-3.5944,-3.6164,-3.6384,-3.7191,-3.6813,-3.6321,-3.6694,-3.6404,-3.6405,-3.72,-3.7681,-3.8511,-4.059,-4.0966,-4.1686,-4.3649,-4.4845,0.0,-4.655,-4.7134,-4.7734,-4.8208,-4.8273,-4.8273,-4.8294,-4.8056,-4.7749,-4.7414,-4.695,-4.6189,-4.4984,-4.4651,-4.3991,-4.2705,-4.1231,-4.0253,-3.959,0.0,0.0,0.0,0.0,0.0,0.0,0.0,0.0,0.0,0.0,0.0,0.0,0.0,0.0,0.0,0.0,0.0,0.0,0.0,0.0,0.0,0.0,-2.3252,-2.3483,-2.5156,-2.6536,-2.6937,-2.7589,-2.8253,-2.864,-2.8364,-2.8727,-2.9786,-3.1722,-3.3106,-3.3678,-3.3179,-3.2442,-3.1911,-3.2172,-3.196,-3.1395,-3.2299,-3.3129,-3.4023,-3.3935,-3.4506,-3.5504,-3.5658,-3.6038,-3.6676,-3.6617,-3.6559,-3.6422,-3.5772,-3.5618,-3.5635,-3.4179,-3.3614,-3.3511,-3.2509,-3.2278,-3.2117,-3.2107,-3.2526,-3.3145,-3.284,-3.2657,-3.2743,-3.3194,-3.2577,-3.2079,-3.3375,-3.2897,-3.2474,-3.3696,-3.4612,-3.5168,-3.599,-3.6612,-3.7118,-3.7185,-3.7166,-3.7203,-3.7705,-3.7587,-3.8182,-4.0262,-4.1374,-4.2432,-4.394,0.0,0.0,-4.7065,-4.7419,-4.7835,-4.8662,-4.8432,-4.8402,-4.8726,-4.8389,-4.8139,0.0,-4.7816,-4.7245,-4.6233,-4.6189,-4.5209,-4.3459,-4.2391,-4.142,0.0,0.0,0.0,0.0,0.0,0.0,0.0,0.0,0.0,0.0,0.0,0.0,0.0,0.0,0.0,0.0,0.0,0.0,0.0,0.0,0.0,0.0,-2.3325,-2.4743,-2.5558,-2.6632,-2.7471,-2.782,-2.851,-2.9007,-2.9183,-2.8819,-2.9226,-3.055,-3.1792,-3.2972,-3.4382,-3.3676,-3.283,-3.2156,-3.225,-3.2058,-3.1395,-3.2299,-3.3241,-3.4207,-3.4119,-3.4725,-3.5638,-3.5738,-3.609,0.0,-3.6593,-3.6442,-3.6558,-3.613,-3.6028,0.0,0.0,0.0,0.0,0.0,-3.2714,-3.2841,-3.276,-3.2972,-3.3364,-3.3207,-3.292,-3.2585,-3.3221,-3.2927,-3.2588,-3.37,-3.3587,-3.3524,-3.4433,-3.5228,-3.5977,-3.6525,-3.7158,-3.7675,-3.7388,-3.7558,-3.7783,-3.7896,0.0,0.0,-4.055,-4.1246,-4.2156,-4.404,-4.4919,-4.6004,0.0,-4.7497,-4.7891,-4.8808,-4.8735,-4.8747,-4.8897,-4.8661,0.0,0.0,0.0,-4.7071,-4.6065,-4.5543,0.0,0.0,0.0,0.0,0.0,0.0,0.0,0.0,-3.9736,-3.9579,0.0,0.0,0.0,0.0,0.0,0.0,0.0,0.0,0.0,0.0,0.0,0.0,0.0,0.0,0.0,0.0,-2.4759,-2.628,-2.7551,-2.7862,-2.7987,-2.8355,-2.9183,-2.9745,-2.979,-2.9665,-3.0,-3.1331,-3.2087,-3.3139,-3.4387,0.0,0.0,0.0,0.0,-3.2081,-3.1506,-3.2232,-3.3259,-3.4509,-3.4779,-3.5317,-3.6269,-3.6188,-3.6362,-3.6929,-3.6616,-3.6451,-3.6385,-3.6392,-3.656,-3.6324,-3.4793,-3.4094,-3.3871,-3.2552,-3.2267,0.0,0.0,0.0,0.0,-3.3127,-3.2825,-3.2523,-3.2984,-3.3553,-3.4099,-3.4535,-3.5089,-3.5726,-3.627,-3.6742,-3.7234,-3.7665,-3.7995,-3.7888,-3.7477,-3.7741,-3.8024,-3.7934,-3.8918,-3.9989,-4.0775,-4.0841,-4.1594,-4.3853,-4.4989,0.0,-4.7312,-4.7474,-4.788,-4.8855,0.0,0.0,-4.9139,-4.892,-4.8417,-4.7769,-4.716,-4.6352,-4.5389,-4.4369,-4.3796,-4.3729,-4.3822,-4.3713,-4.3623,-4.4074,-4.4526,-4.4773,-4.231,-4.1989,0.0,0.0,0.0,0.0,0.0,0.0,0.0,0.0,0.0,0.0,0.0,0.0,0.0,0.0,0.0,-2.4295,-2.5866,-2.7153,-2.8052,-2.8419,-2.8659,-2.9067,-2.9585,-2.9727,-2.9467,-3.03,-3.1067,-3.1379,-3.2585,-3.3822,-3.48,-3.4358,0.0,-3.3305,-3.3467,-3.3177,-3.2221,-3.3143,-3.3905,-3.4493,0.0,0.0,-3.5732,-3.5499,-3.5719,-3.6443,-3.6707,-3.6682,-3.6401,-3.6335,-3.6475,-3.6459,-3.6208,-3.572,-3.5189,-3.5207,-3.5361,-3.518,-3.4717,-3.4475,-3.4358,-3.3741,-3.3355,-3.3385,-3.342,-3.2936,0.0,-3.3379,-3.2844,-3.2309,-3.3597,-3.445,-3.5382,-3.6727,-3.7557,-3.8,-3.8328,-3.8246,-3.7888,-3.7504,-3.8235,-3.8962,-3.9606,-4.1226,-4.2863,-4.3699,-4.4902,-4.5948,-4.6943,-4.7389,-4.7885,-4.8836,-4.8908,-4.9178,-4.9489,-4.9196,-4.9154,-4.9674,-4.901,-4.8012,-4.7115,-4.6808,-4.6458,-4.6041,-4.5984,-4.5978,-4.5752,-4.5733,-4.5874,-4.638,-4.4851,-4.4673,0.0,0.0,0.0,0.0,0.0,0.0,0.0,0.0,0.0,0.0,0.0,-2.12,0.0,0.0,-2.4468,-2.5565,-2.6356,-2.7296,-2.8344,-2.879,-2.9059,-2.9344,-2.9631,-2.996,-3.0134,-3.1141,-3.1836,-3.1649,-3.2825,-3.3758,-3.4455,-3.4484,-3.4157,-3.3563,-3.372,-3.3413,-3.2698,-3.3572,-3.4271,-3.4763,-3.4795,-3.5065,-3.5573,-3.5556,-3.5761,-3.5938,-3.6448,-3.6334,-3.5994,-3.651,-3.6638,-3.6475,-3.6963,-3.6673,-3.6045,-3.6249,-3.6317,-3.6283,-3.5769,-3.5508,-3.5295,-3.4949,-3.4355,-3.3969,-3.4109,-3.3984,-3.3953,-3.4249,-3.4159,-3.4166,-3.4793,-3.5536,-3.6372,-3.7095,-3.7828,-3.8311,-3.8631,-3.8621,-3.8642,-3.8328,-3.8799,-3.94,-4.0129,-4.1534,-4.266,-4.3359,-4.4422,-4.5594,-4.6608,-4.7241,-4.792,-4.8894,-4.9372,-4.9686,-4.9689,-4.9213,-4.9192,-4.9689,-4.9135,-4.8504,-4.7881,-4.7837,-4.7597,-4.7116,-4.7352,-4.7143,-4.6827,-4.7159,-4.7196,-4.7252,-4.6864,-4.6635,0.0,0.0,0.0,0.0,0.0,0.0,0.0,0.0,-1.9828,-2.0135,-2.1534,-2.2991,-2.38,-2.4547,-2.5413,-2.6644,-2.6994,-2.7518,-2.8648,-2.9136,-2.9404,-2.952,-2.9866,-3.0356,-3.099,-3.1756,-3.2251,-3.2299,-3.313,-3.3804,-3.408,-3.459,-3.4526,-3.3905,-3.3826,-3.3651,-3.3365,-3.3921,-3.4493,-3.5033,-3.5399,-3.5573,-3.5589,-3.5939,-3.5955,-3.5701,-3.605,-3.6034,-3.5764,-3.6557,-3.6707,-3.6477,-3.7363,-3.7095,-3.6408,-3.6577,-3.6577,-3.656,-3.6493,-3.614,-3.5787,-3.5721,-3.5233,-3.4588,-3.4525,-3.5064,-3.5721,-3.5543,-3.6091,-3.6873,-3.6799,-3.7249,-3.7639,-3.7962,-3.8194,-3.8563,-3.8725,-3.8883,-3.9049,-3.8956,-3.9272,-3.9877,-4.0591,-4.135,-4.1998,-4.302,-4.4199,-4.5372,-4.6144,-4.6951,-4.7762,-4.8812,-4.9567,-4.9924,-4.9677,-4.9469,-4.9322,-4.9188,-4.9111,-4.9016,-4.8623,-4.8514,-4.8274,-4.7903,-4.8036,-4.7986,-4.7485,-4.8097,-4.8271,-4.7934,-4.8346,-4.8148,-1.7766,-1.8473,0.0,-1.885,-1.9093,-1.9233,0.0,0.0,-2.138,-2.1568,-2.3247,-2.4859,-2.5328,-2.6231,-2.6877,-2.7113,-2.7846,-2.8664,-2.9148,-2.9467,-2.9917,-3.0172,-3.0206,-3.0609,-3.1221,-3.1776,-3.2491,-3.321,-3.3688,-3.4064,-3.443,-3.4763,-3.5065,-3.5335,-3.5033,-3.4843,-3.4811,-3.4874,-3.4954,-3.5033,-3.5399,-3.5573,-3.5589,-3.5939,-3.6082,-3.6066,-3.64,-3.6527,-3.6463,-3.6676,-3.6866,-3.6817,-3.7391,-3.7069,-3.6329,-3.683,-3.6986,-3.6953,-3.6467,-3.6182,-3.5605,-3.5466,-3.5055,-3.4922,-3.4604,-3.4731,-3.5248,-3.5738,-3.5609,-3.5792,-3.6907,-3.6919,-3.7032,-3.8223,-3.8268,-3.8153,-3.8976,-3.849,-3.8096,-3.8076,-3.8163,-3.8449,-3.9314,-4.0384,-4.1752,-4.2949,-4.4236,-4.5209,-4.5657,-4.6509,-4.7335,-4.8337,-4.8769,-4.9252,-4.9656,-5.0439,-5.0481,-4.9677,-5.0091,-5.0141,-5.0087,-4.9672,-4.9454,-4.9388,-4.8536,-4.8344,-4.8543,-4.8342,-4.8423,-4.9042,-4.911,-4.8885,-1.9241,0.0,0.0,0.0,-2.0016,-2.0252,-2.0472,-2.1095,-2.189,-2.2639,-2.4,-2.5069,-2.5344,-2.6205,-2.6871,0.0,-2.7988,-2.893,-2.9242,-2.9649,-3.0166,-3.0495,-2.9984,-3.0081,-3.0956,-3.2152,-3.3143,-3.3484,-3.3816,-3.4175,-3.4493,-3.5045,-3.5412,-3.5558,-3.5224,-3.5129,-3.5351,-3.5145,-3.5145,-3.5351,-3.551,-3.5573,-3.5589,-3.6145,-3.6511,-3.6702,-3.6622,-3.659,-3.659,-3.6982,-3.6918,-3.6724,-3.7287,-3.6931,-3.6211,-3.6855,-3.6946,-3.6929,-3.6436,-3.6387,-3.6355,-3.6036,-3.5585,-3.5319,-3.5176,-3.5412,-3.5789,-3.5776,-3.622,-3.6761,-3.7048,-3.7419,-3.769,-3.8185,-3.8316,-3.832,-3.8736,-3.8561,-3.8383,-3.8704,-3.8507,-3.8725,-3.9668,-4.0562,-4.148,-4.2576,-4.3758,-4.4862,-4.5698,-4.6165,-4.7182,-4.8887,-4.9124,-4.9453,-5.0396,-5.0631,-5.0653,-5.0481,-5.0628,-5.0746,-5.0764,-5.0568,-5.0196,-4.965,-4.9235,-4.889,-4.8808,-4.9207,-4.9247,-4.9292,-4.9889,-4.9789,-2.0864,0.0,0.0,-2.1233,-2.1143,-2.1274,-2.1598,-2.1878,-2.23,-2.3493,-2.451,-2.5234,-2.5234,-2.6054,0.0,-2.6839,-2.7959,-2.9042,-2.9655,-2.9837,-3.0112,-3.0378,-3.0087,-2.9899,-2.9931,-3.2152,-3.3509,-3.3758,-3.4007,-3.4318,-3.4636,-3.5205,-3.5524,-3.5573,-3.5319,-3.5303,-3.5573,-3.5319,-3.5367,-3.5716,-3.5716,-3.578,-3.5875,-3.6479,-3.694,-3.7258,-3.7003,-3.6892,-3.6892,-3.7157,-3.7109,-3.6733,-3.7176,-3.682,-3.6386,-3.6817,-3.6937,-3.66,-3.6269,-3.6269,-3.66,-3.6269,-3.5922,-3.5573,-3.5573,-3.5828,-3.6176,-3.5978,-3.6576,-3.7397,-3.7316,-3.7708,-3.8203,-3.8306,-3.8288,-3.8316,-3.825,-3.8465,-3.8579,-3.878,-3.8599,-3.8833,-3.9995,-4.0437,-4.1064,-4.2326,-4.3214,-4.4205,-4.5372,-4.6003,-4.7062,-4.8755,-4.9054,-4.9459,-5.031,-5.042,-5.0569,-5.0929,-5.0929,-5.0946,-5.1288,-5.1135,-5.0677,-4.9825,-4.9694,-4.9372,-4.8852,-4.9518,-4.9785,-4.9548,-5.0216,-5.0498,0.0,0.0,-2.3247,-2.2698,-2.2572,-2.2393,-2.2131,-2.2552,-2.3215,-2.3937,-2.4781,-2.5491,-2.5353,-2.6283,-2.7087,-2.7575,-2.8228,-2.9179,-3.068,-2.9954,-2.9377,-2.9704,-3.0756,-3.0498,0.0,-3.1433,-3.3705,-3.4087,-3.4302,-3.4652,-3.5002,-3.5367,-3.5573,-3.5573,-3.5573,-3.5573,-3.5573,-3.5573,-3.5748,-3.6082,-3.6082,-3.6257,-3.6574,-3.694,-3.7305,-3.7655,-3.7639,-3.7639,-3.7607,-3.7258,-3.7115,-3.7083,-3.7273,-3.6949,-3.659,-3.7111,-3.6499,-3.5573,-3.5573,-3.5573,-3.5573,-3.5573,-3.5573,-3.5573,-3.5573,-3.5812,-3.6195,-3.6192,-3.6616,-3.6963,-3.7447,-3.7691,-3.7878,-3.8238,-3.8323,-3.8203,-3.7809,-3.8061,-3.8293,-3.7927,-3.7874,-3.8329,-3.9551,-3.9438,-4.0047,-4.264,-4.2716,-4.3068,-4.4718,-4.6185,-4.7014,-4.7056,-4.867,-4.9368,-4.8378,-4.9533,-5.04,-5.04,-5.04,-5.0907,-5.1769,-5.1332,-5.083,-5.0305,-4.9847,-4.9388,-4.8886,-4.8907,-4.9359,-5.0098,-5.0121,-5.0588,0.0,0.0,-2.4366,-2.4032,-2.378,-2.3539,-2.3436,-2.3182,-2.3167,-2.3877,-2.451,-2.494,-2.5062,-2.5864,-2.6535,-2.7161,-2.8006,-2.9072,-3.0322,-3.0568,-3.0447,-3.0099,-2.9303,0.0,0.0,0.0,0.0,-3.1347,-3.2875,-3.3813,-3.3801,-3.4737,-3.5225,-3.5573,-3.5225,-3.5159,-3.5394,-3.5394,-3.5457,-3.5566,-3.5921,-3.64,-3.6956,-3.7067,-3.7321,-3.7671,-3.7671,-3.7671,-3.7655,-3.7544,-3.7496,-3.748,-3.7536,-3.7344,-3.6956,-3.7137,-3.6833,-3.6257,-3.6257,-3.6434,-3.6612,-3.6434,-3.6257,-3.6257,-3.5917,-3.6174,-3.6416,-3.6126,-3.6628,-3.732,-3.7672,-3.7925,-3.7983,-3.8214,-3.8191,-3.7966,-3.7436,-3.7607,-3.7845,-3.7806,-3.7738,-3.8026,-3.8746,-3.9155,-4.0205,-4.2364,-4.338,-4.439,-4.4882,-4.5963,-4.6927,-4.7874,-4.8793,-4.9446,-4.9743,-5.004,-5.0569,-5.0929,-5.0907,-5.1097,-5.1791,-5.1638,-5.131,-5.083,-5.0677,-5.0196,-4.9388,-4.9685,-4.9984,-5.0165,-5.0478,-5.0944,0.0,-2.4845,-2.5353,-2.523,-2.4797,-2.4374,-2.4131,-2.3539,-2.3319,-2.3896,-2.4186,-2.4394,-2.4531,-2.5308,-2.631,-2.7182,-2.8011,-2.9061,-3.0646,-3.1245,-3.102,-2.9959,-2.823,0.0,0.0,0.0,0.0,-3.0836,-3.1873,-3.2769,-3.363,-3.4216,-3.4762,-3.5222,-3.4886,-3.4864,-3.5218,-3.5218,-3.5459,-3.5747,-3.6231,-3.6711,-3.7321,-3.7321,-3.7448,-3.7671,-3.7671,-3.7671,-3.7671,-3.7671,-3.7671,-3.7671,-3.7671,-3.7528,-3.7321,-3.7321,-3.7178,-3.694,-3.6686,-3.6606,-3.6786,-3.6606,-3.6427,-3.6067,-3.5903,-3.6177,-3.624,-3.595,-3.6522,-3.7305,-3.7712,-3.7858,-3.7986,-3.8108,-3.8048,-3.7804,-3.7152,-3.7425,-3.7698,-3.7196,-3.7384,-3.7895,-3.8477,-3.9493,-4.08,-4.1973,-4.3491,-4.4561,-4.4758,-4.5613,-4.6494,-4.761,-4.8359,-4.9007,-4.9617,-4.9977,-5.0231,-5.0591,-5.076,-5.1097,-5.1455,-5.1623,-5.1572,-5.107,-5.107,-5.0589,-4.9628,-4.9927,-5.0003,-5.0009,-5.0322,-5.0789,-2.6023,-2.6116,-2.6109,-2.6189,-2.5659,-2.4995,-2.4301,-2.3837,-2.3602,-2.3938,-2.3956,-2.3872,0.0,0.0,-2.6258,-2.7453,-2.8116,-2.922,-3.1695,-3.1604,-3.1022,0.0,0.0,0.0,0.0,0.0,0.0,-3.2145,0.0,-3.1896,-3.4049,-3.4134,-3.4326,-3.4662,-3.4662,-3.4666,-3.5015,-3.5015,-3.5546,-3.6417,-3.6744,-3.7085,-3.7671,-3.7671,-3.7671,-3.7671,-3.7671,-3.7671,-3.7671,-3.7671,-3.7671,-3.7671,-3.7671,-3.7671,-3.7671,-3.7671,-3.7671,-3.7575,-3.6892,-3.631,-3.6146,-3.6474,-3.5934,-3.5227,-3.5785,-3.5835,-3.5837,-3.5878,-3.6546,-3.7083,-3.7289,-3.7745,-3.7923,-3.8069,-3.7907,-3.7808,-3.6885,-3.745,-3.7677,-3.6464,-3.6927,-3.7841,-3.8697,-4.0245,-4.1383,-4.1539,-4.2772,-4.369,-4.4383,-4.5157,-4.5956,-4.6453,-4.7565,-4.8417,-4.8417,-4.9151,-4.9742,-4.9763,-5.0103,-5.0612,-5.114,-5.1477,-5.1594,-5.1114,-5.1114,-5.0633,-4.9672,-4.9672,-4.957,-4.9538,-5.0009,-5.0322,-2.6487,-2.6678,-2.6909,-2.726,-2.6645,-2.5782,-2.5601,-2.4578,-2.3843,-2.4107,-2.4004,-2.3991,0.0,0.0,0.0,-2.803,-2.7733,0.0,-3.1105,-3.1868,0.0,0.0,0.0,-2.9748,-2.9655,-2.9948,0.0,0.0,-3.2237,-3.2175,-3.1702,-3.3233,-3.4326,-3.4662,-3.4321,-3.4412,-3.4998,-3.5013,-3.5164,-3.565,-3.6236,-3.6666,-3.71,-3.7486,-3.7671,-3.7671,-3.7671,-3.7671,-3.7671,-3.7671,-3.7671,-3.7671,-3.7671,-3.7671,-3.7671,-3.7671,-3.7671,-3.7639,-3.7464,-3.7401,-3.7217,-3.6834,-3.6651,-3.6282,-3.5729,-3.579,-3.6036,-3.5559,-3.6159,-3.7128,-3.7417,-3.7767,-3.7885,-3.7989,-3.7938,-3.759,-3.6786,-3.6929,-3.7221,-3.661,-3.6724,-3.7315,-3.8191,-3.9214,-4.0509,-4.1869,-4.2665,-4.3379,-4.4746,-4.5568,-4.6526,-4.7223,-4.8052,-4.8531,-4.8893,-4.9168,-4.9547,-5.0246,-5.0589,-5.0932,-5.1103,-5.1954,-5.1928,-5.1092,-5.1449,-5.1135,-5.0131,-5.0131,-4.9876,-4.9538,-4.9695,-5.0009,-2.6942,-2.7123,-2.7173,-2.7537,-2.7041,-2.6263,-2.5887,-2.4878,-2.4111,-2.419,-2.3691,0.0,0.0,0.0,0.0,0.0,0.0,0.0,-3.1197,-3.1856,-3.2189,0.0,-3.1194,0.0,-3.0539,-2.9957,-3.0345,0.0,0.0,-3.3152,-3.2266,-3.3384,-3.4185,-3.4517,-3.4141,-3.4285,-3.4803,-3.4803,-3.5063,-3.5413,-3.5774,-3.6437,-3.7133,-3.7521,-3.7707,-3.7909,0.0,-3.7814,-3.7671,-3.7671,-3.7671,-3.7671,-3.7671,-3.7671,-3.7671,-3.7671,-3.7671,-3.7671,-3.7671,-3.7671,-3.7671,-3.7285,-3.673,-3.6158,-3.5786,-3.5615,-3.5428,-3.5413,-3.5972,-3.673,-3.7285,-3.7486,-3.7807,-3.7783,-3.7712,-3.7512,-3.6956,-3.7115,-3.7258,-3.6892,-3.7029,-3.7436,-3.7986,-3.8998,-4.0129,-4.1356,-4.2243,-4.3199,-4.4548,-4.528,-4.6161,-4.7188,-4.7764,-4.8372,-4.9059,-4.9245,-4.9645,-5.0089,-5.0797,-5.1075,-5.1075,-5.1939,-5.2237,-5.1421,-5.1928,-5.1616,-5.0655,-5.0655,-5.0315,-4.9531,-4.969,-4.9895,-2.7635,-2.7457,-2.7305,-2.7637,-2.721,-2.6428,-2.5753,-2.5123,-2.4436,-2.4214,0.0,0.0,-2.3872,0.0,-2.6124,-2.691,0.0,-3.0482,-3.1363,-3.1792,-3.1905,-3.1341,-3.1284,-3.1287,-3.112,-2.9929,-3.0229,-3.2659,-3.386,-3.4359,-3.3831,-3.3937,-3.4128,-3.4334,-3.4294,-3.4417,-3.4695,-3.471,-3.4882,-3.5226,-3.5413,-3.6124,-3.7179,-3.7414,-3.7633,-3.8195,0.0,0.0,-3.7671,-3.7671,-3.7639,-3.7607,-3.7655,-3.7671,-3.7671,-3.7671,-3.7671,-3.7671,-3.7671,-3.7671,-3.7671,-3.7671,-3.673,-3.56,-3.5987,-3.5428,-3.4882,-3.5241,-3.5786,-3.6173,-3.673,-3.7285,-3.7671,-3.7671,-3.7671,-3.7591,-3.7274,-3.7417,-3.748,-3.7067,-3.7398,-3.7808,-3.7808,-3.8828,-3.9822,-4.0583,-4.1652,-4.2909,-4.3978,-4.4736,-4.555,-4.6907,-4.746,-4.8067,-4.897,-4.9535,-4.9804,-4.9928,-5.0652,-5.1232,-5.1057,-5.1932,-5.2196,-5.1659,-5.215,-5.2009,-5.107,-5.107,-5.0611,-4.9716,-5.0015,-5.0069,-2.8345,-2.8096,-2.7736,-2.8089,-2.7594,-2.6865,-2.6461,-2.551,0.0,0.0,0.0,-2.3762,-2.4496,-2.4901,0.0,-2.6671,0.0,0.0,0.0,0.0,-3.2188,0.0,0.0,0.0,0.0,0.0,0.0,0.0,0.0,0.0,-3.3337,-3.4113,-3.4412,-3.4294,-3.4446,-3.4651,-3.471,-3.471,-3.471,-3.4882,-3.5241,-3.5816,-3.6451,-3.7117,-3.7633,-3.8195,0.0,0.0,-3.7671,-3.7671,-3.7496,-3.7258,-3.756,-3.7671,-3.7671,-3.7671,-3.7671,-3.7671,-3.7671,-3.7671,-3.7671,-3.71,-3.6915,-3.6545,-3.5786,-3.5413,-3.5226,-3.5413,-3.5413,-3.5786,-3.673,-3.6915,-3.71,-3.7671,-3.7671,-3.7655,-3.7591,-3.7751,-3.7398,-3.64,-3.6868,-3.7419,-3.7419,-3.7908,-3.896,-4.0877,-4.1471,-4.2192,-4.3978,-4.5002,-4.5842,-4.6888,-4.7488,-4.7842,-4.8379,-4.9353,-4.9898,-5.0285,-5.112,-5.1517,-5.1183,-5.2048,-5.217,-5.1295,-5.1638,-5.1694,-5.107,-5.107,-5.0764,-5.0196,-5.0196,-5.0418,-2.896,-2.8543,-2.7949,-2.8162,-2.7844,-2.7317,-2.6951,0.0,0.0,0.0,0.0,-2.4178,-2.433,0.0,0.0,0.0,0.0,0.0,0.0,0.0,0.0,0.0,0.0,0.0,0.0,0.0,0.0,0.0,0.0,0.0,-3.3754,-3.421,-3.4516,-3.4446,-3.4622,-3.471,-3.471,-3.471,-3.471,-3.471,-3.4882,-3.5331,-3.6073,-3.6412,-3.7161,-3.8088,0.0,0.0,-3.7925,-3.775,-3.7575,-3.7432,-3.7607,-3.7671,-3.7671,-3.7671,-3.7671,-3.7671,-3.7671,-3.7671,-3.7671,-3.7486,-3.71,-3.673,-3.5972,-3.56,-3.5413,-3.5054,-3.5241,-3.56,-3.5972,-3.6545,-3.6915,-3.7285,-3.7486,-3.7623,-3.7432,-3.744,-3.7334,-3.682,-3.6852,-3.7013,-3.7565,-3.776,-3.835,-3.997,-4.0748,-4.1832,-4.3266,-4.4529,-4.5783,-4.6832,-4.7354,-4.7955,-4.8331,-4.9127,-4.9752,-4.9648,-5.0474,-5.092,-5.0739,-5.164,-5.1736,-5.0791,-5.1485,-5.136,-5.0752,-5.0919,-5.0848,-5.037,-5.0534,-5.0599,-2.9395,-2.8977,-2.8311,-2.8279,-2.7963,-2.7549,-2.7213,-2.6536,0.0,0.0,0.0,-2.4459,-2.4219,0.0,0.0,0.0,0.0,0.0,0.0,0.0,0.0,0.0,0.0,0.0,0.0,0.0,0.0,0.0,0.0,0.0,0.0,-3.4157,-3.4176,-3.4204,-3.4478,-3.4508,-3.4508,-3.4695,-3.471,-3.471,-3.471,-3.5015,-3.5817,-3.5966,-3.6701,-3.7834,0.0,0.0,0.0,-3.7782,-3.7623,-3.756,-3.7639,-3.7671,-3.7671,-3.7671,-3.7671,-3.7671,-3.7671,-3.7671,-3.7671,-3.7671,-3.7486,-3.6915,-3.6545,-3.5987,-3.56,-3.5069,-3.5241,-3.5413,-3.56,-3.6158,-3.673,-3.71,-3.7301,-3.736,-3.7115,-3.7019,-3.7073,-3.6998,-3.6804,-3.6965,-3.7679,-3.7824,-3.8168,-3.9076,-4.0385,-4.1471,-4.2371,-4.3997,-4.5431,-4.6658,-4.7181,-4.7742,-4.7975,-4.8898,-4.9405,-4.917,-4.9894,-5.0337,-5.0519,-5.1248,-5.1239,-5.0591,-5.145,-5.1333,-5.0549,-5.0888,-5.0821,-5.0537,-5.0891,-5.0961,-3.0037,-2.9543,-2.8679,-2.8278,-2.8196,-2.7899,-2.6942,0.0,0.0,0.0,-2.5143,-2.4732,-2.5186,0.0,0.0,0.0,0.0,0.0,0.0,0.0,0.0,0.0,0.0,0.0,0.0,0.0,0.0,0.0,0.0,0.0,0.0,-3.3495,-3.3128,-3.2929,-3.3585,-3.3916,-3.3916,-3.4508,-3.471,-3.471,-3.471,-3.4897,-3.5488,-3.6086,-3.6792,-3.7492,0.0,0.0,0.0,-3.7687,-3.748,-3.721,-3.7544,-3.7671,-3.7671,-3.7671,-3.7671,-3.7671,-3.7671,-3.7671,-3.7671,-3.7671,-3.7671,-3.7486,-3.6915,-3.673,-3.673,-3.6173,-3.5786,-3.56,-3.5987,-3.6173,-3.6545,-3.7486,-3.7285,-3.6913,-3.6616,-3.7013,-3.6998,-3.5971,-3.6626,-3.748,-3.7501,-3.7646,-3.835,-3.964,-4.022,-4.0946,-4.2029,-4.3641,-4.5078,-4.5607,-4.6483,-4.699,-4.7013,-4.8196,-4.919,-4.9613,-5.0075,-5.0519,-5.1066,-5.1066,-5.1182,-5.1067,-5.16,-5.1492,-5.1039,-5.1039,-5.1145,-5.1032,-5.1032,-5.1297,-3.0172,-2.9429,-2.8407,-2.8609,-2.8263,-2.7671,-2.7146,0.0,0.0,-2.6183,-2.5947,-2.5757,-2.5621,-2.5677,0.0,0.0,0.0,0.0,0.0,0.0,0.0,0.0,0.0,0.0,0.0,0.0,0.0,0.0,0.0,0.0,0.0,-3.2518,-3.2577,-3.2701,-3.3196,-3.354,-3.3916,-3.4118,-3.432,-3.471,-3.471,-3.4985,-3.535,-3.5617,-3.6456,-3.7655,0.0,0.0,0.0,-3.7671,-3.7028,-3.6216,-3.6948,-3.721,-3.7051,-3.7258,-3.7337,-3.7369,-3.7591,-3.7671,-3.7671,-3.7671,-3.7671,-3.7671,-3.71,-3.6915,-3.673,-3.6359,-3.5786,-3.5413,-3.56,-3.5786,-3.5987,-3.7301,-3.7285,-3.696,-3.6838,-3.7105,-3.7141,-3.6644,-3.7015,-3.7403,-3.7581,-3.794,-3.8515,-3.8909,-3.9856,-4.0765,-4.1471,-4.3087,-4.4352,-4.5078,-4.6308,-4.7066,-4.6894,-4.7661,-4.8275,-4.8892,-4.8969,-4.9326,-5.0134,-5.0154,-5.0318,-5.0233,-5.0484,-5.0384,-5.0262,-5.0312,-5.0251,-5.0252,-5.0569,-5.0989,-3.0753,-2.968,-2.8565,-2.8939,-2.85,-2.7723,0.0,0.0,-2.6889,-2.6563,-2.661,-2.6398,-2.5996,-2.5922,-2.6022,0.0,0.0,0.0,0.0,0.0,0.0,0.0,0.0,0.0,0.0,0.0,0.0,0.0,0.0,0.0,0.0,0.0,-3.1799,-3.2191,-3.2592,-3.3163,-3.354,-3.354,-3.393,-3.4508,-3.4132,-3.4247,-3.4638,-3.4636,-3.5192,0.0,0.0,0.0,0.0,-3.7175,-3.6688,-3.5273,-3.668,-3.679,-3.6601,-3.6854,-3.7012,-3.7138,-3.7391,-3.7486,-3.7671,-3.7671,-3.7671,-3.7671,-3.7285,-3.71,-3.6915,-3.6545,-3.5972,-3.5413,-3.56,-3.56,-3.5786,-3.71,-3.71,-3.7007,-3.7028,-3.7131,-3.7019,-3.7029,-3.7322,-3.7615,-3.7973,-3.84,-3.8893,-3.8909,-3.9856,-4.0765,-4.1291,-4.2551,-4.3819,-4.4548,-4.5783,-4.6658,-4.6832,-4.7208,-4.7603,-4.8097,-4.7973,-4.8405,-4.9386,-4.9588,-4.9631,-4.9693,-4.9888,-4.997,-4.9763,-4.9776,-4.9868,-4.9912,-5.0231,-5.0674,-3.1739,-3.0676,-2.9201,-2.9549,-2.8835,-2.8129,0.0,-2.7493,-2.6878,-2.751,-2.678,-2.628,-2.6666,-2.613,-2.5816,-2.6489,0.0,0.0,0.0,0.0,0.0,0.0,0.0,0.0,0.0,0.0,0.0,0.0,0.0,0.0,0.0,0.0,-3.0584,-3.0795,-3.1919,-3.2421,-3.2408,-3.2988,-3.3351,-3.3916,-3.2974,-3.28,-3.3191,-3.323,0.0,0.0,0.0,0.0,0.0,-3.6495,-3.649,-3.4901,-3.6499,-3.6766,-3.6386,-3.6386,-3.6619,-3.6915,-3.6915,-3.7285,-3.7671,-3.7671,-3.7671,-3.7671,-3.7671,-3.7285,-3.6915,-3.6915,-3.6158,-3.56,-3.5987,-3.5786,-3.56,-3.673,-3.6915,-3.7007,-3.7028,-3.7131,-3.7019,-3.667,-3.7322,-3.8151,-3.8514,-3.8941,-3.9435,-3.9822,-4.022,-4.0765,-4.1291,-4.2551,-4.3641,-4.4193,-4.5078,-4.5783,-4.6308,-4.668,-4.7111,-4.7681,-4.7721,-4.7973,-4.895,-4.9512,-4.9693,-4.9693,-5.0572,-5.0653,-4.9763,-4.9742,-5.0011,-5.04,-5.04,-5.0671,-2.983,-2.8947,-2.8221,-2.8522,-2.8006,-2.7447,-2.7507,-2.7305,-2.6886,-2.6628,-2.6518,-2.6509,-2.6387,-2.589,-2.5874,-2.642,0.0,0.0,0.0,0.0,0.0,0.0,0.0,0.0,0.0,0.0,0.0,0.0,0.0,0.0,0.0,0.0,-3.0333,-3.0993,-3.1558,-3.2043,-3.2408,-3.2191,-3.2556,-3.3351,-3.2786,-3.2707,-3.3499,-3.312,0.0,0.0,0.0,0.0,0.0,-3.5562,-3.5484,-3.3907,-3.6114,-3.679,-3.6616,-3.649,-3.6647,-3.6955,-3.7022,-3.7285,-3.7671,-3.7671,-3.7486,-3.71,-3.71,-3.71,-3.6915,-3.6545,-3.6173,-3.5987,-3.6173,-3.5987,-3.5987,-3.6359,-3.673,-3.6884,-3.696,-3.7312,-3.7464,-3.7353,-3.7885,-3.8282,-3.803,-3.8595,-3.8993,-3.8391,-3.9325,-4.0237,-4.0765,-4.1849,-4.2927,-4.4015,-4.4725,-4.5255,-4.5783,-4.625,-4.6817,-4.7641,-4.7603,-4.7879,-4.8494,-4.9051,-4.923,-4.923,-4.946,-4.9702,-4.9763,-4.9431,-4.9375,-4.9572,-5.0061,-5.0484,-2.8972,-2.8419,-2.7912,-2.8326,-2.7794,-2.7302,-2.7641,-2.7354,-2.7035,-2.6565,-2.6624,-2.6565,-2.6215,-2.5919,-2.5942,-2.6359,-2.6294,0.0,0.0,0.0,0.0,0.0,0.0,0.0,0.0,0.0,0.0,0.0,0.0,0.0,0.0,0.0,-3.0584,-3.1367,-3.1625,-3.1853,-3.2043,-3.1813,-3.1799,-3.2178,-3.184,-3.1961,-3.2313,0.0,0.0,0.0,0.0,0.0,0.0,-3.5194,-3.5137,-3.3968,-3.6146,-3.6822,-3.6286,-3.6141,-3.6479,-3.6803,-3.6653,-3.71,-3.7671,-3.7671,-3.7301,-3.6915,-3.6545,-3.6545,-3.6545,-3.6359,-3.6173,-3.6173,-3.6359,-3.6359,-3.6173,-3.6173,-3.6545,-3.6915,-3.6915,-3.7285,-3.7671,-3.7671,-3.804,-3.8224,-3.804,-3.8575,-3.8759,-3.804,-3.8958,-3.9673,-4.0038,-4.1127,-4.2209,-4.3284,-4.4193,-4.4902,-4.5255,-4.5958,-4.6601,-4.7052,-4.7228,-4.7601,-4.8038,-4.8768,-4.8945,-4.8945,-4.9209,-4.9332,-4.9494,-4.9547,-4.9742,-4.9912,-5.0591,-5.0929,0.0,-2.8599,-2.8191,-2.8759,-2.8223,-2.7526,-2.8425,-2.7809,0.0,-2.7146,-2.6883,-2.6565,-2.6184,-2.6147,-2.6114,-2.6084,-2.6298,0.0,0.0,0.0,0.0,0.0,0.0,0.0,0.0,0.0,0.0,0.0,0.0,0.0,0.0,0.0,0.0,-3.1651,-3.1719,-3.1664,-3.1664,-3.1664,-3.1434,-3.0583,-3.07,-3.0535,-3.0102,0.0,0.0,0.0,0.0,0.0,0.0,-3.481,-3.5563,-3.4948,-3.653,-3.6631,-3.573,-3.573,-3.5914,-3.6173,-3.6173,-3.6915,-3.7671,-3.7671,-3.7285,-3.6545,-3.56,-3.5786,-3.6173,-3.6173,-3.6173,-3.6359,-3.673,-3.6545,-3.6173,-3.6173,-3.6545,-3.6915,-3.6915,-3.7285,-3.7671,-3.7671,-3.804,-3.8408,-3.8224,-3.8759,-3.8942,-3.8408,-3.8775,-3.9125,-3.9125,-4.0385,-4.1471,-4.2029,-4.3284,-4.437,-4.4902,-4.5783,-4.6308,-4.6308,-4.6832,-4.7185,-4.7582,-4.846,-4.9005,-4.9005,-4.9527,-4.9494,-4.9059,-5.0061,-5.0569,-5.1097,-5.1623,-5.1791,-2.6837,0.0,-2.7059,-2.7695,-2.7053,-2.657,0.0,-2.7275,0.0,0.0,0.0,0.0,0.0,0.0,0.0,0.0,0.0,0.0,0.0,0.0,0.0,0.0,0.0,0.0,0.0,0.0,0.0,0.0,0.0,0.0,0.0,0.0,0.0,-3.1651,-3.1719,-3.1664,-3.1664,-3.1664,-3.1165,-3.0149,-3.0596,-3.0596,-3.0402,0.0,0.0,0.0,0.0,0.0,-3.1803,-3.3726,-3.4389,-3.42,-3.6709,-3.6991,-3.6066,-3.6066,-3.6298,-3.6545,-3.5786,-3.6545,-3.7486,-3.673,-3.6173,-3.56,-3.5069,-3.5241,-3.56,-3.56,-3.5786,-3.6173,-3.6359,-3.6545,-3.6545,-3.5786,-3.5987,-3.6359,-3.6359,-3.673,-3.71,-3.71,-3.7486,-3.7671,-3.7285,-3.7655,-3.804,-3.7855,-3.8224,-3.8775,-3.9125,-4.0385,-4.1471,-4.2029,-4.3641,-4.4725,-4.4902,-4.5431,-4.5958,-4.6308,-4.7007,-4.7394,-4.7145,-4.8362,-4.888,-4.8535,-4.9396,-4.9676,-4.9572,-5.0061,-5.0569,-5.1097,-5.1265,-5.1434,-2.588,-2.6277,-2.6694,-2.726,-2.6854,-2.6718,0.0,0.0,0.0,0.0,0.0,0.0,0.0,0.0,0.0,0.0,0.0,0.0,0.0,0.0,0.0,0.0,0.0,0.0,0.0,0.0,0.0,0.0,0.0,0.0,0.0,0.0,0.0,0.0,-3.1786,-3.1664,-3.1664,-3.1664,-3.1204,-3.0088,-2.9595,-2.9608,-2.9924,0.0,0.0,0.0,0.0,0.0,-3.2301,-3.3429,-3.4353,-3.5104,-3.6406,-3.6545,-3.5786,-3.5786,-3.5972,-3.6158,-3.56,-3.6265,-3.732,-3.6405,-3.6184,-3.6005,-3.497,-3.497,-3.5232,-3.5458,-3.56,-3.5987,-3.6359,-3.6359,-3.6158,-3.5786,-3.5987,-3.6173,-3.6173,-3.673,-3.71,-3.6915,-3.7301,-3.7486,-3.6915,-3.7285,-3.7671,-3.7671,-3.7855,-3.8224,-3.8391,-3.9474,-4.0566,-4.1308,-4.2748,-4.3997,-4.4902,-4.4907,-4.5395,-4.6289,-4.7181,-4.7528,-4.7354,-4.8564,-4.9059,-4.9059,-4.9401,-4.9912,-5.0422,-5.0738,-5.1136,-5.1108,-5.1441,-5.1476,-2.5594,-2.6136,-2.6573,-2.6916,-2.6923,-2.6771,0.0,0.0,0.0,0.0,0.0,0.0,0.0,0.0,0.0,0.0,0.0,0.0,0.0,0.0,0.0,0.0,0.0,0.0,0.0,0.0,0.0,0.0,0.0,0.0,0.0,0.0,0.0,0.0,-3.1664,-3.1664,-3.1664,-3.1664,-3.1067,-2.9861,-2.8821,-2.8642,-2.9313,-3.0115,0.0,0.0,0.0,0.0,-3.3149,-3.34,-3.4573,-3.5987,-3.6173,-3.5987,-3.5413,-3.5413,-3.56,-3.5615,-3.566,-3.6245,-3.7007,-3.6589,-3.6723,-3.6883,-3.5336,-3.4958,-3.5279,-3.5331,-3.5413,-3.56,-3.6545,-3.5972,-3.56,-3.5987,-3.5987,-3.5987,-3.6173,-3.6915,-3.7301,-3.6915,-3.7301,-3.7486,-3.6915,-3.7285,-3.7671,-3.7671,-3.7671,-3.7671,-3.7671,-3.8391,-3.9474,-4.0402,-4.1419,-4.2836,-4.463,-4.4485,-4.4777,-4.6017,-4.7081,-4.7794,-4.8047,-4.8716,-4.938,-4.9637,-4.9807,-5.0104,-5.0882,-5.1384,-5.1498,-5.1125,-5.176,-5.1538,-2.5761,-2.6091,-2.639,-2.6609,-2.599,-2.5565,0.0,0.0,0.0,0.0,0.0,0.0,0.0,0.0,0.0,0.0,0.0,0.0,0.0,0.0,0.0,0.0,0.0,0.0,0.0,0.0,0.0,0.0,0.0,0.0,0.0,0.0,0.0,0.0,0.0,-3.1664,-3.1664,-3.1664,-3.0949,-2.9344,-3.0557,-3.0368,-2.9053,-3.0799,-3.1284,0.0,0.0,-3.1947,-3.3149,-3.34,-3.4016,-3.5069,-3.6359,-3.6158,-3.5413,-3.5987,-3.6173,-3.6204,-3.6306,-3.6443,-3.6345,-3.6951,-3.6898,-3.634,-3.5966,-3.5498,-3.509,-3.497,-3.5054,-3.5413,-3.56,-3.56,-3.5413,-3.5413,-3.5241,-3.5069,-3.5987,-3.6359,-3.6545,-3.6915,-3.7301,-3.7486,-3.6545,-3.7116,-3.7486,-3.71,-3.7486,-3.7486,-3.71,-3.8208,-3.9291,-3.9822,-4.1156,-4.256,-4.3652,-4.4489,-4.501,-4.5242,-4.6432,-4.7793,-4.938,-4.9572,-4.9553,-4.968,-5.016,-5.0134,-4.9911,-5.0382,-5.0828,-5.1572,-5.1249,-5.155,-2.5444,-2.5659,-2.5927,-2.6263,-2.6277,0.0,0.0,0.0,0.0,0.0,0.0,0.0,0.0,0.0,0.0,0.0,0.0,0.0,0.0,0.0,0.0,0.0,0.0,0.0,0.0,0.0,0.0,0.0,0.0,0.0,0.0,0.0,0.0,0.0,0.0,0.0,-3.0864,-3.146,-3.1002,-2.9317,-3.0229,-3.0242,-2.957,-3.0267,-3.0522,-3.0903,0.0,-3.1396,-3.2394,-3.2841,-3.3644,-3.4867,-3.5801,-3.5972,-3.5786,-3.5786,-3.5615,-3.5488,-3.599,-3.642,-3.6792,-3.7135,-3.7247,-3.7206,-3.6321,-3.5794,-3.5544,-3.4885,-3.4882,-3.5054,-3.5413,-3.5241,-3.5054,-3.5413,-3.5428,-3.5615,-3.6173,-3.6545,-3.6915,-3.6915,-3.7301,-3.7301,-3.6359,-3.673,-3.71,-3.6915,-3.71,-3.71,-3.6915,-3.7655,-3.8575,-3.8926,-4.0214,-4.1461,-4.2682,-4.3715,-4.4875,-4.6343,-4.7035,-4.7976,-4.9401,-4.9151,-4.9259,-4.9741,-4.963,-4.9725,-5.0001,-5.049,-5.0682,-5.0877,-5.1218,-5.1243,-2.4978,-2.5353,-2.5814,0.0,0.0,0.0,0.0,0.0,0.0,0.0,0.0,0.0,0.0,0.0,0.0,0.0,0.0,0.0,0.0,0.0,0.0,0.0,0.0,0.0,0.0,0.0,0.0,0.0,0.0,0.0,0.0,0.0,0.0,0.0,0.0,0.0,-3.0458,-3.1054,-3.0674,-2.9517,-2.9708,-2.9911,-2.9746,-2.9567,-2.9949,-3.0522,-3.0492,-3.0897,-3.1664,-3.2244,-3.3398,-3.4493,-3.5316,-3.5861,-3.6173,-3.5786,-3.5286,-3.4856,-3.5543,-3.6441,-3.7318,-3.7394,-3.7776,-3.8035,-3.6798,-3.6312,-3.5939,-3.5061,-3.4812,-3.4783,-3.5069,-3.5054,-3.4882,-3.5226,-3.5786,-3.6173,-3.6359,-3.6915,-3.7301,-3.71,-3.7285,-3.7085,-3.6252,-3.6421,-3.6606,-3.6421,-3.6606,-3.6637,-3.6715,-3.71,-3.7655,-3.8375,-3.8944,-3.9976,-4.1832,-4.296,-4.4584,-4.7141,-4.7701,-4.822,-4.923,-4.8794,-4.9007,-4.9737,-4.9267,-4.9295,-4.9978,-5.0323,-5.0285,-5.0069,-5.0861,-5.0816,-2.4939,-2.5393,-2.5937,0.0,0.0,0.0,0.0,0.0,0.0,0.0,0.0,0.0,0.0,0.0,0.0,0.0,0.0,0.0,0.0,0.0,0.0,0.0,0.0,0.0,0.0,0.0,0.0,0.0,0.0,0.0,0.0,0.0,0.0,0.0,0.0,0.0,-3.1664,-3.0445,-2.9683,-2.9375,-3.0331,-3.0153,-2.8812,-2.9567,-2.9937,-2.9567,-2.9924,-3.0496,-3.0929,-3.1739,-3.2831,-3.4132,-3.538,-3.6058,-3.6173,-3.6173,-3.581,-3.5163,-3.55,-3.6594,-3.7715,-3.802,-3.8157,-3.8127,-3.773,-3.6863,-3.5983,-3.531,-3.5119,-3.5061,-3.4768,-3.5054,-3.5413,-3.5413,-3.5786,-3.6359,-3.673,-3.6545,-3.6545,-3.7486,-3.6915,-3.6252,-3.5746,-3.57,-3.57,-3.5149,-3.5516,-3.5807,-3.6127,-3.6359,-3.6915,-3.8191,-3.7776,-3.8619,-4.1419,-4.2812,-4.4428,-4.6269,-4.7681,-4.8716,-4.9572,-4.9301,-4.9195,-4.976,-4.9286,-4.8973,-4.8995,-4.8995,-4.9153,-4.9583,-5.0054,-5.05,-2.4838,-2.5445,-2.6023,0.0,0.0,0.0,0.0,0.0,0.0,0.0,0.0,0.0,0.0,0.0,0.0,0.0,0.0,0.0,0.0,0.0,0.0,0.0,0.0,0.0,0.0,0.0,0.0,0.0,0.0,0.0,0.0,0.0,0.0,0.0,0.0,0.0,0.0,-3.108,-3.028,-2.8943,-2.9554,-2.9579,-2.9196,-2.9196,-2.9375,-2.9758,-2.9934,-3.0202,-3.0818,-3.1864,-3.2763,-3.3443,-3.5262,-3.6402,-3.6853,-3.6681,-3.6314,-3.5883,-3.6015,-3.6415,-3.7357,-3.7493,-3.8007,-3.8142,-3.7402,-3.6908,-3.6371,-3.591,-3.5338,-3.509,-3.4783,-3.5054,-3.5413,-3.5413,-3.5786,-3.6359,-3.673,-3.673,-3.673,-3.71,-3.6915,-3.6313,-3.562,-3.5438,-3.5119,-3.5119,-3.5119,-3.5348,-3.5469,-3.585,-3.6359,-3.69,-3.7574,-3.8903,-4.139,-4.222,-4.3421,-4.5358,-4.7002,-4.8077,-4.8495,-4.8378,-4.8233,-4.8429,-4.8285,-4.8285,-4.8591,-4.8749,-4.9065,-4.9538,-5.0009,-5.0478,-2.4918,-2.5577,0.0,0.0,0.0,0.0,0.0,0.0,0.0,0.0,0.0,0.0,0.0,0.0,0.0,0.0,0.0,0.0,0.0,0.0,0.0,0.0,0.0,0.0,0.0,0.0,0.0,0.0,0.0,0.0,0.0,0.0,0.0,0.0,0.0,0.0,0.0,-3.1107,-3.0306,-2.9542,-2.9375,-2.9196,-2.9196,-2.8812,-2.9004,-2.9579,-2.966,-2.9784,-3.0392,-3.1451,-3.2358,-3.3023,-3.5173,-3.6184,-3.6677,-3.6865,-3.6761,-3.6594,-3.643,-3.6578,-3.7102,-3.7326,-3.7598,-3.7765,-3.7328,-3.7057,-3.6923,-3.625,-3.5881,-3.5397,-3.4985,-3.5241,-3.56,-3.56,-3.5987,-3.6545,-3.6915,-3.673,-3.6545,-3.6915,-3.673,-3.6313,-3.5835,-3.5254,-3.489,-3.48,-3.4785,-3.4602,-3.4785,-3.5348,-3.5668,-3.6037,-3.7504,-3.9074,-4.0733,-4.1533,-4.2828,-4.4603,-4.6307,-4.7327,-4.7739,-4.7482,-4.7506,-4.7685,-4.7686,-4.7773,-4.8273,-4.8749,-4.9065,-4.9381,-4.9852,-5.0322,-2.4918,-2.5676,0.0,0.0,0.0,0.0,0.0,0.0,0.0,0.0,0.0,0.0,0.0,0.0,0.0,0.0,0.0,0.0,0.0,0.0,0.0,0.0,0.0,0.0,0.0,0.0,0.0,0.0,0.0,0.0,0.0,0.0,0.0,0.0,0.0,0.0,0.0,-2.9733,-2.9733,-3.1567,-2.9604,-2.862,-2.862,-2.862,-2.862,-2.8644,-2.8898,-2.9408,-2.9809,-3.0682,-3.1789,-3.301,-3.4609,-3.5247,-3.5353,-3.6865,-3.7104,-3.6908,-3.6908,-3.7132,-3.7401,-3.7401,-3.7401,-3.7401,-3.7401,-3.7401,-3.7252,-3.6594,-3.64,-3.625,-3.5592,-3.5786,-3.6173,-3.6173,-3.6545,-3.6915,-3.6915,-3.6158,-3.5786,-3.673,-3.6158,-3.568,-3.6281,-3.5654,-3.4815,-3.4516,-3.4093,-3.3911,-3.4471,-3.4456,-3.4819,-3.5738,-3.744,-3.8628,-3.9334,-4.0884,-4.2712,-4.4156,-4.5588,-4.6615,-4.7569,-4.7195,-4.7194,-4.7664,-4.7686,-4.7773,-4.8273,-4.8749,-4.8907,-4.8907,-4.983,-5.0165,-2.4658,0.0,0.0,0.0,0.0,0.0,0.0,0.0,0.0,0.0,0.0,0.0,0.0,0.0,0.0,0.0,0.0,0.0,0.0,0.0,0.0,0.0,0.0,0.0,0.0,0.0,0.0,0.0,0.0,0.0,0.0,0.0,0.0,0.0,0.0,0.0,0.0,0.0,-3.0331,-2.948,-2.9529,-2.9567,-2.9196,-2.8812,-2.8729,-2.891,-2.9175,-2.9393,-2.9772,-3.0454,-3.1372,-3.2256,-3.275,-3.4049,-3.547,-3.5677,-3.6297,-3.7252,-3.6859,-3.6721,-3.6809,-3.6809,-3.7007,-3.7401,-3.7007,-3.6844,-3.6968,-3.6534,-3.6044,-3.5587,-3.5345,-3.5786,-3.6173,-3.6173,-3.6359,-3.6545,-3.7301,-3.6915,-3.6529,-3.6915,-3.673,-3.6313,-3.6221,-3.5639,-3.5122,-3.503,-3.4623,-3.4547,-3.4789,-3.5379,-3.6064,-3.6609,-3.7401,-3.8262,-3.9154,-4.0361,-4.1726,-4.3236,-4.4622,-4.5954,-4.7208,-4.7,-4.703,-4.7194,-4.7525,-4.7613,-4.7773,-4.8569,-4.8907,-4.8907,-4.983,-5.0165,0.0,0.0,0.0,0.0,0.0,0.0,0.0,0.0,0.0,0.0,0.0,0.0,0.0,0.0,0.0,0.0,0.0,0.0,0.0,0.0,0.0,0.0,0.0,0.0,0.0,0.0,0.0,0.0,0.0,0.0,0.0,0.0,0.0,0.0,0.0,0.0,0.0,-2.9937,-2.9949,-2.9264,-2.9733,-2.9771,-2.9375,-2.8812,-2.8765,-2.9031,-2.9481,-2.9885,-3.0032,-3.0132,-3.0594,-3.1138,-3.133,-3.2462,-3.4069,-3.4276,-3.5269,-3.6618,-3.6225,-3.6298,-3.6597,-3.6597,-3.6809,-3.7007,-3.6597,-3.677,-3.6833,-3.6504,-3.5985,-3.5469,-3.569,-3.5615,-3.5615,-3.6173,-3.6359,-3.673,-3.7285,-3.6915,-3.673,-3.6915,-3.6915,-3.6915,-3.673,-3.6221,-3.5851,-3.5573,-3.4948,-3.454,-3.4932,-3.5614,-3.6177,-3.6717,-3.7162,-3.7917,-3.8958,-3.9818,-4.0954,-4.2542,-4.3884,-4.5126,-4.6504,-4.6764,-4.6841,-4.6722,-4.7391,-4.7483,-4.7293,-4.8251,-4.8591,-4.8749,-4.9695,-5.0165,0.0,0.0,0.0,0.0,0.0,0.0,0.0,0.0,0.0,0.0,0.0,0.0,0.0,0.0,0.0,0.0,0.0,0.0,0.0,0.0,0.0,0.0,0.0,0.0,0.0,0.0,0.0,0.0,0.0,0.0,0.0,0.0,0.0,0.0,0.0,0.0,-2.8654,-2.856,-2.8968,0.0,-2.9962,-2.9796,-2.9388,-2.9004,-2.8765,-2.9031,-2.9873,-3.0181,-3.0156,-2.9921,-2.9648,-2.9388,-3.0344,-3.0894,-3.15,-3.2846,-3.4196,-3.5347,-3.5347,-3.5941,-3.6597,-3.6597,-3.6597,-3.6597,-3.6597,-3.68,-3.6878,-3.6549,-3.622,-3.608,-3.6124,-3.5458,-3.5069,-3.5987,-3.6545,-3.6915,-3.6915,-3.673,-3.6545,-3.6915,-3.6915,-3.71,-3.7671,-3.7238,-3.6588,-3.5887,-3.491,-3.4525,-3.4875,-3.5186,-3.5566,-3.6114,-3.6686,-3.743,-3.8514,-3.9174,-4.031,-4.194,-4.3346,-4.4636,-4.5644,-4.6466,-4.6735,-4.6433,-4.7194,-4.7454,-4.7014,-4.7794,-4.8273,-4.8273,-4.9695,-5.0165,0.0,0.0,0.0,0.0,0.0,0.0,0.0,0.0,0.0,0.0,0.0,0.0,0.0,0.0,0.0,0.0,0.0,0.0,0.0,0.0,0.0,0.0,0.0,0.0,0.0,0.0,0.0,0.0,0.0,0.0,0.0,0.0,0.0,0.0,0.0,-2.8314,-2.8543,-2.8509,-2.8772,0.0,-2.8974,-2.9122,-2.9592,-2.94,-2.9356,-2.9031,-2.9481,-2.9481,-2.9311,-2.9456,-2.9238,-2.8837,-2.9224,-2.9916,-3.0741,-3.1127,-3.266,-3.4759,-3.4759,-3.5548,-3.6597,-3.6597,-3.6597,-3.6597,-3.6597,-3.6553,-3.6633,-3.6295,-3.5986,-3.5662,-3.5513,-3.5622,-3.5987,-3.6173,-3.6359,-3.6545,-3.7301,-3.7486,-3.7486,-3.7486,-3.7486,-3.7486,-3.7671,-3.7194,-3.6411,-3.5731,-3.5494,-3.5399,-3.5399,-3.5347,-3.5566,-3.6114,-3.6106,-3.6717,-3.7973,-3.8753,-3.9836,-4.1509,-4.259,-4.3828,-4.5126,-4.6424,-4.7014,-4.6902,-4.736,-4.7454,-4.7014,-4.7794,-4.8273,-4.8273,-4.9695,-5.0165,0.0,0.0,0.0,0.0,0.0,0.0,0.0,0.0,0.0,0.0,0.0,0.0,0.0,0.0,0.0,0.0,0.0,0.0,0.0,0.0,0.0,0.0,0.0,0.0,0.0,0.0,0.0,0.0,0.0,0.0,0.0,0.0,0.0,0.0,-2.7691,-2.792,-2.898,-2.8217,-2.8253,-2.8943,-2.9708,-3.0075,-2.9836,-2.9487,-2.9273,-2.9031,-2.9163,-2.9139,-2.9019,-2.9213,-2.9055,-2.8632,-2.9344,-2.9586,-2.9586,-2.9972,-3.1283,-3.2955,-3.3543,-3.4619,-3.6004,-3.64,-3.6597,-3.6597,-3.6597,-3.6495,-3.6334,-3.6173,-3.5971,-3.575,-3.5966,-3.6043,-3.6359,-3.673,-3.6915,-3.7116,-3.7671,-3.7671,-3.7671,-3.7671,-3.7671,-3.7623,-3.7448,-3.6829,-3.6241,-3.5891,-3.5685,-3.5573,-3.5573,-3.5557,-3.5684,-3.5859,-3.5984,-3.6352,-3.7418,-3.8114,-3.9015,-4.0227,-4.1473,-4.2647,-4.3652,-4.541,-4.6575,-4.7034,-4.7256,-4.7298,-4.7328,-4.7741,-4.8092,-4.8273,-4.9695,-5.0165,0.0,0.0,0.0,0.0,0.0,0.0,0.0,0.0,0.0,0.0,0.0,0.0,0.0,0.0,0.0,0.0,0.0,0.0,0.0,0.0,0.0,0.0,0.0,0.0,0.0,0.0,0.0,0.0,0.0,0.0,0.0,0.0,-2.79,-2.8193,-2.7524,-2.7804,-2.8854,-2.7739,-2.7751,-2.8917,-3.0225,-3.0408,-2.9646,-2.9295,-2.891,-2.8946,-2.8946,-2.8946,-2.9128,-2.9282,-2.9196,-2.8812,-2.9746,-2.9592,-2.8873,-2.9208,-3.011,-3.1359,-3.2324,-3.3653,-3.5139,-3.6187,-3.6597,-3.6597,-3.6597,-3.6422,-3.6202,-3.6202,-3.6119,-3.5996,-3.6564,-3.6463,-3.6545,-3.7301,-3.7671,-3.7671,-3.7671,-3.7671,-3.7655,-3.7591,-3.7528,-3.7369,-3.7019,-3.6479,-3.6082,-3.6195,-3.5764,-3.5573,-3.5748,-3.5573,-3.5573,-3.5573,-3.5844,-3.6179,-3.6691,-3.732,-3.8075,-3.8803,-4.0366,-4.1651,-4.2329,-4.4243,-4.5871,-4.6917,-4.6892,-4.7154,-4.7664,-4.7665,-4.7933,-4.8432,-4.9673,-5.0277,0.0,0.0,0.0,0.0,0.0,0.0,0.0,0.0,0.0,0.0,0.0,0.0,0.0,0.0,0.0,0.0,0.0,0.0,0.0,0.0,0.0,0.0,0.0,0.0,0.0,0.0,0.0,0.0,0.0,0.0,0.0,-2.7349,-2.7797,-2.8704,-2.8231,-2.762,-2.7245,-2.7879,-2.7989,-2.7377,-2.7433,-2.7908,-2.8399,-2.8496,-2.8654,-2.8681,-2.8681,-2.8861,-2.9437,-2.94,-2.9388,-2.9375,-2.9937,-2.9896,-2.9698,-2.9462,-3.0303,-3.1764,-3.2324,-3.353,-3.4858,-3.6115,-3.6597,-3.6597,-3.6597,-3.6568,-3.6539,-3.6539,-3.646,-3.634,-3.634,-3.6646,-3.6915,-3.6915,-3.7301,-3.7671,-3.7671,-3.7671,-3.7575,-3.7258,-3.6956,-3.6638,-3.6304,-3.6161,-3.6179,-3.6225,-3.5954,-3.5748,-3.6096,-3.5573,-3.5225,-3.5573,-3.5272,-3.5462,-3.635,-3.6905,-3.7425,-3.8409,-3.9788,-4.0998,-4.2329,-4.3272,-4.4737,-4.6474,-4.675,-4.7154,-4.7664,-4.7665,-4.8092,-4.8907,-4.9852,-5.0074,0.0,0.0,0.0,0.0,0.0,0.0,0.0,0.0,0.0,0.0,0.0,0.0,0.0,0.0,0.0,0.0,0.0,0.0,0.0,0.0,0.0,0.0,0.0,0.0,0.0,0.0,0.0,0.0,0.0,0.0,-2.6877,-2.7187,-2.7362,-2.7622,-2.7915,0.0,-2.712,-2.7558,-2.7512,-2.6965,-2.7229,-2.7517,-2.798,-2.8338,-2.8367,-2.862,-2.9004,-2.9004,-2.9004,-2.9949,-2.9949,-2.9567,-3.0331,-3.051,-3.0147,-2.9859,-3.0598,-3.1591,-3.239,-3.3429,-3.4631,-3.5762,-3.64,-3.6597,-3.6597,-3.6809,-3.7007,-3.7007,-3.7117,-3.7226,-3.7409,-3.7396,-3.7348,-3.7537,-3.7628,-3.7671,-3.7671,-3.7855,-3.8175,-3.8181,-3.7514,-3.7095,-3.7128,-3.6755,-3.6622,-3.6633,-3.6443,-3.6443,-3.6286,-3.5922,-3.5573,-3.5573,-3.5399,-3.5399,-3.5922,-3.66,-3.7119,-3.7464,-3.8821,-4.0126,-4.1637,-4.2706,-4.4103,-4.5991,-4.6325,-4.7052,-4.799,-4.8008,-4.8251,-4.8907,-4.983,-5.0052,0.0,0.0,0.0,0.0,0.0,0.0,0.0,0.0,0.0,0.0,0.0,0.0,0.0,0.0,0.0,0.0,0.0,0.0,0.0,0.0,0.0,0.0,0.0,0.0,0.0,0.0,0.0,0.0,0.0,0.0,-2.6313,-2.6684,-2.6847,-2.677,-2.7644,-2.7964,-2.7343,-2.7084,-2.7038,-2.7051,-2.7244,-2.7473,-2.7541,-2.7993,-2.8258,-2.8524,-2.9171,-2.9196,-2.8812,-3.014,-3.0331,-2.9758,-3.0713,-3.0946,-3.0636,-3.0459,-3.0869,-3.156,-3.226,-3.3273,-3.4502,-3.538,-3.6202,-3.6795,-3.6795,-3.7007,-3.7401,-3.7598,-3.7699,-3.8037,-3.838,-3.8088,-3.7766,-3.8116,-3.8111,-3.7855,-3.7855,-3.8159,-3.8461,-3.8794,-3.8039,-3.7565,-3.8036,-3.7441,-3.7152,-3.7251,-3.7185,-3.6946,-3.6616,-3.6616,-3.6269,-3.5922,-3.5842,-3.5793,-3.5793,-3.6469,-3.6986,-3.6986,-3.8289,-3.9536,-4.0873,-4.2144,-4.3659,-4.5508,-4.6023,-4.6885,-4.8315,-4.8168,-4.841,-4.9065,-4.9852,-4.9897,0.0,0.0,0.0,0.0,0.0,0.0,0.0,0.0,0.0,0.0,0.0,0.0,0.0,0.0,0.0,0.0,0.0,0.0,0.0,0.0,0.0,0.0,0.0,0.0,0.0,0.0,0.0,0.0,0.0,0.0,-2.6222,-2.5931,-2.6205,-2.7199,-2.7654,-2.7721,-2.7724,-2.7255,-2.7039,-2.7087,-2.7063,-2.7013,-2.7104,-2.7739,-2.818,-2.8234,-2.8512,-2.9004,-2.9375,-2.9937,-3.0128,-3.0128,-3.1284,-3.1448,-3.0903,-3.0933,-3.1063,-3.156,-3.226,-3.353,-3.4619,-3.5507,-3.6597,-3.7401,-3.7401,-3.7401,-3.7598,-3.8007,-3.8102,-3.8037,-3.838,-3.8088,-3.7766,-3.8116,-3.8296,-3.8408,-3.8408,-3.8148,-3.8071,-3.8597,-3.8019,-3.7639,-3.8003,-3.7441,-3.7235,-3.7949,-3.7525,-3.7119,-3.7464,-3.7119,-3.6946,-3.6946,-3.6649,-3.6451,-3.6451,-3.6791,-3.7131,-3.7131,-3.8322,-3.9536,-4.0873,-4.1882,-4.3234,-4.5086,-4.5861,-4.6879,-4.8315,-4.7826,-4.8251,-4.9538,-5.0009,-5.0184,0.0,0.0,0.0,0.0,0.0,0.0,0.0,0.0,0.0,0.0,0.0,0.0,0.0,0.0,0.0,0.0,0.0,0.0,0.0,0.0,0.0,0.0,0.0,0.0,0.0,0.0,0.0,0.0,0.0,0.0,-2.4628,-2.462,-2.4866,-2.5687,-2.614,-2.6364,-2.6729,-2.6844,-2.7087,-2.6905,-2.647,-2.6417,-2.708,-2.7331,-2.7781,-2.8436,-2.8512,-2.8812,-2.9375,-3.0331,-3.0522,-3.0713,-3.1093,-3.1448,-3.1894,-3.1125,-3.1568,-3.2589,-3.2706,-3.3443,-3.446,-3.5167,-3.6004,-3.7007,-3.7204,-3.7795,-3.8384,-3.858,-3.8666,-3.8593,-3.934,-3.8842,-3.8256,-3.8738,-3.8857,-3.8942,-3.9325,-3.9043,-3.8927,-3.9654,-3.9065,-3.8418,-3.8906,-3.8315,-3.7859,-3.8167,-3.8065,-3.7808,-3.7619,-3.7447,-3.7464,-3.7464,-3.7347,-3.7162,-3.7267,-3.742,-3.7504,-3.7097,-3.7535,-3.8733,-4.0639,-4.1617,-4.2905,-4.5046,-4.584,-4.6894,-4.7847,-4.8018,-4.841,-4.9065,-4.9852,-5.0052,0.0,0.0,0.0,0.0,0.0,0.0,0.0,0.0,0.0,0.0,0.0,0.0,0.0,0.0,0.0,0.0,0.0,0.0,0.0,0.0,0.0,0.0,0.0,0.0,0.0,0.0,0.0,0.0,0.0,0.0,-2.4332,-2.4148,-2.4425,-2.4987,-2.5251,-2.5586,-2.6018,-2.6686,-2.7002,-2.6929,-2.6312,-2.6005,-2.5995,-2.6911,-2.7745,-2.8326,-2.8475,-2.8812,-2.9196,-3.014,-3.0713,-3.0713,-3.1093,-3.1587,-3.2138,-3.1468,-3.1763,-3.2802,-3.2719,-3.3314,-3.4214,-3.4612,-3.5607,-3.7007,-3.7204,-3.8111,-3.88,-3.8995,-3.8877,-3.8797,-3.9546,-3.9405,-3.8922,-3.9341,-3.9308,-3.9491,-4.0055,-3.9673,-3.9673,-4.0402,-3.9805,-3.9151,-3.9642,-3.8922,-3.8375,-3.8666,-3.858,-3.8512,-3.8152,-3.8152,-3.798,-3.7808,-3.7759,-3.7674,-3.7755,-3.7784,-3.7612,-3.7204,-3.7474,-3.8477,-4.0217,-4.1185,-4.2702,-4.4804,-4.5492,-4.6518,-4.7773,-4.7933,-4.8324,-4.8667,-4.9585,-4.9895,0.0,0.0,0.0,0.0,0.0,0.0,0.0,0.0,0.0,0.0,0.0,0.0,0.0,0.0,0.0,0.0,0.0,0.0,0.0,0.0,0.0,0.0,0.0,0.0,0.0,0.0,0.0,0.0,0.0,-2.4652,-2.5117,-2.4825,-2.4866,-2.5409,-2.5478,-2.537,-2.5431,-2.6484,-2.7002,-2.6953,-2.6917,-2.5936,-2.4237,-2.6654,-2.786,-2.7884,-2.8391,-2.8608,-2.8596,-2.9746,-3.0128,-3.0319,-3.1284,-3.1468,-3.1294,-3.1593,-3.1644,-3.1547,-3.226,-3.3314,-3.42,-3.42,-3.5607,-3.7401,-3.7401,-3.7959,-3.8457,-3.9035,-3.8719,-3.8462,-3.9159,-3.9544,-3.9772,-3.9957,-3.9873,-4.0055,-4.0583,-4.0237,-4.0055,-4.0583,-3.9984,-3.959,-3.995,-3.9094,-3.8632,-3.9513,-3.9269,-3.9025,-3.9025,-3.9025,-3.8854,-3.8323,-3.8195,-3.7909,-3.8058,-3.8035,-3.7788,-3.7445,-3.8106,-3.8976,-3.9795,-4.1076,-4.2578,-4.4321,-4.4734,-4.6048,-4.823,-4.773,-4.7813,-4.8165,-4.8941,-4.9864,-2.2295,0.0,0.0,0.0,0.0,0.0,0.0,0.0,0.0,0.0,0.0,0.0,0.0,0.0,0.0,0.0,0.0,0.0,0.0,0.0,0.0,0.0,0.0,0.0,0.0,0.0,0.0,0.0,-2.5938,-2.5028,-2.4352,-2.4392,-2.4778,-2.5337,-2.541,-2.547,-2.5358,-2.6406,-2.709,-2.7026,-2.5615,-2.4707,-2.4161,-2.7038,-2.8172,-2.7792,-2.8314,-2.8423,-2.8065,-2.9582,-3.0319,-3.0713,-3.1474,-3.1851,-3.1872,-3.177,-3.1899,-3.226,-3.2572,-3.2982,-3.353,-3.3946,-3.4812,-3.5805,-3.7007,-3.7568,-3.8071,-3.9035,-3.8909,-3.8894,-3.9673,-4.0091,-4.0356,-4.0436,-4.0402,-4.0402,-4.0583,-4.0583,-4.0402,-4.0583,-4.0207,-3.9813,-3.9642,-3.9145,-3.8873,-3.9045,-3.9095,-3.9195,-3.9536,-3.9536,-3.9536,-3.9876,-3.9698,-3.9659,-3.9741,-3.9413,-3.9086,-3.8841,-3.8577,-3.908,-4.0179,-4.1298,-4.2625,-4.4356,-4.5043,-4.6202,-4.7704,-4.6926,-4.7346,-4.8631,-4.8586,-4.8888,0.0,0.0,0.0,0.0,0.0,0.0,0.0,0.0,0.0,0.0,0.0,0.0,0.0,0.0,0.0,0.0,0.0,0.0,0.0,0.0,0.0,0.0,0.0,0.0,0.0,0.0,0.0,0.0,-2.6437,-2.5568,-2.4405,-2.4392,-2.4668,-2.5215,-2.542,-2.5483,-2.5437,-2.5989,-2.6479,-2.6917,-2.5873,-2.54,-2.5343,-2.7128,-2.7828,-2.7879,-2.8083,-2.8156,-2.8209,-2.9269,-3.0037,-3.0544,-3.1054,-3.158,-3.1904,-3.173,-3.1766,-3.2164,-3.2358,-3.235,-3.2629,-3.3395,-3.4124,-3.5013,-3.6013,-3.6773,-3.7663,-3.8415,-3.9062,-3.9406,-3.974,-4.0237,-4.0583,-4.0583,-4.0583,-4.0583,-4.0583,-4.0583,-4.0583,-4.0765,-4.0652,-4.0255,-4.0051,-3.967,-3.9461,-3.9607,-3.9536,-3.9706,-4.0046,-4.0046,-4.0046,-4.0046,-4.0072,-4.0214,-4.0214,-4.001,-3.964,-3.931,-3.9254,-3.9524,-4.0243,-4.1347,-4.2797,-4.4202,-4.5104,-4.6094,-4.7006,-4.6809,-4.7356,-4.8647,-4.7831,-4.8021,0.0,0.0,0.0,0.0,0.0,0.0,0.0,-2.6563,0.0,0.0,0.0,0.0,0.0,0.0,0.0,0.0,0.0,0.0,0.0,0.0,0.0,0.0,0.0,0.0,0.0,0.0,-2.873,-2.7805,-2.686,-2.587,-2.5001,-2.4515,-2.4432,-2.5106,-2.5347,-2.5422,-2.5354,-2.5437,-2.5934,-2.6856,-2.6917,-2.7075,-2.6965,-2.6973,-2.7265,-2.7658,-2.7679,-2.795,-2.8483,-2.9065,-2.9416,-2.9883,-3.0531,-3.1218,-3.1623,-3.1623,-3.162,-3.1487,-3.1899,-3.1891,-3.1907,-3.2337,-3.3502,-3.4311,-3.4507,-3.5643,-3.7104,-3.7819,-3.8877,-3.9873,-3.9873,-4.0237,-4.0583,-4.0583,-4.0583,-4.0583,-4.0583,-4.0583,-4.0748,-4.1273,-4.1012,-4.0859,-4.1001,-4.0593,-4.0375,-4.0511,-4.0421,-4.0403,-4.0403,-4.0403,-4.0385,-3.9858,-3.9892,-3.9995,-3.9868,-4.0005,-3.9935,-3.9606,-3.9902,-4.0059,-4.0059,-4.1598,-4.3013,-4.4328,-4.5169,-4.6002,-4.6743,-4.7223,-4.7898,-4.8452,-4.7262,-4.7262,0.0,0.0,0.0,0.0,0.0,0.0,0.0,-2.5816,0.0,0.0,0.0,0.0,0.0,0.0,0.0,0.0,0.0,0.0,0.0,0.0,0.0,0.0,0.0,0.0,0.0,0.0,-2.9197,-2.7805,-2.6228,-2.5314,-2.5046,-2.4726,-2.4715,-2.5376,-2.5767,-2.5699,-2.5313,-2.5759,-2.5782,-2.5737,-2.657,-2.7003,-2.7063,-2.6926,-2.7109,-2.7135,-2.7597,-2.7757,-2.7913,-2.9154,-2.9767,-2.9961,-3.0783,-3.1129,-3.1316,-3.1316,-3.1503,-3.1593,-3.2024,-3.2144,-3.2031,-3.2465,-3.2781,-3.3211,-3.399,-3.4732,-3.5936,-3.8296,-3.9424,-4.0055,-4.0402,-4.0583,-4.0583,-4.0583,-4.0583,-4.0583,-4.0583,-4.0583,-4.0679,-4.1282,-4.1226,-4.1261,-4.1391,-4.1001,-4.0802,-4.0926,-4.0601,-4.0572,-4.0892,-4.0892,-4.0892,-4.0892,-4.0819,-4.0805,-4.0903,-4.0933,-4.1036,-4.1347,-4.0997,-4.1172,-4.1463,-4.239,-4.333,-4.4154,-4.6321,-4.7355,-4.7502,-4.8065,-4.811,-4.7931,-4.74,-4.7547,0.0,0.0,0.0,-2.3791,0.0,0.0,0.0,0.0,0.0,0.0,0.0,0.0,0.0,0.0,0.0,0.0,0.0,0.0,0.0,0.0,0.0,0.0,0.0,0.0,0.0,0.0,-2.9243,-2.7551,-2.599,-2.5066,-2.5242,-2.4736,-2.4776,-2.5537,-2.5653,-2.5753,-2.5849,-2.5701,-2.5742,-2.5994,-2.6686,-2.6977,-2.7039,-2.6965,-2.7075,-2.7038,-2.7365,-2.7316,-2.7504,-2.8655,-2.943,-3.0016,-3.032,-3.0703,-3.1009,-3.1009,-3.1383,-3.184,-3.1989,-3.2137,-3.2286,-3.2435,-3.2391,-3.2512,-3.2899,-3.4311,-3.6382,-3.8472,-3.9673,-4.0237,-4.0583,-4.0583,-4.0583,-4.0583,-4.0583,-4.0532,-4.0344,-4.0524,-4.078,-4.1072,-4.1143,-4.1338,-4.1804,-4.1586,-4.1315,-4.1597,-4.1189,-4.0892,-4.1378,-4.1229,-4.106,-4.106,-4.106,-4.1138,-4.1021,-4.1122,-4.1208,-4.1523,-4.1425,-4.1618,-4.1773,-4.3004,-4.4201,-4.5683,-4.7332,-4.8086,-4.8086,-4.8337,-4.8484,-4.84,-4.7941,-4.8086,0.0,0.0,0.0,0.0,0.0,-2.3523,0.0,0.0,0.0,-2.552,0.0,0.0,0.0,0.0,0.0,0.0,0.0,0.0,0.0,0.0,0.0,0.0,0.0,0.0,0.0,0.0,-2.8477,-2.7268,-2.579,-2.4879,-2.5166,-2.4705,-2.4849,-2.5609,-2.5615,-2.5893,-2.63,-2.6004,-2.5884,-2.6285,-2.6758,-2.6876,-2.6966,-2.6954,-2.6846,-2.7035,-2.7275,-2.7201,-2.6888,-2.8296,-2.9204,-2.9967,-2.99,-3.0294,-3.0702,-3.0886,-3.1259,-3.1888,-3.1888,-3.2079,-3.2514,-3.2326,-3.2341,-3.2203,-3.2394,-3.4274,-3.6853,-3.8456,-3.9657,-4.0583,-4.0583,-4.0583,-4.0583,-4.0583,-4.0583,-4.0481,-4.0121,-4.0266,-4.0681,-4.0684,-4.0945,-4.1377,-4.2326,-4.2062,-4.1915,-4.2237,-4.1621,-4.1229,-4.1546,-4.121,-4.106,-4.1229,-4.1229,-4.1063,-4.1136,-4.1235,-4.1304,-4.1341,-4.1699,-4.1927,-4.2082,-4.3594,-4.5213,-4.7051,-4.7804,-4.8194,-4.8102,-4.8246,-4.8506,-4.898,-4.8575,-4.8506,0.0,0.0,0.0,0.0,-2.3373,0.0,0.0,0.0,-2.382,-2.4438,0.0,0.0,0.0,0.0,0.0,0.0,0.0,0.0,0.0,0.0,0.0,0.0,0.0,0.0,0.0,0.0,0.0,-2.7035,-2.5242,-2.4168,-2.4553,-2.4611,-2.5033,-2.5792,-2.665,-2.679,-2.6007,-2.6601,-2.6487,-2.5485,-2.6297,-2.6766,-2.6892,-2.6498,-2.6486,-2.7047,-2.8025,-2.7541,-2.6496,-2.886,-2.9747,-2.9927,-2.9993,-2.9973,-3.0172,-3.0758,-3.1313,-3.1573,-3.1573,-3.195,-3.2571,-3.2212,-3.223,-3.2463,-3.3408,-3.4882,-3.6359,-3.7439,-3.9109,-4.0583,-4.0583,-4.0583,-4.0583,-4.0583,-4.0583,-4.0481,-4.0121,-4.0393,-4.0718,-4.0331,-4.1052,-4.1831,-4.2642,-4.2247,-4.1836,-4.2273,-4.1619,-4.106,-4.1229,-4.106,-4.1229,-4.1528,-4.1378,-4.123,-4.1631,-4.1704,-4.1766,-4.2289,-4.2301,-4.2544,-4.2851,-4.4352,-4.5657,-4.6413,-4.7281,-4.7505,-4.7046,-4.7328,-4.8074,-4.898,-4.8492,-4.8567,0.0,0.0,0.0,0.0,0.0,0.0,0.0,0.0,-2.44,0.0,0.0,0.0,0.0,0.0,0.0,0.0,0.0,0.0,0.0,0.0,0.0,0.0,0.0,0.0,0.0,0.0,0.0,0.0,0.0,-2.3968,-2.3838,-2.4109,-2.4494,-2.5422,-2.5826,-2.6121,-2.5956,-2.6124,-2.6192,-2.5993,-2.5928,-2.6134,-2.6399,-2.6778,-2.6967,-2.6992,-2.6815,-2.7244,-2.8462,-2.9508,-2.982,-2.9913,-2.9913,-2.998,-2.9893,-3.0227,-3.0971,-3.1609,-3.1582,-3.2169,-3.2846,-3.2473,-3.2537,-3.2974,-3.4103,-3.5398,-3.6684,-3.7807,-3.9291,-4.0583,-4.0583,-4.0583,-4.0583,-4.0583,-4.0583,-4.0429,-3.983,-3.9676,-3.9789,-3.9581,-4.0161,-4.1069,-4.2029,-4.2105,-4.2331,-4.2983,-4.2329,-4.19,-4.2235,-4.2068,-4.19,-4.2049,-4.1714,-4.1472,-4.1638,-4.1531,-4.156,-4.2008,-4.2461,-4.3004,-4.3615,-4.4955,-4.6063,-4.6455,-4.7205,-4.7528,-4.7321,-4.7422,-4.7796,-4.838,-4.8427,-4.8728,-2.4314,0.0,0.0,0.0,0.0,0.0,0.0,0.0,0.0,0.0,0.0,0.0,0.0,0.0,0.0,0.0,0.0,0.0,0.0,0.0,0.0,0.0,0.0,0.0,0.0,0.0,0.0,0.0,0.0,0.0,-2.2697,-2.3113,-2.3757,-2.4604,-2.5225,-2.5627,-2.5804,-2.5674,-2.5873,-2.6241,-2.5699,-2.5694,-2.603,-2.6696,-2.7084,-2.7172,-2.6484,-2.7536,-2.992,-2.992,-2.9891,-2.9913,-2.9913,-2.9913,-2.9913,-3.0025,-3.0891,-3.1845,-3.1817,-3.2209,-3.2942,-3.3144,-3.3242,-3.344,-3.4276,-3.5584,-3.7069,-3.7807,-3.9291,-4.0583,-4.0583,-4.0583,-4.0583,-4.0583,-4.0515,-4.0258,-3.9607,-3.9351,-3.9251,-3.9147,-3.9912,-4.0759,-4.1714,-4.2049,-4.255,-4.338,-4.2882,-4.2569,-4.2902,-4.2569,-4.2364,-4.2416,-4.2046,-4.1657,-4.1711,-4.1398,-4.1567,-4.209,-4.2597,-4.331,-4.4201,-4.5405,-4.6085,-4.6397,-4.7091,-4.7367,-4.7229,-4.7121,-4.7143,-4.7557,-4.7998,-4.8458,0.0,0.0,0.0,0.0,0.0,0.0,0.0,0.0,-2.3721,0.0,0.0,0.0,0.0,0.0,0.0,0.0,0.0,0.0,0.0,0.0,0.0,0.0,0.0,0.0,0.0,0.0,0.0,0.0,0.0,0.0,-2.0526,-2.1761,-2.2739,-2.3277,-2.5084,-2.5804,-2.5298,-2.5831,-2.5945,-2.5446,-2.5446,-2.5723,-2.6206,-2.5754,-2.6338,-2.7724,-2.7661,-2.8574,-2.9945,-2.9975,-2.9864,-2.9913,-2.9913,-2.9913,-2.9913,-3.0575,-3.1315,-3.1756,-3.1905,-3.2284,-3.2656,-3.3823,-3.3857,-3.3558,-3.383,-3.5398,-3.6884,-3.6869,-3.8726,-4.0583,-4.0583,-4.0583,-4.0583,-4.0583,-4.031,-3.995,-3.9556,-3.9529,-3.9651,-3.9607,-4.0367,-4.121,-4.2235,-4.2049,-4.2049,-4.3068,-4.2735,-4.2402,-4.2402,-4.2402,-4.2416,-4.2327,-4.196,-4.1789,-4.1714,-4.1752,-4.2092,-4.2932,-4.3024,-4.331,-4.4201,-4.5405,-4.5932,-4.5764,-4.657,-4.6655,-4.6173,-4.6055,-4.6071,-4.6476,-4.7265,-4.7909,0.0,0.0,-2.3278,-2.3762,0.0,0.0,0.0,0.0,0.0,0.0,0.0,0.0,0.0,0.0,0.0,0.0,0.0,0.0,0.0,0.0,0.0,0.0,0.0,0.0,0.0,0.0,0.0,0.0,0.0,0.0,0.0,-2.1227,-2.2089,-2.3064,-2.3913,-2.4429,-2.479,-2.5155,-2.5349,-2.518,-2.5361,-2.553,-2.5699,-2.5946,-2.6044,-2.6313,-2.7567,-2.8404,-2.8776,-2.9609,-2.9879,-2.9934,-2.9934,-2.9934,-2.9961,-3.0206,-3.1123,-3.2525,-3.2438,-3.2612,-3.2707,-3.3314,-3.3715,-3.4102,-3.3823,-3.4953,-3.6214,-3.6577,-3.8022,-3.9486,-4.0387,-4.0387,-4.0224,-4.0566,-4.0111,-3.9733,-3.9512,-3.9339,-3.9305,-3.9607,-3.9858,-4.0536,-4.1714,-4.1863,-4.203,-4.338,-4.338,-4.3214,-4.3214,-4.3214,-4.3322,-4.3186,-4.2837,-4.2633,-4.2645,-4.2295,-4.2368,-4.2912,-4.3004,-4.331,-4.3767,-4.5256,-4.5915,-4.591,-4.6902,-4.7298,-4.7138,-4.7028,-4.6889,-4.7027,-4.7572,-4.7718,-2.3376,-2.3283,0.0,0.0,-2.3968,0.0,-2.3763,0.0,0.0,0.0,0.0,0.0,0.0,0.0,0.0,0.0,0.0,0.0,0.0,0.0,0.0,0.0,0.0,0.0,0.0,0.0,-2.3203,-2.1699,0.0,0.0,0.0,0.0,-2.1407,-2.2337,-2.3152,-2.3973,-2.448,-2.4951,-2.5083,-2.4902,-2.5264,-2.5433,-2.5433,-2.5775,-2.5922,-2.5993,-2.6967,-2.7599,-2.783,-2.8778,-2.9393,-2.985,-2.985,-2.9635,-2.9286,-2.9812,-3.1133,-3.2734,-3.2763,-3.2822,-3.2746,-3.2965,-3.3558,-3.4111,-3.4064,-3.4985,-3.6231,-3.6786,-3.7664,-3.892,-3.9991,-4.0186,-4.0008,-4.0169,-3.9892,-3.9547,-3.9305,-3.9149,-3.8977,-3.9401,-3.9706,-4.0198,-4.121,-4.1528,-4.2197,-4.3546,-4.3546,-4.3546,-4.3711,-4.3711,-4.3652,-4.3496,-4.3332,-4.3051,-4.2577,-4.2359,-4.2211,-4.2276,-4.2544,-4.2851,-4.3157,-4.4955,-4.6002,-4.6002,-4.7006,-4.7643,-4.7643,-4.7397,-4.7423,-4.7563,-4.7789,-4.775]}]]